<?xml version="1.0" encoding="UTF-8" standalone="no" ?>
<gpx xmlns="http://www.topografix.com/GPX/1/1" xmlns:xsi="http://www.w3.org/2001/XMLSchema-instance" xsi:schemaLocation="http://www.topografix.com/GPX/1/1 http://www.topografix.com/GPX/1/1/gpx.xsd" version="1.1" creator="VisuGPX - https://www.visugpx.com">
  <metadata>
    <name>Sète Mont Saint-Clair les Pierres Blanches</name>
  </metadata>
  <trk>
    <name><![CDATA[Sète Mont Saint-Clair les Pierres Blanches_1]]></name>
    <trkseg>
      <trkpt lat="43.39517" lon="3.67563">
        <ele>22.1</ele>
        <time>2021-02-07T09:17:11Z</time>
      </trkpt>
      <trkpt lat="43.3952" lon="3.67569">
        <ele>22.2</ele>
        <time>2021-02-07T09:17:15Z</time>
      </trkpt>
      <trkpt lat="43.39518" lon="3.67576">
        <ele>22.7</ele>
        <time>2021-02-07T09:17:20Z</time>
      </trkpt>
      <trkpt lat="43.39517" lon="3.67583">
        <ele>22.9</ele>
        <time>2021-02-07T09:17:25Z</time>
      </trkpt>
      <trkpt lat="43.39514" lon="3.67589">
        <ele>23</ele>
        <time>2021-02-07T09:17:29Z</time>
      </trkpt>
      <trkpt lat="43.39512" lon="3.67594">
        <ele>23.2</ele>
        <time>2021-02-07T09:17:33Z</time>
      </trkpt>
      <trkpt lat="43.3951" lon="3.676">
        <ele>23</ele>
        <time>2021-02-07T09:17:38Z</time>
      </trkpt>
      <trkpt lat="43.39508" lon="3.67607">
        <ele>23</ele>
        <time>2021-02-07T09:17:42Z</time>
      </trkpt>
      <trkpt lat="43.39507" lon="3.67614">
        <ele>23.2</ele>
        <time>2021-02-07T09:17:46Z</time>
      </trkpt>
      <trkpt lat="43.39504" lon="3.67621">
        <ele>23.5</ele>
        <time>2021-02-07T09:17:50Z</time>
      </trkpt>
      <trkpt lat="43.39501" lon="3.67628">
        <ele>23.8</ele>
        <time>2021-02-07T09:17:54Z</time>
      </trkpt>
      <trkpt lat="43.39499" lon="3.67634">
        <ele>24</ele>
        <time>2021-02-07T09:17:58Z</time>
      </trkpt>
      <trkpt lat="43.39497" lon="3.6764">
        <ele>24.2</ele>
        <time>2021-02-07T09:18:03Z</time>
      </trkpt>
      <trkpt lat="43.39494" lon="3.67645">
        <ele>24.6</ele>
        <time>2021-02-07T09:18:07Z</time>
      </trkpt>
      <trkpt lat="43.39492" lon="3.67652">
        <ele>24.9</ele>
        <time>2021-02-07T09:18:12Z</time>
      </trkpt>
      <trkpt lat="43.3949" lon="3.67658">
        <ele>25.1</ele>
        <time>2021-02-07T09:18:16Z</time>
      </trkpt>
      <trkpt lat="43.39488" lon="3.67664">
        <ele>25.3</ele>
        <time>2021-02-07T09:18:19Z</time>
      </trkpt>
      <trkpt lat="43.39486" lon="3.6767">
        <ele>25.7</ele>
        <time>2021-02-07T09:18:23Z</time>
      </trkpt>
      <trkpt lat="43.39484" lon="3.67677">
        <ele>26.2</ele>
        <time>2021-02-07T09:18:28Z</time>
      </trkpt>
      <trkpt lat="43.39481" lon="3.67684">
        <ele>26.4</ele>
        <time>2021-02-07T09:18:33Z</time>
      </trkpt>
      <trkpt lat="43.39479" lon="3.6769">
        <ele>26.1</ele>
        <time>2021-02-07T09:18:38Z</time>
      </trkpt>
      <trkpt lat="43.39477" lon="3.67696">
        <ele>26.1</ele>
        <time>2021-02-07T09:18:43Z</time>
      </trkpt>
      <trkpt lat="43.39475" lon="3.67702">
        <ele>25.3</ele>
        <time>2021-02-07T09:18:49Z</time>
      </trkpt>
      <trkpt lat="43.39473" lon="3.67708">
        <ele>25.5</ele>
        <time>2021-02-07T09:18:53Z</time>
      </trkpt>
      <trkpt lat="43.39471" lon="3.67713">
        <ele>25.6</ele>
        <time>2021-02-07T09:18:56Z</time>
      </trkpt>
      <trkpt lat="43.39469" lon="3.6772">
        <ele>25.5</ele>
        <time>2021-02-07T09:19:01Z</time>
      </trkpt>
      <trkpt lat="43.39467" lon="3.67727">
        <ele>25.2</ele>
        <time>2021-02-07T09:19:06Z</time>
      </trkpt>
      <trkpt lat="43.39466" lon="3.67734">
        <ele>24.9</ele>
        <time>2021-02-07T09:19:11Z</time>
      </trkpt>
      <trkpt lat="43.39464" lon="3.67741">
        <ele>24.3</ele>
        <time>2021-02-07T09:19:16Z</time>
      </trkpt>
      <trkpt lat="43.3946" lon="3.67746">
        <ele>24</ele>
        <time>2021-02-07T09:19:20Z</time>
      </trkpt>
      <trkpt lat="43.39457" lon="3.67751">
        <ele>23.7</ele>
        <time>2021-02-07T09:19:24Z</time>
      </trkpt>
      <trkpt lat="43.39455" lon="3.67757">
        <ele>23.6</ele>
        <time>2021-02-07T09:19:28Z</time>
      </trkpt>
      <trkpt lat="43.39453" lon="3.67764">
        <ele>23.8</ele>
        <time>2021-02-07T09:19:31Z</time>
      </trkpt>
      <trkpt lat="43.3945" lon="3.6777">
        <ele>23.9</ele>
        <time>2021-02-07T09:19:34Z</time>
      </trkpt>
      <trkpt lat="43.39449" lon="3.67776">
        <ele>24.1</ele>
        <time>2021-02-07T09:19:37Z</time>
      </trkpt>
      <trkpt lat="43.39449" lon="3.67783">
        <ele>24.4</ele>
        <time>2021-02-07T09:19:41Z</time>
      </trkpt>
      <trkpt lat="43.39449" lon="3.67791">
        <ele>24.5</ele>
        <time>2021-02-07T09:19:46Z</time>
      </trkpt>
      <trkpt lat="43.39447" lon="3.67798">
        <ele>24.8</ele>
        <time>2021-02-07T09:19:50Z</time>
      </trkpt>
      <trkpt lat="43.39443" lon="3.678">
        <ele>25.1</ele>
        <time>2021-02-07T09:19:54Z</time>
      </trkpt>
      <trkpt lat="43.39438" lon="3.67805">
        <ele>25.2</ele>
        <time>2021-02-07T09:19:59Z</time>
      </trkpt>
      <trkpt lat="43.39435" lon="3.6781">
        <ele>25.2</ele>
        <time>2021-02-07T09:20:07Z</time>
      </trkpt>
      <trkpt lat="43.39433" lon="3.67816">
        <ele>24.9</ele>
        <time>2021-02-07T09:20:11Z</time>
      </trkpt>
      <trkpt lat="43.39431" lon="3.67823">
        <ele>24.6</ele>
        <time>2021-02-07T09:20:15Z</time>
      </trkpt>
      <trkpt lat="43.39429" lon="3.6783">
        <ele>24.5</ele>
        <time>2021-02-07T09:20:19Z</time>
      </trkpt>
      <trkpt lat="43.39428" lon="3.67837">
        <ele>25.6</ele>
        <time>2021-02-07T09:20:22Z</time>
      </trkpt>
      <trkpt lat="43.39426" lon="3.67843">
        <ele>25.8</ele>
        <time>2021-02-07T09:20:26Z</time>
      </trkpt>
      <trkpt lat="43.39424" lon="3.67849">
        <ele>25.8</ele>
        <time>2021-02-07T09:20:31Z</time>
      </trkpt>
      <trkpt lat="43.39421" lon="3.67855">
        <ele>25.7</ele>
        <time>2021-02-07T09:20:36Z</time>
      </trkpt>
      <trkpt lat="43.39417" lon="3.67859">
        <ele>25.7</ele>
        <time>2021-02-07T09:20:40Z</time>
      </trkpt>
      <trkpt lat="43.39411" lon="3.67861">
        <ele>25.6</ele>
        <time>2021-02-07T09:20:44Z</time>
      </trkpt>
      <trkpt lat="43.39407" lon="3.67864">
        <ele>25.4</ele>
        <time>2021-02-07T09:20:48Z</time>
      </trkpt>
      <trkpt lat="43.39404" lon="3.67871">
        <ele>25.5</ele>
        <time>2021-02-07T09:20:52Z</time>
      </trkpt>
      <trkpt lat="43.39403" lon="3.67877">
        <ele>25.3</ele>
        <time>2021-02-07T09:20:57Z</time>
      </trkpt>
      <trkpt lat="43.39402" lon="3.67884">
        <ele>25.1</ele>
        <time>2021-02-07T09:21:03Z</time>
      </trkpt>
      <trkpt lat="43.39401" lon="3.67891">
        <ele>24.9</ele>
        <time>2021-02-07T09:21:07Z</time>
      </trkpt>
      <trkpt lat="43.394" lon="3.67897">
        <ele>24.3</ele>
        <time>2021-02-07T09:21:11Z</time>
      </trkpt>
      <trkpt lat="43.39399" lon="3.67905">
        <ele>24.3</ele>
        <time>2021-02-07T09:21:15Z</time>
      </trkpt>
      <trkpt lat="43.39398" lon="3.67912">
        <ele>24.2</ele>
        <time>2021-02-07T09:21:19Z</time>
      </trkpt>
      <trkpt lat="43.39396" lon="3.67919">
        <ele>24.1</ele>
        <time>2021-02-07T09:21:24Z</time>
      </trkpt>
      <trkpt lat="43.39394" lon="3.67925">
        <ele>24</ele>
        <time>2021-02-07T09:21:28Z</time>
      </trkpt>
      <trkpt lat="43.39393" lon="3.67932">
        <ele>23.8</ele>
        <time>2021-02-07T09:21:32Z</time>
      </trkpt>
      <trkpt lat="43.39391" lon="3.67938">
        <ele>23.6</ele>
        <time>2021-02-07T09:21:36Z</time>
      </trkpt>
      <trkpt lat="43.3939" lon="3.67945">
        <ele>23.7</ele>
        <time>2021-02-07T09:21:40Z</time>
      </trkpt>
      <trkpt lat="43.39389" lon="3.67952">
        <ele>23.7</ele>
        <time>2021-02-07T09:21:43Z</time>
      </trkpt>
      <trkpt lat="43.39388" lon="3.67958">
        <ele>23.6</ele>
        <time>2021-02-07T09:21:46Z</time>
      </trkpt>
      <trkpt lat="43.39386" lon="3.67963">
        <ele>23.6</ele>
        <time>2021-02-07T09:21:49Z</time>
      </trkpt>
      <trkpt lat="43.39382" lon="3.6797">
        <ele>23.5</ele>
        <time>2021-02-07T09:21:53Z</time>
      </trkpt>
      <trkpt lat="43.39378" lon="3.67974">
        <ele>23.5</ele>
        <time>2021-02-07T09:21:57Z</time>
      </trkpt>
      <trkpt lat="43.39377" lon="3.67981">
        <ele>23.7</ele>
        <time>2021-02-07T09:22:01Z</time>
      </trkpt>
      <trkpt lat="43.39375" lon="3.67987">
        <ele>23.5</ele>
        <time>2021-02-07T09:22:05Z</time>
      </trkpt>
      <trkpt lat="43.39374" lon="3.67995">
        <ele>23.2</ele>
        <time>2021-02-07T09:22:09Z</time>
      </trkpt>
      <trkpt lat="43.39373" lon="3.68001">
        <ele>23</ele>
        <time>2021-02-07T09:22:13Z</time>
      </trkpt>
      <trkpt lat="43.39374" lon="3.68008">
        <ele>22.6</ele>
        <time>2021-02-07T09:22:17Z</time>
      </trkpt>
      <trkpt lat="43.39374" lon="3.68014">
        <ele>22.3</ele>
        <time>2021-02-07T09:22:21Z</time>
      </trkpt>
      <trkpt lat="43.39374" lon="3.68021">
        <ele>22.2</ele>
        <time>2021-02-07T09:22:25Z</time>
      </trkpt>
      <trkpt lat="43.39373" lon="3.68028">
        <ele>22.2</ele>
        <time>2021-02-07T09:22:30Z</time>
      </trkpt>
      <trkpt lat="43.39373" lon="3.68035">
        <ele>22.2</ele>
        <time>2021-02-07T09:22:34Z</time>
      </trkpt>
      <trkpt lat="43.39372" lon="3.68042">
        <ele>22.1</ele>
        <time>2021-02-07T09:22:38Z</time>
      </trkpt>
      <trkpt lat="43.39373" lon="3.68048">
        <ele>22</ele>
        <time>2021-02-07T09:22:42Z</time>
      </trkpt>
      <trkpt lat="43.39373" lon="3.68055">
        <ele>22.2</ele>
        <time>2021-02-07T09:22:46Z</time>
      </trkpt>
      <trkpt lat="43.39373" lon="3.68062">
        <ele>22.2</ele>
        <time>2021-02-07T09:22:50Z</time>
      </trkpt>
      <trkpt lat="43.39373" lon="3.68069">
        <ele>22</ele>
        <time>2021-02-07T09:22:54Z</time>
      </trkpt>
      <trkpt lat="43.39374" lon="3.68077">
        <ele>22</ele>
        <time>2021-02-07T09:22:58Z</time>
      </trkpt>
      <trkpt lat="43.39374" lon="3.68084">
        <ele>22</ele>
        <time>2021-02-07T09:23:02Z</time>
      </trkpt>
      <trkpt lat="43.39374" lon="3.6809">
        <ele>21.8</ele>
        <time>2021-02-07T09:23:06Z</time>
      </trkpt>
      <trkpt lat="43.39375" lon="3.68097">
        <ele>21.7</ele>
        <time>2021-02-07T09:23:10Z</time>
      </trkpt>
      <trkpt lat="43.39375" lon="3.68104">
        <ele>21.6</ele>
        <time>2021-02-07T09:23:14Z</time>
      </trkpt>
      <trkpt lat="43.39376" lon="3.68112">
        <ele>21.6</ele>
        <time>2021-02-07T09:23:18Z</time>
      </trkpt>
      <trkpt lat="43.39376" lon="3.68119">
        <ele>21.4</ele>
        <time>2021-02-07T09:23:22Z</time>
      </trkpt>
      <trkpt lat="43.39377" lon="3.68126">
        <ele>21.4</ele>
        <time>2021-02-07T09:23:26Z</time>
      </trkpt>
      <trkpt lat="43.39377" lon="3.68133">
        <ele>21.4</ele>
        <time>2021-02-07T09:23:30Z</time>
      </trkpt>
      <trkpt lat="43.39377" lon="3.6814">
        <ele>21.3</ele>
        <time>2021-02-07T09:23:34Z</time>
      </trkpt>
      <trkpt lat="43.39376" lon="3.68147">
        <ele>20.9</ele>
        <time>2021-02-07T09:23:38Z</time>
      </trkpt>
      <trkpt lat="43.39376" lon="3.68154">
        <ele>20.7</ele>
        <time>2021-02-07T09:23:42Z</time>
      </trkpt>
      <trkpt lat="43.39376" lon="3.68161">
        <ele>20.6</ele>
        <time>2021-02-07T09:23:46Z</time>
      </trkpt>
      <trkpt lat="43.39377" lon="3.68168">
        <ele>20.4</ele>
        <time>2021-02-07T09:23:50Z</time>
      </trkpt>
      <trkpt lat="43.39378" lon="3.68175">
        <ele>20.3</ele>
        <time>2021-02-07T09:23:54Z</time>
      </trkpt>
      <trkpt lat="43.3938" lon="3.68182">
        <ele>20.3</ele>
        <time>2021-02-07T09:23:58Z</time>
      </trkpt>
      <trkpt lat="43.3938" lon="3.68189">
        <ele>20.6</ele>
        <time>2021-02-07T09:24:02Z</time>
      </trkpt>
      <trkpt lat="43.39381" lon="3.68196">
        <ele>20.5</ele>
        <time>2021-02-07T09:24:06Z</time>
      </trkpt>
      <trkpt lat="43.39381" lon="3.68203">
        <ele>20.5</ele>
        <time>2021-02-07T09:24:10Z</time>
      </trkpt>
      <trkpt lat="43.39382" lon="3.6821">
        <ele>20.5</ele>
        <time>2021-02-07T09:24:14Z</time>
      </trkpt>
      <trkpt lat="43.39382" lon="3.68217">
        <ele>20.7</ele>
        <time>2021-02-07T09:24:18Z</time>
      </trkpt>
      <trkpt lat="43.39383" lon="3.68224">
        <ele>20.9</ele>
        <time>2021-02-07T09:24:22Z</time>
      </trkpt>
      <trkpt lat="43.39384" lon="3.68231">
        <ele>21</ele>
        <time>2021-02-07T09:24:26Z</time>
      </trkpt>
      <trkpt lat="43.39384" lon="3.68238">
        <ele>21.1</ele>
        <time>2021-02-07T09:24:30Z</time>
      </trkpt>
      <trkpt lat="43.39384" lon="3.68246">
        <ele>21.2</ele>
        <time>2021-02-07T09:24:34Z</time>
      </trkpt>
      <trkpt lat="43.39384" lon="3.68252">
        <ele>21.2</ele>
        <time>2021-02-07T09:24:38Z</time>
      </trkpt>
      <trkpt lat="43.39384" lon="3.6826">
        <ele>21.5</ele>
        <time>2021-02-07T09:24:42Z</time>
      </trkpt>
      <trkpt lat="43.39383" lon="3.68267">
        <ele>21.4</ele>
        <time>2021-02-07T09:24:46Z</time>
      </trkpt>
      <trkpt lat="43.39382" lon="3.68275">
        <ele>20.8</ele>
        <time>2021-02-07T09:24:50Z</time>
      </trkpt>
      <trkpt lat="43.39381" lon="3.68282">
        <ele>20.1</ele>
        <time>2021-02-07T09:24:54Z</time>
      </trkpt>
      <trkpt lat="43.3938" lon="3.68289">
        <ele>19.7</ele>
        <time>2021-02-07T09:24:58Z</time>
      </trkpt>
      <trkpt lat="43.39378" lon="3.68296">
        <ele>19.7</ele>
        <time>2021-02-07T09:25:02Z</time>
      </trkpt>
      <trkpt lat="43.39375" lon="3.68302">
        <ele>19.7</ele>
        <time>2021-02-07T09:25:06Z</time>
      </trkpt>
      <trkpt lat="43.39373" lon="3.68308">
        <ele>19.7</ele>
        <time>2021-02-07T09:25:10Z</time>
      </trkpt>
      <trkpt lat="43.39372" lon="3.68314">
        <ele>19.5</ele>
        <time>2021-02-07T09:25:14Z</time>
      </trkpt>
      <trkpt lat="43.3937" lon="3.6832">
        <ele>19.5</ele>
        <time>2021-02-07T09:25:18Z</time>
      </trkpt>
      <trkpt lat="43.39367" lon="3.68326">
        <ele>19.4</ele>
        <time>2021-02-07T09:25:22Z</time>
      </trkpt>
      <trkpt lat="43.39365" lon="3.68332">
        <ele>19.3</ele>
        <time>2021-02-07T09:25:26Z</time>
      </trkpt>
      <trkpt lat="43.39362" lon="3.68337">
        <ele>19.1</ele>
        <time>2021-02-07T09:25:30Z</time>
      </trkpt>
      <trkpt lat="43.39358" lon="3.68341">
        <ele>19.4</ele>
        <time>2021-02-07T09:25:40Z</time>
      </trkpt>
      <trkpt lat="43.39356" lon="3.68348">
        <ele>19.5</ele>
        <time>2021-02-07T09:25:45Z</time>
      </trkpt>
      <trkpt lat="43.39353" lon="3.68354">
        <ele>19.8</ele>
        <time>2021-02-07T09:25:49Z</time>
      </trkpt>
      <trkpt lat="43.3935" lon="3.68361">
        <ele>19.8</ele>
        <time>2021-02-07T09:25:53Z</time>
      </trkpt>
      <trkpt lat="43.39347" lon="3.68367">
        <ele>20.1</ele>
        <time>2021-02-07T09:25:57Z</time>
      </trkpt>
      <trkpt lat="43.39344" lon="3.68372">
        <ele>20.3</ele>
        <time>2021-02-07T09:26:01Z</time>
      </trkpt>
      <trkpt lat="43.39342" lon="3.68378">
        <ele>20.4</ele>
        <time>2021-02-07T09:26:05Z</time>
      </trkpt>
      <trkpt lat="43.39339" lon="3.68384">
        <ele>20.7</ele>
        <time>2021-02-07T09:26:10Z</time>
      </trkpt>
      <trkpt lat="43.39334" lon="3.68385">
        <ele>20.7</ele>
        <time>2021-02-07T09:26:15Z</time>
      </trkpt>
      <trkpt lat="43.39329" lon="3.68388">
        <ele>20.6</ele>
        <time>2021-02-07T09:26:20Z</time>
      </trkpt>
      <trkpt lat="43.39324" lon="3.68392">
        <ele>20.3</ele>
        <time>2021-02-07T09:26:25Z</time>
      </trkpt>
      <trkpt lat="43.39321" lon="3.68396">
        <ele>20</ele>
        <time>2021-02-07T09:26:30Z</time>
      </trkpt>
      <trkpt lat="43.39317" lon="3.68401">
        <ele>19.4</ele>
        <time>2021-02-07T09:26:40Z</time>
      </trkpt>
      <trkpt lat="43.39313" lon="3.68404">
        <ele>19.4</ele>
        <time>2021-02-07T09:26:45Z</time>
      </trkpt>
      <trkpt lat="43.39308" lon="3.68408">
        <ele>19.2</ele>
        <time>2021-02-07T09:26:52Z</time>
      </trkpt>
      <trkpt lat="43.39304" lon="3.68412">
        <ele>19.2</ele>
        <time>2021-02-07T09:26:57Z</time>
      </trkpt>
      <trkpt lat="43.39301" lon="3.68417">
        <ele>19.2</ele>
        <time>2021-02-07T09:27:02Z</time>
      </trkpt>
      <trkpt lat="43.39297" lon="3.6842">
        <ele>19.2</ele>
        <time>2021-02-07T09:27:07Z</time>
      </trkpt>
      <trkpt lat="43.39293" lon="3.68424">
        <ele>19.3</ele>
        <time>2021-02-07T09:27:11Z</time>
      </trkpt>
      <trkpt lat="43.39289" lon="3.68427">
        <ele>19.3</ele>
        <time>2021-02-07T09:27:15Z</time>
      </trkpt>
      <trkpt lat="43.39284" lon="3.68431">
        <ele>19.1</ele>
        <time>2021-02-07T09:27:20Z</time>
      </trkpt>
      <trkpt lat="43.39281" lon="3.68437">
        <ele>18.3</ele>
        <time>2021-02-07T09:28:26Z</time>
      </trkpt>
      <trkpt lat="43.39278" lon="3.68442">
        <ele>18.7</ele>
        <time>2021-02-07T09:28:30Z</time>
      </trkpt>
      <trkpt lat="43.39278" lon="3.68448">
        <ele>18.8</ele>
        <time>2021-02-07T09:28:34Z</time>
      </trkpt>
      <trkpt lat="43.39281" lon="3.68455">
        <ele>19.1</ele>
        <time>2021-02-07T09:28:38Z</time>
      </trkpt>
      <trkpt lat="43.39282" lon="3.68461">
        <ele>19.3</ele>
        <time>2021-02-07T09:28:42Z</time>
      </trkpt>
      <trkpt lat="43.39281" lon="3.68468">
        <ele>19.3</ele>
        <time>2021-02-07T09:28:47Z</time>
      </trkpt>
      <trkpt lat="43.39282" lon="3.68476">
        <ele>19.4</ele>
        <time>2021-02-07T09:28:51Z</time>
      </trkpt>
      <trkpt lat="43.39282" lon="3.68482">
        <ele>19.2</ele>
        <time>2021-02-07T09:28:54Z</time>
      </trkpt>
      <trkpt lat="43.39284" lon="3.68489">
        <ele>18.9</ele>
        <time>2021-02-07T09:28:58Z</time>
      </trkpt>
      <trkpt lat="43.39288" lon="3.68487">
        <ele>18.6</ele>
        <time>2021-02-07T09:29:02Z</time>
      </trkpt>
      <trkpt lat="43.39294" lon="3.68485">
        <ele>18.4</ele>
        <time>2021-02-07T09:29:06Z</time>
      </trkpt>
      <trkpt lat="43.39295" lon="3.68492">
        <ele>18.1</ele>
        <time>2021-02-07T09:29:11Z</time>
      </trkpt>
      <trkpt lat="43.39293" lon="3.68498">
        <ele>17.9</ele>
        <time>2021-02-07T09:29:14Z</time>
      </trkpt>
      <trkpt lat="43.39291" lon="3.68505">
        <ele>17.8</ele>
        <time>2021-02-07T09:29:18Z</time>
      </trkpt>
      <trkpt lat="43.39289" lon="3.68511">
        <ele>17.7</ele>
        <time>2021-02-07T09:29:22Z</time>
      </trkpt>
      <trkpt lat="43.39287" lon="3.68518">
        <ele>17.7</ele>
        <time>2021-02-07T09:29:26Z</time>
      </trkpt>
      <trkpt lat="43.39285" lon="3.68524">
        <ele>17.8</ele>
        <time>2021-02-07T09:29:30Z</time>
      </trkpt>
      <trkpt lat="43.39283" lon="3.6853">
        <ele>17.6</ele>
        <time>2021-02-07T09:29:34Z</time>
      </trkpt>
      <trkpt lat="43.39281" lon="3.68537">
        <ele>17.6</ele>
        <time>2021-02-07T09:29:38Z</time>
      </trkpt>
      <trkpt lat="43.39279" lon="3.68545">
        <ele>17.3</ele>
        <time>2021-02-07T09:29:42Z</time>
      </trkpt>
      <trkpt lat="43.39276" lon="3.68551">
        <ele>17.2</ele>
        <time>2021-02-07T09:29:45Z</time>
      </trkpt>
      <trkpt lat="43.39275" lon="3.68557">
        <ele>17.1</ele>
        <time>2021-02-07T09:29:49Z</time>
      </trkpt>
      <trkpt lat="43.39272" lon="3.68563">
        <ele>16.8</ele>
        <time>2021-02-07T09:29:53Z</time>
      </trkpt>
      <trkpt lat="43.3927" lon="3.6857">
        <ele>16.7</ele>
        <time>2021-02-07T09:29:58Z</time>
      </trkpt>
      <trkpt lat="43.39267" lon="3.68576">
        <ele>16.6</ele>
        <time>2021-02-07T09:30:02Z</time>
      </trkpt>
      <trkpt lat="43.39266" lon="3.68583">
        <ele>16.5</ele>
        <time>2021-02-07T09:30:06Z</time>
      </trkpt>
      <trkpt lat="43.39264" lon="3.68589">
        <ele>16.4</ele>
        <time>2021-02-07T09:30:10Z</time>
      </trkpt>
      <trkpt lat="43.39263" lon="3.68596">
        <ele>16.4</ele>
        <time>2021-02-07T09:30:14Z</time>
      </trkpt>
      <trkpt lat="43.39261" lon="3.68602">
        <ele>16.4</ele>
        <time>2021-02-07T09:30:18Z</time>
      </trkpt>
      <trkpt lat="43.3926" lon="3.6861">
        <ele>16.8</ele>
        <time>2021-02-07T09:30:22Z</time>
      </trkpt>
      <trkpt lat="43.39259" lon="3.68617">
        <ele>17.1</ele>
        <time>2021-02-07T09:30:26Z</time>
      </trkpt>
      <trkpt lat="43.39258" lon="3.68624">
        <ele>17.3</ele>
        <time>2021-02-07T09:30:30Z</time>
      </trkpt>
      <trkpt lat="43.39258" lon="3.68631">
        <ele>17.4</ele>
        <time>2021-02-07T09:30:34Z</time>
      </trkpt>
      <trkpt lat="43.39258" lon="3.68638">
        <ele>17.5</ele>
        <time>2021-02-07T09:30:38Z</time>
      </trkpt>
      <trkpt lat="43.39258" lon="3.68646">
        <ele>17.4</ele>
        <time>2021-02-07T09:30:42Z</time>
      </trkpt>
      <trkpt lat="43.39258" lon="3.68652">
        <ele>17.4</ele>
        <time>2021-02-07T09:30:46Z</time>
      </trkpt>
      <trkpt lat="43.3926" lon="3.68659">
        <ele>17.2</ele>
        <time>2021-02-07T09:30:50Z</time>
      </trkpt>
      <trkpt lat="43.39264" lon="3.68665">
        <ele>17.2</ele>
        <time>2021-02-07T09:30:54Z</time>
      </trkpt>
      <trkpt lat="43.39268" lon="3.68668">
        <ele>16.8</ele>
        <time>2021-02-07T09:30:58Z</time>
      </trkpt>
      <trkpt lat="43.39273" lon="3.6867">
        <ele>16.9</ele>
        <time>2021-02-07T09:31:03Z</time>
      </trkpt>
      <trkpt lat="43.39274" lon="3.68664">
        <ele>17</ele>
        <time>2021-02-07T09:31:08Z</time>
      </trkpt>
      <trkpt lat="43.39274" lon="3.68657">
        <ele>17.1</ele>
        <time>2021-02-07T09:31:13Z</time>
      </trkpt>
      <trkpt lat="43.39275" lon="3.68649">
        <ele>17.4</ele>
        <time>2021-02-07T09:31:18Z</time>
      </trkpt>
      <trkpt lat="43.39276" lon="3.68643">
        <ele>17.6</ele>
        <time>2021-02-07T09:31:23Z</time>
      </trkpt>
      <trkpt lat="43.39277" lon="3.68636">
        <ele>17.9</ele>
        <time>2021-02-07T09:31:28Z</time>
      </trkpt>
      <trkpt lat="43.39278" lon="3.6863">
        <ele>18.3</ele>
        <time>2021-02-07T09:31:32Z</time>
      </trkpt>
      <trkpt lat="43.39281" lon="3.68624">
        <ele>18.7</ele>
        <time>2021-02-07T09:31:36Z</time>
      </trkpt>
      <trkpt lat="43.39286" lon="3.68621">
        <ele>19</ele>
        <time>2021-02-07T09:31:40Z</time>
      </trkpt>
      <trkpt lat="43.3929" lon="3.68621">
        <ele>19.2</ele>
        <time>2021-02-07T09:31:45Z</time>
      </trkpt>
      <trkpt lat="43.39295" lon="3.68621">
        <ele>19.8</ele>
        <time>2021-02-07T09:31:50Z</time>
      </trkpt>
      <trkpt lat="43.393" lon="3.68619">
        <ele>20.1</ele>
        <time>2021-02-07T09:31:54Z</time>
      </trkpt>
      <trkpt lat="43.39305" lon="3.68617">
        <ele>20.5</ele>
        <time>2021-02-07T09:31:59Z</time>
      </trkpt>
      <trkpt lat="43.3931" lon="3.68615">
        <ele>20.7</ele>
        <time>2021-02-07T09:32:04Z</time>
      </trkpt>
      <trkpt lat="43.39314" lon="3.68614">
        <ele>21.1</ele>
        <time>2021-02-07T09:32:08Z</time>
      </trkpt>
      <trkpt lat="43.39319" lon="3.68612">
        <ele>21.6</ele>
        <time>2021-02-07T09:32:12Z</time>
      </trkpt>
      <trkpt lat="43.39323" lon="3.68608">
        <ele>22.7</ele>
        <time>2021-02-07T09:32:18Z</time>
      </trkpt>
      <trkpt lat="43.39329" lon="3.68607">
        <ele>23.3</ele>
        <time>2021-02-07T09:32:24Z</time>
      </trkpt>
      <trkpt lat="43.39334" lon="3.68605">
        <ele>24.2</ele>
        <time>2021-02-07T09:32:28Z</time>
      </trkpt>
      <trkpt lat="43.3934" lon="3.68603">
        <ele>25</ele>
        <time>2021-02-07T09:32:32Z</time>
      </trkpt>
      <trkpt lat="43.39345" lon="3.686">
        <ele>25.3</ele>
        <time>2021-02-07T09:32:36Z</time>
      </trkpt>
      <trkpt lat="43.39349" lon="3.68597">
        <ele>25.8</ele>
        <time>2021-02-07T09:32:40Z</time>
      </trkpt>
      <trkpt lat="43.39354" lon="3.68594">
        <ele>26.2</ele>
        <time>2021-02-07T09:32:44Z</time>
      </trkpt>
      <trkpt lat="43.39358" lon="3.68592">
        <ele>26.8</ele>
        <time>2021-02-07T09:32:48Z</time>
      </trkpt>
      <trkpt lat="43.39364" lon="3.68593">
        <ele>27.5</ele>
        <time>2021-02-07T09:32:52Z</time>
      </trkpt>
      <trkpt lat="43.39366" lon="3.68599">
        <ele>27.8</ele>
        <time>2021-02-07T09:32:57Z</time>
      </trkpt>
      <trkpt lat="43.39365" lon="3.68606">
        <ele>28.4</ele>
        <time>2021-02-07T09:33:02Z</time>
      </trkpt>
      <trkpt lat="43.39363" lon="3.68612">
        <ele>28.6</ele>
        <time>2021-02-07T09:33:07Z</time>
      </trkpt>
      <trkpt lat="43.39364" lon="3.68618">
        <ele>29.2</ele>
        <time>2021-02-07T09:33:12Z</time>
      </trkpt>
      <trkpt lat="43.39368" lon="3.68621">
        <ele>27.3</ele>
        <time>2021-02-07T09:33:21Z</time>
      </trkpt>
      <trkpt lat="43.39373" lon="3.68621">
        <ele>27.4</ele>
        <time>2021-02-07T09:33:26Z</time>
      </trkpt>
      <trkpt lat="43.39379" lon="3.68622">
        <ele>27.8</ele>
        <time>2021-02-07T09:33:30Z</time>
      </trkpt>
      <trkpt lat="43.39384" lon="3.68623">
        <ele>28.2</ele>
        <time>2021-02-07T09:33:34Z</time>
      </trkpt>
      <trkpt lat="43.39389" lon="3.68622">
        <ele>28.4</ele>
        <time>2021-02-07T09:33:39Z</time>
      </trkpt>
      <trkpt lat="43.39394" lon="3.68622">
        <ele>29.2</ele>
        <time>2021-02-07T09:33:43Z</time>
      </trkpt>
      <trkpt lat="43.39399" lon="3.68622">
        <ele>30.1</ele>
        <time>2021-02-07T09:33:47Z</time>
      </trkpt>
      <trkpt lat="43.39405" lon="3.68621">
        <ele>30.7</ele>
        <time>2021-02-07T09:33:52Z</time>
      </trkpt>
      <trkpt lat="43.3941" lon="3.6862">
        <ele>31.6</ele>
        <time>2021-02-07T09:33:57Z</time>
      </trkpt>
      <trkpt lat="43.39414" lon="3.68621">
        <ele>32.3</ele>
        <time>2021-02-07T09:34:01Z</time>
      </trkpt>
      <trkpt lat="43.39419" lon="3.68621">
        <ele>32.8</ele>
        <time>2021-02-07T09:34:05Z</time>
      </trkpt>
      <trkpt lat="43.39425" lon="3.68621">
        <ele>34.1</ele>
        <time>2021-02-07T09:34:10Z</time>
      </trkpt>
      <trkpt lat="43.3943" lon="3.6862">
        <ele>34.9</ele>
        <time>2021-02-07T09:34:15Z</time>
      </trkpt>
      <trkpt lat="43.39435" lon="3.68618">
        <ele>35.4</ele>
        <time>2021-02-07T09:34:19Z</time>
      </trkpt>
      <trkpt lat="43.3944" lon="3.68618">
        <ele>35.9</ele>
        <time>2021-02-07T09:34:25Z</time>
      </trkpt>
      <trkpt lat="43.39445" lon="3.68617">
        <ele>36.9</ele>
        <time>2021-02-07T09:34:30Z</time>
      </trkpt>
      <trkpt lat="43.3945" lon="3.68615">
        <ele>37.6</ele>
        <time>2021-02-07T09:34:35Z</time>
      </trkpt>
      <trkpt lat="43.39454" lon="3.68612">
        <ele>38.5</ele>
        <time>2021-02-07T09:34:38Z</time>
      </trkpt>
      <trkpt lat="43.3946" lon="3.6861">
        <ele>39.6</ele>
        <time>2021-02-07T09:34:44Z</time>
      </trkpt>
      <trkpt lat="43.39465" lon="3.6861">
        <ele>39.9</ele>
        <time>2021-02-07T09:34:49Z</time>
      </trkpt>
      <trkpt lat="43.39469" lon="3.6861">
        <ele>40.3</ele>
        <time>2021-02-07T09:34:53Z</time>
      </trkpt>
      <trkpt lat="43.39475" lon="3.68611">
        <ele>40.5</ele>
        <time>2021-02-07T09:34:58Z</time>
      </trkpt>
      <trkpt lat="43.39479" lon="3.68613">
        <ele>41.4</ele>
        <time>2021-02-07T09:35:04Z</time>
      </trkpt>
      <trkpt lat="43.39483" lon="3.68617">
        <ele>42.1</ele>
        <time>2021-02-07T09:35:09Z</time>
      </trkpt>
      <trkpt lat="43.39486" lon="3.68623">
        <ele>42.6</ele>
        <time>2021-02-07T09:35:14Z</time>
      </trkpt>
      <trkpt lat="43.39488" lon="3.68629">
        <ele>43.1</ele>
        <time>2021-02-07T09:35:19Z</time>
      </trkpt>
      <trkpt lat="43.39491" lon="3.68633">
        <ele>43.7</ele>
        <time>2021-02-07T09:35:24Z</time>
      </trkpt>
      <trkpt lat="43.39495" lon="3.68638">
        <ele>43</ele>
        <time>2021-02-07T09:35:33Z</time>
      </trkpt>
      <trkpt lat="43.395" lon="3.6864">
        <ele>44.8</ele>
        <time>2021-02-07T09:35:38Z</time>
      </trkpt>
      <trkpt lat="43.39505" lon="3.68641">
        <ele>46.8</ele>
        <time>2021-02-07T09:35:44Z</time>
      </trkpt>
      <trkpt lat="43.3951" lon="3.68639">
        <ele>48.7</ele>
        <time>2021-02-07T09:35:51Z</time>
      </trkpt>
      <trkpt lat="43.39515" lon="3.68637">
        <ele>49.7</ele>
        <time>2021-02-07T09:35:56Z</time>
      </trkpt>
      <trkpt lat="43.3952" lon="3.68637">
        <ele>49.9</ele>
        <time>2021-02-07T09:36:00Z</time>
      </trkpt>
      <trkpt lat="43.39524" lon="3.68638">
        <ele>51.4</ele>
        <time>2021-02-07T09:36:23Z</time>
      </trkpt>
      <trkpt lat="43.39529" lon="3.68639">
        <ele>51.4</ele>
        <time>2021-02-07T09:36:27Z</time>
      </trkpt>
      <trkpt lat="43.39534" lon="3.68639">
        <ele>51.7</ele>
        <time>2021-02-07T09:36:32Z</time>
      </trkpt>
      <trkpt lat="43.39539" lon="3.68637">
        <ele>52.2</ele>
        <time>2021-02-07T09:36:35Z</time>
      </trkpt>
      <trkpt lat="43.39544" lon="3.68635">
        <ele>52.8</ele>
        <time>2021-02-07T09:36:39Z</time>
      </trkpt>
      <trkpt lat="43.39549" lon="3.68634">
        <ele>54.7</ele>
        <time>2021-02-07T09:36:43Z</time>
      </trkpt>
      <trkpt lat="43.39554" lon="3.68635">
        <ele>55.7</ele>
        <time>2021-02-07T09:36:48Z</time>
      </trkpt>
      <trkpt lat="43.39559" lon="3.68632">
        <ele>56.1</ele>
        <time>2021-02-07T09:36:52Z</time>
      </trkpt>
      <trkpt lat="43.39564" lon="3.68631">
        <ele>56.5</ele>
        <time>2021-02-07T09:36:57Z</time>
      </trkpt>
      <trkpt lat="43.39569" lon="3.68633">
        <ele>57</ele>
        <time>2021-02-07T09:37:01Z</time>
      </trkpt>
      <trkpt lat="43.39574" lon="3.68632">
        <ele>58.2</ele>
        <time>2021-02-07T09:37:05Z</time>
      </trkpt>
      <trkpt lat="43.39579" lon="3.68635">
        <ele>58.9</ele>
        <time>2021-02-07T09:37:10Z</time>
      </trkpt>
      <trkpt lat="43.39583" lon="3.6864">
        <ele>59.1</ele>
        <time>2021-02-07T09:37:14Z</time>
      </trkpt>
      <trkpt lat="43.39587" lon="3.68644">
        <ele>59.4</ele>
        <time>2021-02-07T09:37:18Z</time>
      </trkpt>
      <trkpt lat="43.39591" lon="3.68647">
        <ele>59.9</ele>
        <time>2021-02-07T09:37:25Z</time>
      </trkpt>
      <trkpt lat="43.39597" lon="3.68647">
        <ele>60</ele>
        <time>2021-02-07T09:37:30Z</time>
      </trkpt>
      <trkpt lat="43.39601" lon="3.68647">
        <ele>60.2</ele>
        <time>2021-02-07T09:37:34Z</time>
      </trkpt>
      <trkpt lat="43.39606" lon="3.68649">
        <ele>60.6</ele>
        <time>2021-02-07T09:37:39Z</time>
      </trkpt>
      <trkpt lat="43.3961" lon="3.68651">
        <ele>61.3</ele>
        <time>2021-02-07T09:37:43Z</time>
      </trkpt>
      <trkpt lat="43.39614" lon="3.68657">
        <ele>62.5</ele>
        <time>2021-02-07T09:37:54Z</time>
      </trkpt>
      <trkpt lat="43.39617" lon="3.68661">
        <ele>63.3</ele>
        <time>2021-02-07T09:37:58Z</time>
      </trkpt>
      <trkpt lat="43.39622" lon="3.68665">
        <ele>63.2</ele>
        <time>2021-02-07T09:38:03Z</time>
      </trkpt>
      <trkpt lat="43.39625" lon="3.6867">
        <ele>63.7</ele>
        <time>2021-02-07T09:38:09Z</time>
      </trkpt>
      <trkpt lat="43.39629" lon="3.68675">
        <ele>65.3</ele>
        <time>2021-02-07T09:38:14Z</time>
      </trkpt>
      <trkpt lat="43.39632" lon="3.6868">
        <ele>66.3</ele>
        <time>2021-02-07T09:38:20Z</time>
      </trkpt>
      <trkpt lat="43.39635" lon="3.68685">
        <ele>67.6</ele>
        <time>2021-02-07T09:38:25Z</time>
      </trkpt>
      <trkpt lat="43.39637" lon="3.68691">
        <ele>68.7</ele>
        <time>2021-02-07T09:38:31Z</time>
      </trkpt>
      <trkpt lat="43.39639" lon="3.68697">
        <ele>69.5</ele>
        <time>2021-02-07T09:38:36Z</time>
      </trkpt>
      <trkpt lat="43.39642" lon="3.68702">
        <ele>70.9</ele>
        <time>2021-02-07T09:38:46Z</time>
      </trkpt>
      <trkpt lat="43.39644" lon="3.68709">
        <ele>71.4</ele>
        <time>2021-02-07T09:38:52Z</time>
      </trkpt>
      <trkpt lat="43.39645" lon="3.68716">
        <ele>72.4</ele>
        <time>2021-02-07T09:38:57Z</time>
      </trkpt>
      <trkpt lat="43.39647" lon="3.68722">
        <ele>73.3</ele>
        <time>2021-02-07T09:39:02Z</time>
      </trkpt>
      <trkpt lat="43.39649" lon="3.68728">
        <ele>74.4</ele>
        <time>2021-02-07T09:39:08Z</time>
      </trkpt>
      <trkpt lat="43.3965" lon="3.68735">
        <ele>77.8</ele>
        <time>2021-02-07T09:39:15Z</time>
      </trkpt>
      <trkpt lat="43.39651" lon="3.68742">
        <ele>79.5</ele>
        <time>2021-02-07T09:39:22Z</time>
      </trkpt>
      <trkpt lat="43.39651" lon="3.68748">
        <ele>79.9</ele>
        <time>2021-02-07T09:39:28Z</time>
      </trkpt>
      <trkpt lat="43.39652" lon="3.68756">
        <ele>81.3</ele>
        <time>2021-02-07T09:39:34Z</time>
      </trkpt>
      <trkpt lat="43.39652" lon="3.68762">
        <ele>82.5</ele>
        <time>2021-02-07T09:39:40Z</time>
      </trkpt>
      <trkpt lat="43.39654" lon="3.68769">
        <ele>83.6</ele>
        <time>2021-02-07T09:39:46Z</time>
      </trkpt>
      <trkpt lat="43.39656" lon="3.68775">
        <ele>84.8</ele>
        <time>2021-02-07T09:39:52Z</time>
      </trkpt>
      <trkpt lat="43.3966" lon="3.6878">
        <ele>86.7</ele>
        <time>2021-02-07T09:40:00Z</time>
      </trkpt>
      <trkpt lat="43.39658" lon="3.68787">
        <ele>90.5</ele>
        <time>2021-02-07T09:41:29Z</time>
      </trkpt>
      <trkpt lat="43.39659" lon="3.68794">
        <ele>90.4</ele>
        <time>2021-02-07T09:41:34Z</time>
      </trkpt>
      <trkpt lat="43.39659" lon="3.688">
        <ele>90.6</ele>
        <time>2021-02-07T09:41:40Z</time>
      </trkpt>
      <trkpt lat="43.39662" lon="3.68807">
        <ele>91</ele>
        <time>2021-02-07T09:41:45Z</time>
      </trkpt>
      <trkpt lat="43.39663" lon="3.68814">
        <ele>91.2</ele>
        <time>2021-02-07T09:41:49Z</time>
      </trkpt>
      <trkpt lat="43.39664" lon="3.6882">
        <ele>92</ele>
        <time>2021-02-07T09:41:54Z</time>
      </trkpt>
      <trkpt lat="43.39667" lon="3.68827">
        <ele>93.3</ele>
        <time>2021-02-07T09:42:00Z</time>
      </trkpt>
      <trkpt lat="43.3967" lon="3.68832">
        <ele>93.9</ele>
        <time>2021-02-07T09:42:05Z</time>
      </trkpt>
      <trkpt lat="43.39672" lon="3.68839">
        <ele>93.9</ele>
        <time>2021-02-07T09:42:10Z</time>
      </trkpt>
      <trkpt lat="43.39672" lon="3.68846">
        <ele>94.5</ele>
        <time>2021-02-07T09:42:15Z</time>
      </trkpt>
      <trkpt lat="43.39674" lon="3.68852">
        <ele>95</ele>
        <time>2021-02-07T09:42:19Z</time>
      </trkpt>
      <trkpt lat="43.39676" lon="3.68859">
        <ele>95.3</ele>
        <time>2021-02-07T09:42:23Z</time>
      </trkpt>
      <trkpt lat="43.39678" lon="3.68866">
        <ele>95.6</ele>
        <time>2021-02-07T09:42:27Z</time>
      </trkpt>
      <trkpt lat="43.3968" lon="3.68872">
        <ele>95.8</ele>
        <time>2021-02-07T09:42:31Z</time>
      </trkpt>
      <trkpt lat="43.39682" lon="3.68879">
        <ele>96.5</ele>
        <time>2021-02-07T09:42:35Z</time>
      </trkpt>
      <trkpt lat="43.39684" lon="3.68884">
        <ele>97.3</ele>
        <time>2021-02-07T09:42:39Z</time>
      </trkpt>
      <trkpt lat="43.39686" lon="3.68891">
        <ele>97.9</ele>
        <time>2021-02-07T09:42:44Z</time>
      </trkpt>
      <trkpt lat="43.39687" lon="3.68898">
        <ele>98.2</ele>
        <time>2021-02-07T09:42:49Z</time>
      </trkpt>
      <trkpt lat="43.39688" lon="3.68905">
        <ele>100.8</ele>
        <time>2021-02-07T09:42:53Z</time>
      </trkpt>
      <trkpt lat="43.3969" lon="3.68911">
        <ele>101.8</ele>
        <time>2021-02-07T09:42:57Z</time>
      </trkpt>
      <trkpt lat="43.39691" lon="3.68919">
        <ele>99.7</ele>
        <time>2021-02-07T09:43:02Z</time>
      </trkpt>
      <trkpt lat="43.39692" lon="3.68924">
        <ele>99.4</ele>
        <time>2021-02-07T09:43:06Z</time>
      </trkpt>
      <trkpt lat="43.39693" lon="3.68931">
        <ele>99.3</ele>
        <time>2021-02-07T09:43:10Z</time>
      </trkpt>
      <trkpt lat="43.39694" lon="3.68937">
        <ele>99.3</ele>
        <time>2021-02-07T09:43:14Z</time>
      </trkpt>
      <trkpt lat="43.39694" lon="3.68944">
        <ele>98.9</ele>
        <time>2021-02-07T09:43:18Z</time>
      </trkpt>
      <trkpt lat="43.39693" lon="3.6895">
        <ele>99.2</ele>
        <time>2021-02-07T09:43:22Z</time>
      </trkpt>
      <trkpt lat="43.39692" lon="3.68957">
        <ele>100</ele>
        <time>2021-02-07T09:43:26Z</time>
      </trkpt>
      <trkpt lat="43.3969" lon="3.68963">
        <ele>100.3</ele>
        <time>2021-02-07T09:43:30Z</time>
      </trkpt>
      <trkpt lat="43.39689" lon="3.6897">
        <ele>99.9</ele>
        <time>2021-02-07T09:43:34Z</time>
      </trkpt>
      <trkpt lat="43.3969" lon="3.68977">
        <ele>99.7</ele>
        <time>2021-02-07T09:43:38Z</time>
      </trkpt>
      <trkpt lat="43.3969" lon="3.68984">
        <ele>98.2</ele>
        <time>2021-02-07T09:43:42Z</time>
      </trkpt>
      <trkpt lat="43.39691" lon="3.6899">
        <ele>97.9</ele>
        <time>2021-02-07T09:43:47Z</time>
      </trkpt>
      <trkpt lat="43.39693" lon="3.68996">
        <ele>97.7</ele>
        <time>2021-02-07T09:43:51Z</time>
      </trkpt>
      <trkpt lat="43.39695" lon="3.69002">
        <ele>97.6</ele>
        <time>2021-02-07T09:43:55Z</time>
      </trkpt>
      <trkpt lat="43.39698" lon="3.69008">
        <ele>97.3</ele>
        <time>2021-02-07T09:43:59Z</time>
      </trkpt>
      <trkpt lat="43.39701" lon="3.69014">
        <ele>97.2</ele>
        <time>2021-02-07T09:44:03Z</time>
      </trkpt>
      <trkpt lat="43.39703" lon="3.6902">
        <ele>97.5</ele>
        <time>2021-02-07T09:44:07Z</time>
      </trkpt>
      <trkpt lat="43.39706" lon="3.69025">
        <ele>97.7</ele>
        <time>2021-02-07T09:44:11Z</time>
      </trkpt>
      <trkpt lat="43.3971" lon="3.6903">
        <ele>98.1</ele>
        <time>2021-02-07T09:44:16Z</time>
      </trkpt>
      <trkpt lat="43.39714" lon="3.69034">
        <ele>98.3</ele>
        <time>2021-02-07T09:44:20Z</time>
      </trkpt>
      <trkpt lat="43.39718" lon="3.69037">
        <ele>98.3</ele>
        <time>2021-02-07T09:44:25Z</time>
      </trkpt>
      <trkpt lat="43.39721" lon="3.69042">
        <ele>97.9</ele>
        <time>2021-02-07T09:44:48Z</time>
      </trkpt>
      <trkpt lat="43.39726" lon="3.69047">
        <ele>97.9</ele>
        <time>2021-02-07T09:44:55Z</time>
      </trkpt>
      <trkpt lat="43.39729" lon="3.69051">
        <ele>98</ele>
        <time>2021-02-07T09:44:59Z</time>
      </trkpt>
      <trkpt lat="43.39733" lon="3.69056">
        <ele>98.1</ele>
        <time>2021-02-07T09:45:03Z</time>
      </trkpt>
      <trkpt lat="43.39736" lon="3.69061">
        <ele>98.5</ele>
        <time>2021-02-07T09:45:07Z</time>
      </trkpt>
      <trkpt lat="43.3974" lon="3.69064">
        <ele>98.8</ele>
        <time>2021-02-07T09:45:11Z</time>
      </trkpt>
      <trkpt lat="43.39745" lon="3.69068">
        <ele>98.6</ele>
        <time>2021-02-07T09:45:17Z</time>
      </trkpt>
      <trkpt lat="43.39749" lon="3.69072">
        <ele>98.7</ele>
        <time>2021-02-07T09:45:22Z</time>
      </trkpt>
      <trkpt lat="43.39753" lon="3.69075">
        <ele>98.4</ele>
        <time>2021-02-07T09:45:46Z</time>
      </trkpt>
      <trkpt lat="43.39755" lon="3.69069">
        <ele>97.4</ele>
        <time>2021-02-07T09:46:28Z</time>
      </trkpt>
      <trkpt lat="43.39756" lon="3.69062">
        <ele>97.2</ele>
        <time>2021-02-07T09:46:32Z</time>
      </trkpt>
      <trkpt lat="43.39758" lon="3.69056">
        <ele>97.6</ele>
        <time>2021-02-07T09:46:36Z</time>
      </trkpt>
      <trkpt lat="43.39758" lon="3.69049">
        <ele>97.9</ele>
        <time>2021-02-07T09:46:40Z</time>
      </trkpt>
      <trkpt lat="43.39763" lon="3.69046">
        <ele>98.7</ele>
        <time>2021-02-07T09:47:09Z</time>
      </trkpt>
      <trkpt lat="43.39764" lon="3.6904">
        <ele>99.4</ele>
        <time>2021-02-07T09:47:13Z</time>
      </trkpt>
      <trkpt lat="43.39765" lon="3.69032">
        <ele>99.9</ele>
        <time>2021-02-07T09:47:17Z</time>
      </trkpt>
      <trkpt lat="43.39766" lon="3.69026">
        <ele>100.7</ele>
        <time>2021-02-07T09:47:30Z</time>
      </trkpt>
      <trkpt lat="43.39768" lon="3.6902">
        <ele>100.8</ele>
        <time>2021-02-07T09:47:34Z</time>
      </trkpt>
      <trkpt lat="43.3977" lon="3.69015">
        <ele>100.9</ele>
        <time>2021-02-07T09:47:38Z</time>
      </trkpt>
      <trkpt lat="43.39773" lon="3.69009">
        <ele>101.3</ele>
        <time>2021-02-07T09:47:43Z</time>
      </trkpt>
      <trkpt lat="43.39777" lon="3.69003">
        <ele>103</ele>
        <time>2021-02-07T09:47:48Z</time>
      </trkpt>
      <trkpt lat="43.3978" lon="3.68999">
        <ele>103.6</ele>
        <time>2021-02-07T09:47:52Z</time>
      </trkpt>
      <trkpt lat="43.39785" lon="3.68995">
        <ele>104.1</ele>
        <time>2021-02-07T09:47:57Z</time>
      </trkpt>
      <trkpt lat="43.3979" lon="3.68993">
        <ele>104.8</ele>
        <time>2021-02-07T09:48:02Z</time>
      </trkpt>
      <trkpt lat="43.39794" lon="3.68992">
        <ele>105.5</ele>
        <time>2021-02-07T09:48:06Z</time>
      </trkpt>
      <trkpt lat="43.39799" lon="3.68991">
        <ele>106.5</ele>
        <time>2021-02-07T09:48:20Z</time>
      </trkpt>
      <trkpt lat="43.39804" lon="3.68989">
        <ele>106.6</ele>
        <time>2021-02-07T09:48:25Z</time>
      </trkpt>
      <trkpt lat="43.39809" lon="3.68986">
        <ele>107.1</ele>
        <time>2021-02-07T09:48:30Z</time>
      </trkpt>
      <trkpt lat="43.39813" lon="3.68983">
        <ele>108.1</ele>
        <time>2021-02-07T09:48:37Z</time>
      </trkpt>
      <trkpt lat="43.39817" lon="3.68977">
        <ele>108.9</ele>
        <time>2021-02-07T09:48:42Z</time>
      </trkpt>
      <trkpt lat="43.3982" lon="3.68973">
        <ele>109.5</ele>
        <time>2021-02-07T09:48:46Z</time>
      </trkpt>
      <trkpt lat="43.39823" lon="3.68968">
        <ele>111.9</ele>
        <time>2021-02-07T09:48:49Z</time>
      </trkpt>
      <trkpt lat="43.39825" lon="3.68962">
        <ele>112.8</ele>
        <time>2021-02-07T09:48:53Z</time>
      </trkpt>
      <trkpt lat="43.39826" lon="3.68956">
        <ele>113.6</ele>
        <time>2021-02-07T09:48:59Z</time>
      </trkpt>
      <trkpt lat="43.39829" lon="3.6895">
        <ele>114.3</ele>
        <time>2021-02-07T09:49:04Z</time>
      </trkpt>
      <trkpt lat="43.39831" lon="3.68944">
        <ele>114.6</ele>
        <time>2021-02-07T09:49:09Z</time>
      </trkpt>
      <trkpt lat="43.39833" lon="3.68937">
        <ele>115.2</ele>
        <time>2021-02-07T09:49:14Z</time>
      </trkpt>
      <trkpt lat="43.39836" lon="3.68931">
        <ele>116.3</ele>
        <time>2021-02-07T09:49:19Z</time>
      </trkpt>
      <trkpt lat="43.3984" lon="3.68926">
        <ele>117.2</ele>
        <time>2021-02-07T09:49:24Z</time>
      </trkpt>
      <trkpt lat="43.39843" lon="3.68921">
        <ele>118.1</ele>
        <time>2021-02-07T09:49:29Z</time>
      </trkpt>
      <trkpt lat="43.39845" lon="3.68914">
        <ele>119</ele>
        <time>2021-02-07T09:49:35Z</time>
      </trkpt>
      <trkpt lat="43.39849" lon="3.68911">
        <ele>119</ele>
        <time>2021-02-07T09:49:41Z</time>
      </trkpt>
      <trkpt lat="43.39853" lon="3.68906">
        <ele>120</ele>
        <time>2021-02-07T09:49:46Z</time>
      </trkpt>
      <trkpt lat="43.39856" lon="3.689">
        <ele>120.4</ele>
        <time>2021-02-07T09:49:51Z</time>
      </trkpt>
      <trkpt lat="43.3986" lon="3.68895">
        <ele>121</ele>
        <time>2021-02-07T09:49:56Z</time>
      </trkpt>
      <trkpt lat="43.39864" lon="3.6889">
        <ele>122</ele>
        <time>2021-02-07T09:50:02Z</time>
      </trkpt>
      <trkpt lat="43.39868" lon="3.68885">
        <ele>122.9</ele>
        <time>2021-02-07T09:50:07Z</time>
      </trkpt>
      <trkpt lat="43.39872" lon="3.6888">
        <ele>123.8</ele>
        <time>2021-02-07T09:50:11Z</time>
      </trkpt>
      <trkpt lat="43.39875" lon="3.68874">
        <ele>124.7</ele>
        <time>2021-02-07T09:50:16Z</time>
      </trkpt>
      <trkpt lat="43.39878" lon="3.68869">
        <ele>125.6</ele>
        <time>2021-02-07T09:50:21Z</time>
      </trkpt>
      <trkpt lat="43.39881" lon="3.68864">
        <ele>126.4</ele>
        <time>2021-02-07T09:50:26Z</time>
      </trkpt>
      <trkpt lat="43.39886" lon="3.68859">
        <ele>127.5</ele>
        <time>2021-02-07T09:50:31Z</time>
      </trkpt>
      <trkpt lat="43.39889" lon="3.68855">
        <ele>128.6</ele>
        <time>2021-02-07T09:50:35Z</time>
      </trkpt>
      <trkpt lat="43.39892" lon="3.68851">
        <ele>129.7</ele>
        <time>2021-02-07T09:50:40Z</time>
      </trkpt>
      <trkpt lat="43.39896" lon="3.68845">
        <ele>130.3</ele>
        <time>2021-02-07T09:50:45Z</time>
      </trkpt>
      <trkpt lat="43.39899" lon="3.68838">
        <ele>130.5</ele>
        <time>2021-02-07T09:50:50Z</time>
      </trkpt>
      <trkpt lat="43.39902" lon="3.68834">
        <ele>131.7</ele>
        <time>2021-02-07T09:50:54Z</time>
      </trkpt>
      <trkpt lat="43.39906" lon="3.6883">
        <ele>132.7</ele>
        <time>2021-02-07T09:50:59Z</time>
      </trkpt>
      <trkpt lat="43.3991" lon="3.68824">
        <ele>133.2</ele>
        <time>2021-02-07T09:51:04Z</time>
      </trkpt>
      <trkpt lat="43.39913" lon="3.68819">
        <ele>133.5</ele>
        <time>2021-02-07T09:51:09Z</time>
      </trkpt>
      <trkpt lat="43.39916" lon="3.68814">
        <ele>133.9</ele>
        <time>2021-02-07T09:51:14Z</time>
      </trkpt>
      <trkpt lat="43.39919" lon="3.6881">
        <ele>134.4</ele>
        <time>2021-02-07T09:51:19Z</time>
      </trkpt>
      <trkpt lat="43.39922" lon="3.68805">
        <ele>135.3</ele>
        <time>2021-02-07T09:51:23Z</time>
      </trkpt>
      <trkpt lat="43.39926" lon="3.688">
        <ele>136.4</ele>
        <time>2021-02-07T09:51:28Z</time>
      </trkpt>
      <trkpt lat="43.39929" lon="3.68793">
        <ele>137.1</ele>
        <time>2021-02-07T09:51:33Z</time>
      </trkpt>
      <trkpt lat="43.39933" lon="3.68789">
        <ele>137.5</ele>
        <time>2021-02-07T09:51:38Z</time>
      </trkpt>
      <trkpt lat="43.39937" lon="3.68785">
        <ele>138.4</ele>
        <time>2021-02-07T09:51:43Z</time>
      </trkpt>
      <trkpt lat="43.39941" lon="3.68781">
        <ele>138.9</ele>
        <time>2021-02-07T09:51:48Z</time>
      </trkpt>
      <trkpt lat="43.39945" lon="3.68776">
        <ele>139.4</ele>
        <time>2021-02-07T09:51:53Z</time>
      </trkpt>
      <trkpt lat="43.39949" lon="3.68772">
        <ele>140.1</ele>
        <time>2021-02-07T09:51:57Z</time>
      </trkpt>
      <trkpt lat="43.39952" lon="3.68767">
        <ele>141.2</ele>
        <time>2021-02-07T09:52:01Z</time>
      </trkpt>
      <trkpt lat="43.39956" lon="3.68762">
        <ele>142</ele>
        <time>2021-02-07T09:52:06Z</time>
      </trkpt>
      <trkpt lat="43.39959" lon="3.68757">
        <ele>143</ele>
        <time>2021-02-07T09:52:11Z</time>
      </trkpt>
      <trkpt lat="43.39963" lon="3.68753">
        <ele>143.9</ele>
        <time>2021-02-07T09:52:26Z</time>
      </trkpt>
      <trkpt lat="43.39966" lon="3.68748">
        <ele>144.5</ele>
        <time>2021-02-07T09:52:33Z</time>
      </trkpt>
      <trkpt lat="43.39969" lon="3.68742">
        <ele>145</ele>
        <time>2021-02-07T09:52:38Z</time>
      </trkpt>
      <trkpt lat="43.39973" lon="3.68738">
        <ele>145.4</ele>
        <time>2021-02-07T09:52:43Z</time>
      </trkpt>
      <trkpt lat="43.39977" lon="3.68734">
        <ele>145.9</ele>
        <time>2021-02-07T09:52:47Z</time>
      </trkpt>
      <trkpt lat="43.39981" lon="3.68731">
        <ele>146.4</ele>
        <time>2021-02-07T09:52:51Z</time>
      </trkpt>
      <trkpt lat="43.39985" lon="3.68726">
        <ele>147</ele>
        <time>2021-02-07T09:52:56Z</time>
      </trkpt>
      <trkpt lat="43.39988" lon="3.6872">
        <ele>147.4</ele>
        <time>2021-02-07T09:53:01Z</time>
      </trkpt>
      <trkpt lat="43.39991" lon="3.68715">
        <ele>147.1</ele>
        <time>2021-02-07T09:53:06Z</time>
      </trkpt>
      <trkpt lat="43.39994" lon="3.68709">
        <ele>147.4</ele>
        <time>2021-02-07T09:53:10Z</time>
      </trkpt>
      <trkpt lat="43.39998" lon="3.68704">
        <ele>148.3</ele>
        <time>2021-02-07T09:53:15Z</time>
      </trkpt>
      <trkpt lat="43.40002" lon="3.687">
        <ele>149.2</ele>
        <time>2021-02-07T09:53:21Z</time>
      </trkpt>
      <trkpt lat="43.40005" lon="3.68696">
        <ele>149.8</ele>
        <time>2021-02-07T09:53:26Z</time>
      </trkpt>
      <trkpt lat="43.4001" lon="3.68692">
        <ele>150.8</ele>
        <time>2021-02-07T09:53:35Z</time>
      </trkpt>
      <trkpt lat="43.40013" lon="3.68688">
        <ele>151.4</ele>
        <time>2021-02-07T09:53:39Z</time>
      </trkpt>
      <trkpt lat="43.40018" lon="3.68684">
        <ele>152.3</ele>
        <time>2021-02-07T09:53:43Z</time>
      </trkpt>
      <trkpt lat="43.40021" lon="3.68679">
        <ele>152.8</ele>
        <time>2021-02-07T09:53:48Z</time>
      </trkpt>
      <trkpt lat="43.40026" lon="3.68676">
        <ele>154.7</ele>
        <time>2021-02-07T09:53:57Z</time>
      </trkpt>
      <trkpt lat="43.40029" lon="3.68671">
        <ele>155.6</ele>
        <time>2021-02-07T09:54:20Z</time>
      </trkpt>
      <trkpt lat="43.40033" lon="3.68667">
        <ele>155.9</ele>
        <time>2021-02-07T09:54:25Z</time>
      </trkpt>
      <trkpt lat="43.40036" lon="3.68662">
        <ele>156.2</ele>
        <time>2021-02-07T09:54:30Z</time>
      </trkpt>
      <trkpt lat="43.4004" lon="3.68658">
        <ele>156.7</ele>
        <time>2021-02-07T09:54:38Z</time>
      </trkpt>
      <trkpt lat="43.40044" lon="3.68654">
        <ele>157.1</ele>
        <time>2021-02-07T09:54:46Z</time>
      </trkpt>
      <trkpt lat="43.40048" lon="3.6865">
        <ele>157.5</ele>
        <time>2021-02-07T09:54:50Z</time>
      </trkpt>
      <trkpt lat="43.40051" lon="3.68645">
        <ele>157.8</ele>
        <time>2021-02-07T09:54:54Z</time>
      </trkpt>
      <trkpt lat="43.40056" lon="3.68641">
        <ele>158.4</ele>
        <time>2021-02-07T09:54:58Z</time>
      </trkpt>
      <trkpt lat="43.4006" lon="3.68638">
        <ele>159.2</ele>
        <time>2021-02-07T09:55:03Z</time>
      </trkpt>
      <trkpt lat="43.40063" lon="3.68633">
        <ele>160.1</ele>
        <time>2021-02-07T09:55:10Z</time>
      </trkpt>
      <trkpt lat="43.40067" lon="3.68629">
        <ele>160.8</ele>
        <time>2021-02-07T09:55:15Z</time>
      </trkpt>
      <trkpt lat="43.40071" lon="3.68625">
        <ele>161.8</ele>
        <time>2021-02-07T09:55:20Z</time>
      </trkpt>
      <trkpt lat="43.40075" lon="3.6862">
        <ele>162.9</ele>
        <time>2021-02-07T09:55:25Z</time>
      </trkpt>
      <trkpt lat="43.40078" lon="3.68615">
        <ele>163.8</ele>
        <time>2021-02-07T09:55:29Z</time>
      </trkpt>
      <trkpt lat="43.40082" lon="3.6861">
        <ele>164.7</ele>
        <time>2021-02-07T09:55:33Z</time>
      </trkpt>
      <trkpt lat="43.40086" lon="3.68606">
        <ele>165.5</ele>
        <time>2021-02-07T09:55:37Z</time>
      </trkpt>
      <trkpt lat="43.4009" lon="3.68602">
        <ele>166.6</ele>
        <time>2021-02-07T09:55:42Z</time>
      </trkpt>
      <trkpt lat="43.40094" lon="3.68598">
        <ele>167.6</ele>
        <time>2021-02-07T09:55:46Z</time>
      </trkpt>
      <trkpt lat="43.40098" lon="3.68593">
        <ele>168.6</ele>
        <time>2021-02-07T09:55:50Z</time>
      </trkpt>
      <trkpt lat="43.40102" lon="3.68589">
        <ele>169.3</ele>
        <time>2021-02-07T09:55:54Z</time>
      </trkpt>
      <trkpt lat="43.40106" lon="3.68585">
        <ele>170.1</ele>
        <time>2021-02-07T09:55:59Z</time>
      </trkpt>
      <trkpt lat="43.4011" lon="3.68582">
        <ele>170.7</ele>
        <time>2021-02-07T09:56:03Z</time>
      </trkpt>
      <trkpt lat="43.40114" lon="3.68578">
        <ele>171.4</ele>
        <time>2021-02-07T09:56:07Z</time>
      </trkpt>
      <trkpt lat="43.40118" lon="3.68574">
        <ele>171.8</ele>
        <time>2021-02-07T09:56:11Z</time>
      </trkpt>
      <trkpt lat="43.40123" lon="3.6857">
        <ele>172.4</ele>
        <time>2021-02-07T09:56:16Z</time>
      </trkpt>
      <trkpt lat="43.40126" lon="3.68565">
        <ele>172.9</ele>
        <time>2021-02-07T09:56:20Z</time>
      </trkpt>
      <trkpt lat="43.4013" lon="3.68561">
        <ele>173.5</ele>
        <time>2021-02-07T09:56:24Z</time>
      </trkpt>
      <trkpt lat="43.40134" lon="3.68556">
        <ele>174.1</ele>
        <time>2021-02-07T09:56:29Z</time>
      </trkpt>
      <trkpt lat="43.40139" lon="3.68552">
        <ele>174.6</ele>
        <time>2021-02-07T09:56:34Z</time>
      </trkpt>
      <trkpt lat="43.40143" lon="3.68547">
        <ele>175.2</ele>
        <time>2021-02-07T09:56:39Z</time>
      </trkpt>
      <trkpt lat="43.40147" lon="3.68543">
        <ele>175.6</ele>
        <time>2021-02-07T09:56:43Z</time>
      </trkpt>
      <trkpt lat="43.40151" lon="3.68539">
        <ele>176.7</ele>
        <time>2021-02-07T09:56:49Z</time>
      </trkpt>
      <trkpt lat="43.40156" lon="3.68536">
        <ele>177.4</ele>
        <time>2021-02-07T09:56:54Z</time>
      </trkpt>
      <trkpt lat="43.4016" lon="3.68531">
        <ele>178</ele>
        <time>2021-02-07T09:56:59Z</time>
      </trkpt>
      <trkpt lat="43.40163" lon="3.68527">
        <ele>178.9</ele>
        <time>2021-02-07T09:57:04Z</time>
      </trkpt>
      <trkpt lat="43.40167" lon="3.68523">
        <ele>179.3</ele>
        <time>2021-02-07T09:57:09Z</time>
      </trkpt>
      <trkpt lat="43.40171" lon="3.68519">
        <ele>179.9</ele>
        <time>2021-02-07T09:57:14Z</time>
      </trkpt>
      <trkpt lat="43.40175" lon="3.68516">
        <ele>181.2</ele>
        <time>2021-02-07T09:57:18Z</time>
      </trkpt>
      <trkpt lat="43.4018" lon="3.68515">
        <ele>182.4</ele>
        <time>2021-02-07T09:57:24Z</time>
      </trkpt>
      <trkpt lat="43.40186" lon="3.68516">
        <ele>182.9</ele>
        <time>2021-02-07T09:57:28Z</time>
      </trkpt>
      <trkpt lat="43.40191" lon="3.68516">
        <ele>183.4</ele>
        <time>2021-02-07T09:57:32Z</time>
      </trkpt>
      <trkpt lat="43.40195" lon="3.68519">
        <ele>183.9</ele>
        <time>2021-02-07T09:57:36Z</time>
      </trkpt>
      <trkpt lat="43.40199" lon="3.68523">
        <ele>184.1</ele>
        <time>2021-02-07T09:57:40Z</time>
      </trkpt>
      <trkpt lat="43.40201" lon="3.68529">
        <ele>184.4</ele>
        <time>2021-02-07T09:57:55Z</time>
      </trkpt>
      <trkpt lat="43.40203" lon="3.68536">
        <ele>184</ele>
        <time>2021-02-07T09:58:08Z</time>
      </trkpt>
      <trkpt lat="43.40204" lon="3.68543">
        <ele>183.8</ele>
        <time>2021-02-07T09:58:13Z</time>
      </trkpt>
      <trkpt lat="43.40205" lon="3.6855">
        <ele>183.7</ele>
        <time>2021-02-07T09:58:17Z</time>
      </trkpt>
      <trkpt lat="43.40205" lon="3.68556">
        <ele>183.8</ele>
        <time>2021-02-07T09:58:21Z</time>
      </trkpt>
      <trkpt lat="43.40207" lon="3.68562">
        <ele>184.1</ele>
        <time>2021-02-07T09:58:25Z</time>
      </trkpt>
      <trkpt lat="43.40209" lon="3.68569">
        <ele>184.3</ele>
        <time>2021-02-07T09:58:30Z</time>
      </trkpt>
      <trkpt lat="43.40213" lon="3.68571">
        <ele>184.6</ele>
        <time>2021-02-07T09:58:35Z</time>
      </trkpt>
      <trkpt lat="43.40217" lon="3.68573">
        <ele>185.3</ele>
        <time>2021-02-07T10:00:26Z</time>
      </trkpt>
      <trkpt lat="43.40213" lon="3.68575">
        <ele>182.9</ele>
        <time>2021-02-07T10:03:55Z</time>
      </trkpt>
      <trkpt lat="43.40214" lon="3.68568">
        <ele>183.5</ele>
        <time>2021-02-07T10:04:51Z</time>
      </trkpt>
      <trkpt lat="43.40217" lon="3.68563">
        <ele>183.4</ele>
        <time>2021-02-07T10:04:54Z</time>
      </trkpt>
      <trkpt lat="43.40219" lon="3.68556">
        <ele>183.3</ele>
        <time>2021-02-07T10:04:58Z</time>
      </trkpt>
      <trkpt lat="43.40222" lon="3.6855">
        <ele>183.1</ele>
        <time>2021-02-07T10:05:02Z</time>
      </trkpt>
      <trkpt lat="43.40224" lon="3.68544">
        <ele>183.1</ele>
        <time>2021-02-07T10:05:06Z</time>
      </trkpt>
      <trkpt lat="43.40226" lon="3.68538">
        <ele>183</ele>
        <time>2021-02-07T10:05:11Z</time>
      </trkpt>
      <trkpt lat="43.40226" lon="3.68531">
        <ele>182.7</ele>
        <time>2021-02-07T10:05:16Z</time>
      </trkpt>
      <trkpt lat="43.40227" lon="3.68525">
        <ele>183.1</ele>
        <time>2021-02-07T10:05:34Z</time>
      </trkpt>
      <trkpt lat="43.40223" lon="3.68521">
        <ele>183.2</ele>
        <time>2021-02-07T10:07:36Z</time>
      </trkpt>
      <trkpt lat="43.40222" lon="3.68513">
        <ele>183</ele>
        <time>2021-02-07T10:07:40Z</time>
      </trkpt>
      <trkpt lat="43.40222" lon="3.68505">
        <ele>183.1</ele>
        <time>2021-02-07T10:07:44Z</time>
      </trkpt>
      <trkpt lat="43.40221" lon="3.68498">
        <ele>183.1</ele>
        <time>2021-02-07T10:07:48Z</time>
      </trkpt>
      <trkpt lat="43.4022" lon="3.68491">
        <ele>183.2</ele>
        <time>2021-02-07T10:07:52Z</time>
      </trkpt>
      <trkpt lat="43.4022" lon="3.68484">
        <ele>183.1</ele>
        <time>2021-02-07T10:07:56Z</time>
      </trkpt>
      <trkpt lat="43.40221" lon="3.68477">
        <ele>183.1</ele>
        <time>2021-02-07T10:08:00Z</time>
      </trkpt>
      <trkpt lat="43.40224" lon="3.68471">
        <ele>182.9</ele>
        <time>2021-02-07T10:08:04Z</time>
      </trkpt>
      <trkpt lat="43.40228" lon="3.68467">
        <ele>182.8</ele>
        <time>2021-02-07T10:08:27Z</time>
      </trkpt>
      <trkpt lat="43.40226" lon="3.68461">
        <ele>182.1</ele>
        <time>2021-02-07T10:08:36Z</time>
      </trkpt>
      <trkpt lat="43.40225" lon="3.68455">
        <ele>181.8</ele>
        <time>2021-02-07T10:08:41Z</time>
      </trkpt>
      <trkpt lat="43.40226" lon="3.68448">
        <ele>182.1</ele>
        <time>2021-02-07T10:08:45Z</time>
      </trkpt>
      <trkpt lat="43.40225" lon="3.68441">
        <ele>182.8</ele>
        <time>2021-02-07T10:08:49Z</time>
      </trkpt>
      <trkpt lat="43.40228" lon="3.68445">
        <ele>183.6</ele>
        <time>2021-02-07T10:09:54Z</time>
      </trkpt>
      <trkpt lat="43.40232" lon="3.68449">
        <ele>183.6</ele>
        <time>2021-02-07T10:10:21Z</time>
      </trkpt>
      <trkpt lat="43.40235" lon="3.68454">
        <ele>183.9</ele>
        <time>2021-02-07T10:11:59Z</time>
      </trkpt>
      <trkpt lat="43.40231" lon="3.68448">
        <ele>184.1</ele>
        <time>2021-02-07T10:12:20Z</time>
      </trkpt>
      <trkpt lat="43.40228" lon="3.68444">
        <ele>184.3</ele>
        <time>2021-02-07T10:12:32Z</time>
      </trkpt>
      <trkpt lat="43.40227" lon="3.68436">
        <ele>184.2</ele>
        <time>2021-02-07T10:12:38Z</time>
      </trkpt>
      <trkpt lat="43.40226" lon="3.6843">
        <ele>184.2</ele>
        <time>2021-02-07T10:12:41Z</time>
      </trkpt>
      <trkpt lat="43.40226" lon="3.68437">
        <ele>184.1</ele>
        <time>2021-02-07T10:12:52Z</time>
      </trkpt>
      <trkpt lat="43.40223" lon="3.68442">
        <ele>184.6</ele>
        <time>2021-02-07T10:12:58Z</time>
      </trkpt>
      <trkpt lat="43.40227" lon="3.68446">
        <ele>185.3</ele>
        <time>2021-02-07T10:14:20Z</time>
      </trkpt>
      <trkpt lat="43.40231" lon="3.68444">
        <ele>185.4</ele>
        <time>2021-02-07T10:14:50Z</time>
      </trkpt>
      <trkpt lat="43.40235" lon="3.68449">
        <ele>186.1</ele>
        <time>2021-02-07T10:15:54Z</time>
      </trkpt>
      <trkpt lat="43.40235" lon="3.68456">
        <ele>186.2</ele>
        <time>2021-02-07T10:16:04Z</time>
      </trkpt>
      <trkpt lat="43.40236" lon="3.68462">
        <ele>186.3</ele>
        <time>2021-02-07T10:16:08Z</time>
      </trkpt>
      <trkpt lat="43.40237" lon="3.68469">
        <ele>186.3</ele>
        <time>2021-02-07T10:16:14Z</time>
      </trkpt>
      <trkpt lat="43.4024" lon="3.68473">
        <ele>186</ele>
        <time>2021-02-07T10:16:21Z</time>
      </trkpt>
      <trkpt lat="43.40236" lon="3.68477">
        <ele>185.7</ele>
        <time>2021-02-07T10:16:29Z</time>
      </trkpt>
      <trkpt lat="43.40233" lon="3.68482">
        <ele>185.5</ele>
        <time>2021-02-07T10:16:34Z</time>
      </trkpt>
      <trkpt lat="43.40229" lon="3.68487">
        <ele>185.2</ele>
        <time>2021-02-07T10:16:40Z</time>
      </trkpt>
      <trkpt lat="43.40224" lon="3.68487">
        <ele>184.5</ele>
        <time>2021-02-07T10:16:45Z</time>
      </trkpt>
      <trkpt lat="43.40219" lon="3.68486">
        <ele>184.2</ele>
        <time>2021-02-07T10:16:49Z</time>
      </trkpt>
      <trkpt lat="43.40214" lon="3.68488">
        <ele>183.9</ele>
        <time>2021-02-07T10:16:53Z</time>
      </trkpt>
      <trkpt lat="43.4021" lon="3.6849">
        <ele>183.6</ele>
        <time>2021-02-07T10:16:57Z</time>
      </trkpt>
      <trkpt lat="43.40205" lon="3.68492">
        <ele>183.4</ele>
        <time>2021-02-07T10:17:02Z</time>
      </trkpt>
      <trkpt lat="43.40201" lon="3.68495">
        <ele>183.3</ele>
        <time>2021-02-07T10:17:06Z</time>
      </trkpt>
      <trkpt lat="43.40196" lon="3.68492">
        <ele>183.1</ele>
        <time>2021-02-07T10:17:11Z</time>
      </trkpt>
      <trkpt lat="43.40192" lon="3.68489">
        <ele>183.1</ele>
        <time>2021-02-07T10:17:15Z</time>
      </trkpt>
      <trkpt lat="43.40189" lon="3.68483">
        <ele>183.3</ele>
        <time>2021-02-07T10:17:19Z</time>
      </trkpt>
      <trkpt lat="43.40187" lon="3.68476">
        <ele>183.7</ele>
        <time>2021-02-07T10:17:23Z</time>
      </trkpt>
      <trkpt lat="43.40185" lon="3.68468">
        <ele>183.9</ele>
        <time>2021-02-07T10:17:27Z</time>
      </trkpt>
      <trkpt lat="43.40183" lon="3.68461">
        <ele>184.2</ele>
        <time>2021-02-07T10:17:31Z</time>
      </trkpt>
      <trkpt lat="43.40182" lon="3.68454">
        <ele>184.2</ele>
        <time>2021-02-07T10:17:35Z</time>
      </trkpt>
      <trkpt lat="43.40182" lon="3.68447">
        <ele>184</ele>
        <time>2021-02-07T10:17:39Z</time>
      </trkpt>
      <trkpt lat="43.40183" lon="3.6844">
        <ele>183.3</ele>
        <time>2021-02-07T10:17:45Z</time>
      </trkpt>
      <trkpt lat="43.40184" lon="3.68434">
        <ele>182.9</ele>
        <time>2021-02-07T10:17:49Z</time>
      </trkpt>
      <trkpt lat="43.40186" lon="3.68428">
        <ele>182.6</ele>
        <time>2021-02-07T10:17:53Z</time>
      </trkpt>
      <trkpt lat="43.4019" lon="3.68424">
        <ele>181.5</ele>
        <time>2021-02-07T10:18:00Z</time>
      </trkpt>
      <trkpt lat="43.40194" lon="3.68418">
        <ele>181.9</ele>
        <time>2021-02-07T10:18:04Z</time>
      </trkpt>
      <trkpt lat="43.40196" lon="3.68412">
        <ele>182.4</ele>
        <time>2021-02-07T10:18:09Z</time>
      </trkpt>
      <trkpt lat="43.40199" lon="3.68407">
        <ele>182.9</ele>
        <time>2021-02-07T10:18:33Z</time>
      </trkpt>
      <trkpt lat="43.40203" lon="3.68403">
        <ele>182.7</ele>
        <time>2021-02-07T10:18:37Z</time>
      </trkpt>
      <trkpt lat="43.40207" lon="3.68397">
        <ele>182.4</ele>
        <time>2021-02-07T10:18:41Z</time>
      </trkpt>
      <trkpt lat="43.40211" lon="3.68393">
        <ele>181.9</ele>
        <time>2021-02-07T10:18:45Z</time>
      </trkpt>
      <trkpt lat="43.40214" lon="3.68389">
        <ele>181.3</ele>
        <time>2021-02-07T10:18:49Z</time>
      </trkpt>
      <trkpt lat="43.40219" lon="3.68384">
        <ele>180.7</ele>
        <time>2021-02-07T10:18:54Z</time>
      </trkpt>
      <trkpt lat="43.40223" lon="3.6838">
        <ele>180.3</ele>
        <time>2021-02-07T10:18:58Z</time>
      </trkpt>
      <trkpt lat="43.40226" lon="3.68375">
        <ele>180.1</ele>
        <time>2021-02-07T10:19:01Z</time>
      </trkpt>
      <trkpt lat="43.4023" lon="3.68371">
        <ele>179.4</ele>
        <time>2021-02-07T10:19:05Z</time>
      </trkpt>
      <trkpt lat="43.40233" lon="3.68366">
        <ele>178.8</ele>
        <time>2021-02-07T10:19:09Z</time>
      </trkpt>
      <trkpt lat="43.40237" lon="3.68362">
        <ele>178</ele>
        <time>2021-02-07T10:19:14Z</time>
      </trkpt>
      <trkpt lat="43.4024" lon="3.68356">
        <ele>176.9</ele>
        <time>2021-02-07T10:19:19Z</time>
      </trkpt>
      <trkpt lat="43.40243" lon="3.6835">
        <ele>176</ele>
        <time>2021-02-07T10:19:24Z</time>
      </trkpt>
      <trkpt lat="43.40245" lon="3.68344">
        <ele>175.3</ele>
        <time>2021-02-07T10:19:29Z</time>
      </trkpt>
      <trkpt lat="43.40248" lon="3.6834">
        <ele>174.7</ele>
        <time>2021-02-07T10:19:39Z</time>
      </trkpt>
      <trkpt lat="43.40251" lon="3.68334">
        <ele>174.3</ele>
        <time>2021-02-07T10:19:44Z</time>
      </trkpt>
      <trkpt lat="43.40254" lon="3.68328">
        <ele>173.7</ele>
        <time>2021-02-07T10:19:49Z</time>
      </trkpt>
      <trkpt lat="43.40258" lon="3.68322">
        <ele>172.8</ele>
        <time>2021-02-07T10:19:54Z</time>
      </trkpt>
      <trkpt lat="43.40259" lon="3.68316">
        <ele>172.1</ele>
        <time>2021-02-07T10:19:58Z</time>
      </trkpt>
      <trkpt lat="43.40262" lon="3.6831">
        <ele>171.4</ele>
        <time>2021-02-07T10:20:02Z</time>
      </trkpt>
      <trkpt lat="43.40264" lon="3.68305">
        <ele>170.6</ele>
        <time>2021-02-07T10:20:06Z</time>
      </trkpt>
      <trkpt lat="43.40266" lon="3.68299">
        <ele>169.9</ele>
        <time>2021-02-07T10:20:12Z</time>
      </trkpt>
      <trkpt lat="43.40268" lon="3.68293">
        <ele>169.5</ele>
        <time>2021-02-07T10:20:17Z</time>
      </trkpt>
      <trkpt lat="43.40271" lon="3.68287">
        <ele>169.2</ele>
        <time>2021-02-07T10:20:22Z</time>
      </trkpt>
      <trkpt lat="43.40275" lon="3.68283">
        <ele>168.9</ele>
        <time>2021-02-07T10:20:26Z</time>
      </trkpt>
      <trkpt lat="43.40278" lon="3.68277">
        <ele>167.9</ele>
        <time>2021-02-07T10:20:31Z</time>
      </trkpt>
      <trkpt lat="43.40281" lon="3.68272">
        <ele>167.4</ele>
        <time>2021-02-07T10:20:35Z</time>
      </trkpt>
      <trkpt lat="43.40284" lon="3.68266">
        <ele>166.5</ele>
        <time>2021-02-07T10:20:39Z</time>
      </trkpt>
      <trkpt lat="43.40287" lon="3.6826">
        <ele>165.8</ele>
        <time>2021-02-07T10:20:43Z</time>
      </trkpt>
      <trkpt lat="43.4029" lon="3.68254">
        <ele>165.5</ele>
        <time>2021-02-07T10:20:47Z</time>
      </trkpt>
      <trkpt lat="43.40292" lon="3.68248">
        <ele>164.9</ele>
        <time>2021-02-07T10:20:51Z</time>
      </trkpt>
      <trkpt lat="43.40294" lon="3.6824">
        <ele>164</ele>
        <time>2021-02-07T10:20:56Z</time>
      </trkpt>
      <trkpt lat="43.40295" lon="3.68234">
        <ele>163.5</ele>
        <time>2021-02-07T10:21:00Z</time>
      </trkpt>
      <trkpt lat="43.40296" lon="3.68228">
        <ele>163</ele>
        <time>2021-02-07T10:21:04Z</time>
      </trkpt>
      <trkpt lat="43.40298" lon="3.6822">
        <ele>162.9</ele>
        <time>2021-02-07T10:21:09Z</time>
      </trkpt>
      <trkpt lat="43.403" lon="3.68214">
        <ele>162.5</ele>
        <time>2021-02-07T10:21:13Z</time>
      </trkpt>
      <trkpt lat="43.40303" lon="3.68208">
        <ele>161.9</ele>
        <time>2021-02-07T10:21:18Z</time>
      </trkpt>
      <trkpt lat="43.40306" lon="3.68203">
        <ele>161.3</ele>
        <time>2021-02-07T10:21:22Z</time>
      </trkpt>
      <trkpt lat="43.40308" lon="3.68197">
        <ele>160.6</ele>
        <time>2021-02-07T10:21:26Z</time>
      </trkpt>
      <trkpt lat="43.40311" lon="3.68191">
        <ele>159.6</ele>
        <time>2021-02-07T10:21:31Z</time>
      </trkpt>
      <trkpt lat="43.40314" lon="3.68185">
        <ele>158.2</ele>
        <time>2021-02-07T10:21:36Z</time>
      </trkpt>
      <trkpt lat="43.40317" lon="3.68179">
        <ele>157.2</ele>
        <time>2021-02-07T10:21:41Z</time>
      </trkpt>
      <trkpt lat="43.40321" lon="3.68173">
        <ele>156.3</ele>
        <time>2021-02-07T10:21:46Z</time>
      </trkpt>
      <trkpt lat="43.40323" lon="3.68167">
        <ele>155.2</ele>
        <time>2021-02-07T10:21:51Z</time>
      </trkpt>
      <trkpt lat="43.40326" lon="3.6816">
        <ele>154.4</ele>
        <time>2021-02-07T10:21:56Z</time>
      </trkpt>
      <trkpt lat="43.40329" lon="3.68154">
        <ele>153.7</ele>
        <time>2021-02-07T10:22:02Z</time>
      </trkpt>
      <trkpt lat="43.40331" lon="3.68148">
        <ele>152.9</ele>
        <time>2021-02-07T10:22:07Z</time>
      </trkpt>
      <trkpt lat="43.40332" lon="3.68141">
        <ele>152.4</ele>
        <time>2021-02-07T10:22:11Z</time>
      </trkpt>
      <trkpt lat="43.40333" lon="3.68135">
        <ele>151.6</ele>
        <time>2021-02-07T10:22:15Z</time>
      </trkpt>
      <trkpt lat="43.40334" lon="3.68129">
        <ele>150.8</ele>
        <time>2021-02-07T10:22:19Z</time>
      </trkpt>
      <trkpt lat="43.40335" lon="3.68122">
        <ele>149.7</ele>
        <time>2021-02-07T10:22:24Z</time>
      </trkpt>
      <trkpt lat="43.40335" lon="3.68115">
        <ele>148.8</ele>
        <time>2021-02-07T10:22:29Z</time>
      </trkpt>
      <trkpt lat="43.40335" lon="3.68108">
        <ele>147.8</ele>
        <time>2021-02-07T10:22:34Z</time>
      </trkpt>
      <trkpt lat="43.40336" lon="3.68102">
        <ele>146.6</ele>
        <time>2021-02-07T10:22:38Z</time>
      </trkpt>
      <trkpt lat="43.40337" lon="3.68095">
        <ele>145.5</ele>
        <time>2021-02-07T10:22:43Z</time>
      </trkpt>
      <trkpt lat="43.40338" lon="3.68088">
        <ele>144.6</ele>
        <time>2021-02-07T10:22:47Z</time>
      </trkpt>
      <trkpt lat="43.40338" lon="3.6808">
        <ele>144.2</ele>
        <time>2021-02-07T10:22:51Z</time>
      </trkpt>
      <trkpt lat="43.4034" lon="3.68074">
        <ele>143.4</ele>
        <time>2021-02-07T10:22:55Z</time>
      </trkpt>
      <trkpt lat="43.40342" lon="3.68068">
        <ele>142.4</ele>
        <time>2021-02-07T10:23:00Z</time>
      </trkpt>
      <trkpt lat="43.40343" lon="3.68062">
        <ele>141.1</ele>
        <time>2021-02-07T10:23:05Z</time>
      </trkpt>
      <trkpt lat="43.40345" lon="3.68054">
        <ele>140.5</ele>
        <time>2021-02-07T10:23:09Z</time>
      </trkpt>
      <trkpt lat="43.40346" lon="3.68047">
        <ele>140</ele>
        <time>2021-02-07T10:23:13Z</time>
      </trkpt>
      <trkpt lat="43.40347" lon="3.68041">
        <ele>139.4</ele>
        <time>2021-02-07T10:23:17Z</time>
      </trkpt>
      <trkpt lat="43.4035" lon="3.68035">
        <ele>138.8</ele>
        <time>2021-02-07T10:23:21Z</time>
      </trkpt>
      <trkpt lat="43.40354" lon="3.6803">
        <ele>138.2</ele>
        <time>2021-02-07T10:23:26Z</time>
      </trkpt>
      <trkpt lat="43.40357" lon="3.68023">
        <ele>137.8</ele>
        <time>2021-02-07T10:23:30Z</time>
      </trkpt>
      <trkpt lat="43.40359" lon="3.68017">
        <ele>137.2</ele>
        <time>2021-02-07T10:23:35Z</time>
      </trkpt>
      <trkpt lat="43.40361" lon="3.68011">
        <ele>136.5</ele>
        <time>2021-02-07T10:23:39Z</time>
      </trkpt>
      <trkpt lat="43.40364" lon="3.68006">
        <ele>136.2</ele>
        <time>2021-02-07T10:23:42Z</time>
      </trkpt>
      <trkpt lat="43.40366" lon="3.67999">
        <ele>135.5</ele>
        <time>2021-02-07T10:23:46Z</time>
      </trkpt>
      <trkpt lat="43.40367" lon="3.67992">
        <ele>134.9</ele>
        <time>2021-02-07T10:23:50Z</time>
      </trkpt>
      <trkpt lat="43.40368" lon="3.67985">
        <ele>134</ele>
        <time>2021-02-07T10:23:55Z</time>
      </trkpt>
      <trkpt lat="43.40371" lon="3.67979">
        <ele>133.7</ele>
        <time>2021-02-07T10:23:59Z</time>
      </trkpt>
      <trkpt lat="43.40373" lon="3.67973">
        <ele>133</ele>
        <time>2021-02-07T10:24:03Z</time>
      </trkpt>
      <trkpt lat="43.40375" lon="3.67967">
        <ele>132.3</ele>
        <time>2021-02-07T10:24:07Z</time>
      </trkpt>
      <trkpt lat="43.40377" lon="3.6796">
        <ele>131.6</ele>
        <time>2021-02-07T10:24:12Z</time>
      </trkpt>
      <trkpt lat="43.40379" lon="3.67954">
        <ele>131.3</ele>
        <time>2021-02-07T10:24:16Z</time>
      </trkpt>
      <trkpt lat="43.40381" lon="3.67947">
        <ele>131.7</ele>
        <time>2021-02-07T10:24:19Z</time>
      </trkpt>
      <trkpt lat="43.40383" lon="3.67941">
        <ele>131.4</ele>
        <time>2021-02-07T10:24:23Z</time>
      </trkpt>
      <trkpt lat="43.40385" lon="3.67934">
        <ele>130.7</ele>
        <time>2021-02-07T10:24:28Z</time>
      </trkpt>
      <trkpt lat="43.40388" lon="3.67928">
        <ele>130.1</ele>
        <time>2021-02-07T10:24:33Z</time>
      </trkpt>
      <trkpt lat="43.40389" lon="3.6792">
        <ele>130</ele>
        <time>2021-02-07T10:24:37Z</time>
      </trkpt>
      <trkpt lat="43.4039" lon="3.67914">
        <ele>129.9</ele>
        <time>2021-02-07T10:24:40Z</time>
      </trkpt>
      <trkpt lat="43.40392" lon="3.67906">
        <ele>130</ele>
        <time>2021-02-07T10:24:44Z</time>
      </trkpt>
      <trkpt lat="43.40395" lon="3.679">
        <ele>130.1</ele>
        <time>2021-02-07T10:24:49Z</time>
      </trkpt>
      <trkpt lat="43.40396" lon="3.67894">
        <ele>129.8</ele>
        <time>2021-02-07T10:24:53Z</time>
      </trkpt>
      <trkpt lat="43.40398" lon="3.67886">
        <ele>129.6</ele>
        <time>2021-02-07T10:24:57Z</time>
      </trkpt>
      <trkpt lat="43.404" lon="3.67879">
        <ele>129.3</ele>
        <time>2021-02-07T10:25:01Z</time>
      </trkpt>
      <trkpt lat="43.40401" lon="3.67872">
        <ele>129.2</ele>
        <time>2021-02-07T10:25:05Z</time>
      </trkpt>
      <trkpt lat="43.40402" lon="3.67865">
        <ele>129.1</ele>
        <time>2021-02-07T10:25:09Z</time>
      </trkpt>
      <trkpt lat="43.40403" lon="3.67859">
        <ele>128.3</ele>
        <time>2021-02-07T10:25:13Z</time>
      </trkpt>
      <trkpt lat="43.40404" lon="3.67851">
        <ele>127.9</ele>
        <time>2021-02-07T10:25:17Z</time>
      </trkpt>
      <trkpt lat="43.40404" lon="3.67844">
        <ele>127.9</ele>
        <time>2021-02-07T10:25:21Z</time>
      </trkpt>
      <trkpt lat="43.40405" lon="3.67837">
        <ele>128.1</ele>
        <time>2021-02-07T10:25:25Z</time>
      </trkpt>
      <trkpt lat="43.40404" lon="3.67831">
        <ele>128.3</ele>
        <time>2021-02-07T10:25:30Z</time>
      </trkpt>
      <trkpt lat="43.40404" lon="3.67824">
        <ele>128.2</ele>
        <time>2021-02-07T10:25:35Z</time>
      </trkpt>
      <trkpt lat="43.40403" lon="3.67816">
        <ele>128.1</ele>
        <time>2021-02-07T10:25:39Z</time>
      </trkpt>
      <trkpt lat="43.40402" lon="3.67809">
        <ele>128.1</ele>
        <time>2021-02-07T10:25:42Z</time>
      </trkpt>
      <trkpt lat="43.40401" lon="3.67802">
        <ele>128.2</ele>
        <time>2021-02-07T10:25:46Z</time>
      </trkpt>
      <trkpt lat="43.40401" lon="3.67795">
        <ele>128.3</ele>
        <time>2021-02-07T10:25:51Z</time>
      </trkpt>
      <trkpt lat="43.40402" lon="3.67789">
        <ele>128.9</ele>
        <time>2021-02-07T10:25:56Z</time>
      </trkpt>
      <trkpt lat="43.40401" lon="3.67781">
        <ele>128.7</ele>
        <time>2021-02-07T10:26:01Z</time>
      </trkpt>
      <trkpt lat="43.40401" lon="3.67773">
        <ele>128.4</ele>
        <time>2021-02-07T10:26:05Z</time>
      </trkpt>
      <trkpt lat="43.40401" lon="3.67765">
        <ele>128.1</ele>
        <time>2021-02-07T10:26:09Z</time>
      </trkpt>
      <trkpt lat="43.40401" lon="3.67758">
        <ele>128.2</ele>
        <time>2021-02-07T10:26:13Z</time>
      </trkpt>
      <trkpt lat="43.40402" lon="3.6775">
        <ele>128.4</ele>
        <time>2021-02-07T10:26:17Z</time>
      </trkpt>
      <trkpt lat="43.40403" lon="3.67744">
        <ele>128.6</ele>
        <time>2021-02-07T10:26:20Z</time>
      </trkpt>
      <trkpt lat="43.40404" lon="3.67738">
        <ele>128.8</ele>
        <time>2021-02-07T10:26:23Z</time>
      </trkpt>
      <trkpt lat="43.40404" lon="3.67732">
        <ele>128.9</ele>
        <time>2021-02-07T10:26:26Z</time>
      </trkpt>
      <trkpt lat="43.40404" lon="3.67725">
        <ele>128.9</ele>
        <time>2021-02-07T10:26:30Z</time>
      </trkpt>
      <trkpt lat="43.40404" lon="3.67717">
        <ele>128.7</ele>
        <time>2021-02-07T10:26:34Z</time>
      </trkpt>
      <trkpt lat="43.40404" lon="3.6771">
        <ele>128.7</ele>
        <time>2021-02-07T10:26:38Z</time>
      </trkpt>
      <trkpt lat="43.40404" lon="3.67702">
        <ele>128.6</ele>
        <time>2021-02-07T10:26:43Z</time>
      </trkpt>
      <trkpt lat="43.40403" lon="3.67696">
        <ele>128.4</ele>
        <time>2021-02-07T10:26:48Z</time>
      </trkpt>
      <trkpt lat="43.40404" lon="3.67689">
        <ele>129.2</ele>
        <time>2021-02-07T10:26:52Z</time>
      </trkpt>
      <trkpt lat="43.40404" lon="3.67681">
        <ele>129.7</ele>
        <time>2021-02-07T10:26:56Z</time>
      </trkpt>
      <trkpt lat="43.40403" lon="3.67674">
        <ele>129.7</ele>
        <time>2021-02-07T10:27:00Z</time>
      </trkpt>
      <trkpt lat="43.40401" lon="3.67668">
        <ele>129.5</ele>
        <time>2021-02-07T10:27:04Z</time>
      </trkpt>
      <trkpt lat="43.404" lon="3.67662">
        <ele>129.5</ele>
        <time>2021-02-07T10:27:09Z</time>
      </trkpt>
      <trkpt lat="43.40398" lon="3.67655">
        <ele>129.4</ele>
        <time>2021-02-07T10:27:13Z</time>
      </trkpt>
      <trkpt lat="43.40397" lon="3.67649">
        <ele>129.1</ele>
        <time>2021-02-07T10:27:17Z</time>
      </trkpt>
      <trkpt lat="43.40395" lon="3.67642">
        <ele>128.8</ele>
        <time>2021-02-07T10:27:21Z</time>
      </trkpt>
      <trkpt lat="43.40394" lon="3.67636">
        <ele>128.4</ele>
        <time>2021-02-07T10:27:25Z</time>
      </trkpt>
      <trkpt lat="43.40392" lon="3.67628">
        <ele>128.3</ele>
        <time>2021-02-07T10:27:30Z</time>
      </trkpt>
      <trkpt lat="43.40391" lon="3.67622">
        <ele>128.5</ele>
        <time>2021-02-07T10:27:34Z</time>
      </trkpt>
      <trkpt lat="43.4039" lon="3.67615">
        <ele>128.4</ele>
        <time>2021-02-07T10:27:38Z</time>
      </trkpt>
      <trkpt lat="43.40389" lon="3.67608">
        <ele>127.9</ele>
        <time>2021-02-07T10:27:42Z</time>
      </trkpt>
      <trkpt lat="43.40389" lon="3.67601">
        <ele>127.6</ele>
        <time>2021-02-07T10:27:47Z</time>
      </trkpt>
      <trkpt lat="43.4039" lon="3.67595">
        <ele>127.6</ele>
        <time>2021-02-07T10:27:50Z</time>
      </trkpt>
      <trkpt lat="43.40391" lon="3.67589">
        <ele>127.7</ele>
        <time>2021-02-07T10:27:53Z</time>
      </trkpt>
      <trkpt lat="43.40392" lon="3.67582">
        <ele>127.8</ele>
        <time>2021-02-07T10:27:58Z</time>
      </trkpt>
      <trkpt lat="43.40392" lon="3.67575">
        <ele>127.7</ele>
        <time>2021-02-07T10:28:02Z</time>
      </trkpt>
      <trkpt lat="43.40393" lon="3.67569">
        <ele>127.4</ele>
        <time>2021-02-07T10:28:06Z</time>
      </trkpt>
      <trkpt lat="43.40393" lon="3.67561">
        <ele>127</ele>
        <time>2021-02-07T10:28:11Z</time>
      </trkpt>
      <trkpt lat="43.40393" lon="3.67554">
        <ele>126.8</ele>
        <time>2021-02-07T10:28:16Z</time>
      </trkpt>
      <trkpt lat="43.40392" lon="3.67547">
        <ele>126.6</ele>
        <time>2021-02-07T10:28:20Z</time>
      </trkpt>
      <trkpt lat="43.40392" lon="3.67541">
        <ele>126.7</ele>
        <time>2021-02-07T10:28:23Z</time>
      </trkpt>
      <trkpt lat="43.40392" lon="3.67534">
        <ele>126.9</ele>
        <time>2021-02-07T10:28:27Z</time>
      </trkpt>
      <trkpt lat="43.40392" lon="3.67527">
        <ele>127.3</ele>
        <time>2021-02-07T10:28:31Z</time>
      </trkpt>
      <trkpt lat="43.40393" lon="3.6752">
        <ele>127.9</ele>
        <time>2021-02-07T10:28:35Z</time>
      </trkpt>
      <trkpt lat="43.40394" lon="3.67512">
        <ele>128.3</ele>
        <time>2021-02-07T10:28:39Z</time>
      </trkpt>
      <trkpt lat="43.40394" lon="3.67506">
        <ele>128.2</ele>
        <time>2021-02-07T10:28:44Z</time>
      </trkpt>
      <trkpt lat="43.40394" lon="3.67499">
        <ele>128.1</ele>
        <time>2021-02-07T10:28:48Z</time>
      </trkpt>
      <trkpt lat="43.40395" lon="3.67492">
        <ele>127.9</ele>
        <time>2021-02-07T10:28:52Z</time>
      </trkpt>
      <trkpt lat="43.40395" lon="3.67486">
        <ele>127.9</ele>
        <time>2021-02-07T10:28:56Z</time>
      </trkpt>
      <trkpt lat="43.40396" lon="3.67478">
        <ele>128.2</ele>
        <time>2021-02-07T10:29:01Z</time>
      </trkpt>
      <trkpt lat="43.40396" lon="3.67471">
        <ele>128.5</ele>
        <time>2021-02-07T10:29:05Z</time>
      </trkpt>
      <trkpt lat="43.40397" lon="3.67465">
        <ele>129.2</ele>
        <time>2021-02-07T10:29:11Z</time>
      </trkpt>
      <trkpt lat="43.40396" lon="3.67458">
        <ele>129.7</ele>
        <time>2021-02-07T10:29:16Z</time>
      </trkpt>
      <trkpt lat="43.40396" lon="3.67452">
        <ele>129.5</ele>
        <time>2021-02-07T10:29:21Z</time>
      </trkpt>
      <trkpt lat="43.40395" lon="3.67446">
        <ele>129.5</ele>
        <time>2021-02-07T10:29:27Z</time>
      </trkpt>
      <trkpt lat="43.40394" lon="3.67439">
        <ele>129.2</ele>
        <time>2021-02-07T10:29:32Z</time>
      </trkpt>
      <trkpt lat="43.40392" lon="3.67432">
        <ele>129.2</ele>
        <time>2021-02-07T10:29:36Z</time>
      </trkpt>
      <trkpt lat="43.4039" lon="3.67425">
        <ele>129.4</ele>
        <time>2021-02-07T10:29:40Z</time>
      </trkpt>
      <trkpt lat="43.40389" lon="3.67419">
        <ele>129.8</ele>
        <time>2021-02-07T10:29:43Z</time>
      </trkpt>
      <trkpt lat="43.40388" lon="3.67413">
        <ele>129.8</ele>
        <time>2021-02-07T10:29:47Z</time>
      </trkpt>
      <trkpt lat="43.40388" lon="3.67405">
        <ele>130</ele>
        <time>2021-02-07T10:29:52Z</time>
      </trkpt>
      <trkpt lat="43.40387" lon="3.67398">
        <ele>129.8</ele>
        <time>2021-02-07T10:29:56Z</time>
      </trkpt>
      <trkpt lat="43.40386" lon="3.67392">
        <ele>129.9</ele>
        <time>2021-02-07T10:30:00Z</time>
      </trkpt>
      <trkpt lat="43.40385" lon="3.67385">
        <ele>130.2</ele>
        <time>2021-02-07T10:30:04Z</time>
      </trkpt>
      <trkpt lat="43.40384" lon="3.67378">
        <ele>130.4</ele>
        <time>2021-02-07T10:30:08Z</time>
      </trkpt>
      <trkpt lat="43.40382" lon="3.67371">
        <ele>131</ele>
        <time>2021-02-07T10:30:16Z</time>
      </trkpt>
      <trkpt lat="43.4038" lon="3.67365">
        <ele>130.6</ele>
        <time>2021-02-07T10:30:22Z</time>
      </trkpt>
      <trkpt lat="43.40379" lon="3.67357">
        <ele>130</ele>
        <time>2021-02-07T10:30:28Z</time>
      </trkpt>
      <trkpt lat="43.40379" lon="3.67351">
        <ele>130.8</ele>
        <time>2021-02-07T10:30:32Z</time>
      </trkpt>
      <trkpt lat="43.40378" lon="3.67343">
        <ele>131.6</ele>
        <time>2021-02-07T10:30:36Z</time>
      </trkpt>
      <trkpt lat="43.40377" lon="3.67336">
        <ele>131.5</ele>
        <time>2021-02-07T10:30:40Z</time>
      </trkpt>
      <trkpt lat="43.40376" lon="3.67329">
        <ele>131.3</ele>
        <time>2021-02-07T10:30:44Z</time>
      </trkpt>
      <trkpt lat="43.40375" lon="3.67323">
        <ele>131.2</ele>
        <time>2021-02-07T10:30:48Z</time>
      </trkpt>
      <trkpt lat="43.40374" lon="3.67316">
        <ele>131</ele>
        <time>2021-02-07T10:30:52Z</time>
      </trkpt>
      <trkpt lat="43.40373" lon="3.6731">
        <ele>130.8</ele>
        <time>2021-02-07T10:30:56Z</time>
      </trkpt>
      <trkpt lat="43.40372" lon="3.67304">
        <ele>131.3</ele>
        <time>2021-02-07T10:30:59Z</time>
      </trkpt>
      <trkpt lat="43.40372" lon="3.67298">
        <ele>131.1</ele>
        <time>2021-02-07T10:31:06Z</time>
      </trkpt>
      <trkpt lat="43.4037" lon="3.67291">
        <ele>130.6</ele>
        <time>2021-02-07T10:31:16Z</time>
      </trkpt>
      <trkpt lat="43.40369" lon="3.67283">
        <ele>130.7</ele>
        <time>2021-02-07T10:31:21Z</time>
      </trkpt>
      <trkpt lat="43.40368" lon="3.67276">
        <ele>130.8</ele>
        <time>2021-02-07T10:31:25Z</time>
      </trkpt>
      <trkpt lat="43.40368" lon="3.67268">
        <ele>130.6</ele>
        <time>2021-02-07T10:31:29Z</time>
      </trkpt>
      <trkpt lat="43.40368" lon="3.67262">
        <ele>130.5</ele>
        <time>2021-02-07T10:31:32Z</time>
      </trkpt>
      <trkpt lat="43.40368" lon="3.67255">
        <ele>130.6</ele>
        <time>2021-02-07T10:31:36Z</time>
      </trkpt>
      <trkpt lat="43.40369" lon="3.67248">
        <ele>130.7</ele>
        <time>2021-02-07T10:31:41Z</time>
      </trkpt>
      <trkpt lat="43.40368" lon="3.67241">
        <ele>130.1</ele>
        <time>2021-02-07T10:31:46Z</time>
      </trkpt>
      <trkpt lat="43.40369" lon="3.67234">
        <ele>130.2</ele>
        <time>2021-02-07T10:31:50Z</time>
      </trkpt>
      <trkpt lat="43.40369" lon="3.67228">
        <ele>130.3</ele>
        <time>2021-02-07T10:31:54Z</time>
      </trkpt>
      <trkpt lat="43.40369" lon="3.67221">
        <ele>130.4</ele>
        <time>2021-02-07T10:31:58Z</time>
      </trkpt>
      <trkpt lat="43.4037" lon="3.67215">
        <ele>129.8</ele>
        <time>2021-02-07T10:32:03Z</time>
      </trkpt>
      <trkpt lat="43.40369" lon="3.67208">
        <ele>130.1</ele>
        <time>2021-02-07T10:32:07Z</time>
      </trkpt>
      <trkpt lat="43.40367" lon="3.67201">
        <ele>130.4</ele>
        <time>2021-02-07T10:32:11Z</time>
      </trkpt>
      <trkpt lat="43.40368" lon="3.67194">
        <ele>130.5</ele>
        <time>2021-02-07T10:32:15Z</time>
      </trkpt>
      <trkpt lat="43.40368" lon="3.67187">
        <ele>130.7</ele>
        <time>2021-02-07T10:32:19Z</time>
      </trkpt>
      <trkpt lat="43.40368" lon="3.6718">
        <ele>131</ele>
        <time>2021-02-07T10:32:23Z</time>
      </trkpt>
      <trkpt lat="43.40368" lon="3.67172">
        <ele>131.3</ele>
        <time>2021-02-07T10:32:27Z</time>
      </trkpt>
      <trkpt lat="43.40368" lon="3.67164">
        <ele>131.3</ele>
        <time>2021-02-07T10:32:31Z</time>
      </trkpt>
      <trkpt lat="43.40367" lon="3.67157">
        <ele>131</ele>
        <time>2021-02-07T10:32:35Z</time>
      </trkpt>
      <trkpt lat="43.40367" lon="3.67151">
        <ele>130.6</ele>
        <time>2021-02-07T10:32:39Z</time>
      </trkpt>
      <trkpt lat="43.40367" lon="3.67144">
        <ele>130.3</ele>
        <time>2021-02-07T10:32:44Z</time>
      </trkpt>
      <trkpt lat="43.40368" lon="3.67138">
        <ele>129.9</ele>
        <time>2021-02-07T10:32:48Z</time>
      </trkpt>
      <trkpt lat="43.40368" lon="3.67131">
        <ele>130</ele>
        <time>2021-02-07T10:32:52Z</time>
      </trkpt>
      <trkpt lat="43.40367" lon="3.67124">
        <ele>130.6</ele>
        <time>2021-02-07T10:32:56Z</time>
      </trkpt>
      <trkpt lat="43.40368" lon="3.67117">
        <ele>130.6</ele>
        <time>2021-02-07T10:33:00Z</time>
      </trkpt>
      <trkpt lat="43.40369" lon="3.6711">
        <ele>130.6</ele>
        <time>2021-02-07T10:33:04Z</time>
      </trkpt>
      <trkpt lat="43.40369" lon="3.67104">
        <ele>130.6</ele>
        <time>2021-02-07T10:33:07Z</time>
      </trkpt>
      <trkpt lat="43.4037" lon="3.67097">
        <ele>130.5</ele>
        <time>2021-02-07T10:33:11Z</time>
      </trkpt>
      <trkpt lat="43.4037" lon="3.6709">
        <ele>130.5</ele>
        <time>2021-02-07T10:33:16Z</time>
      </trkpt>
      <trkpt lat="43.4037" lon="3.67084">
        <ele>130.2</ele>
        <time>2021-02-07T10:33:20Z</time>
      </trkpt>
      <trkpt lat="43.4037" lon="3.67077">
        <ele>130.1</ele>
        <time>2021-02-07T10:33:24Z</time>
      </trkpt>
      <trkpt lat="43.40369" lon="3.67069">
        <ele>129.9</ele>
        <time>2021-02-07T10:33:28Z</time>
      </trkpt>
      <trkpt lat="43.40369" lon="3.67062">
        <ele>129.6</ele>
        <time>2021-02-07T10:33:32Z</time>
      </trkpt>
      <trkpt lat="43.40368" lon="3.67054">
        <ele>129.3</ele>
        <time>2021-02-07T10:33:36Z</time>
      </trkpt>
      <trkpt lat="43.40368" lon="3.67047">
        <ele>129.1</ele>
        <time>2021-02-07T10:33:40Z</time>
      </trkpt>
      <trkpt lat="43.40367" lon="3.6704">
        <ele>129</ele>
        <time>2021-02-07T10:33:44Z</time>
      </trkpt>
      <trkpt lat="43.40366" lon="3.67032">
        <ele>129.2</ele>
        <time>2021-02-07T10:33:48Z</time>
      </trkpt>
      <trkpt lat="43.40366" lon="3.67025">
        <ele>129.2</ele>
        <time>2021-02-07T10:33:52Z</time>
      </trkpt>
      <trkpt lat="43.40366" lon="3.67018">
        <ele>129.2</ele>
        <time>2021-02-07T10:33:56Z</time>
      </trkpt>
      <trkpt lat="43.40367" lon="3.67012">
        <ele>128.9</ele>
        <time>2021-02-07T10:34:01Z</time>
      </trkpt>
      <trkpt lat="43.40368" lon="3.67006">
        <ele>129.1</ele>
        <time>2021-02-07T10:34:07Z</time>
      </trkpt>
      <trkpt lat="43.40369" lon="3.67">
        <ele>129.2</ele>
        <time>2021-02-07T10:34:40Z</time>
      </trkpt>
      <trkpt lat="43.40367" lon="3.66992">
        <ele>129.1</ele>
        <time>2021-02-07T10:34:45Z</time>
      </trkpt>
      <trkpt lat="43.40366" lon="3.66985">
        <ele>129</ele>
        <time>2021-02-07T10:34:49Z</time>
      </trkpt>
      <trkpt lat="43.40366" lon="3.66979">
        <ele>129</ele>
        <time>2021-02-07T10:34:53Z</time>
      </trkpt>
      <trkpt lat="43.40365" lon="3.66972">
        <ele>129.2</ele>
        <time>2021-02-07T10:34:57Z</time>
      </trkpt>
      <trkpt lat="43.40364" lon="3.66965">
        <ele>129.6</ele>
        <time>2021-02-07T10:35:01Z</time>
      </trkpt>
      <trkpt lat="43.40364" lon="3.66958">
        <ele>129.8</ele>
        <time>2021-02-07T10:35:05Z</time>
      </trkpt>
      <trkpt lat="43.40364" lon="3.66952">
        <ele>129.8</ele>
        <time>2021-02-07T10:35:09Z</time>
      </trkpt>
      <trkpt lat="43.40364" lon="3.66945">
        <ele>129.8</ele>
        <time>2021-02-07T10:35:13Z</time>
      </trkpt>
      <trkpt lat="43.40364" lon="3.66937">
        <ele>130</ele>
        <time>2021-02-07T10:35:18Z</time>
      </trkpt>
      <trkpt lat="43.40364" lon="3.66931">
        <ele>129.9</ele>
        <time>2021-02-07T10:35:22Z</time>
      </trkpt>
      <trkpt lat="43.40364" lon="3.66924">
        <ele>129.9</ele>
        <time>2021-02-07T10:35:26Z</time>
      </trkpt>
      <trkpt lat="43.40364" lon="3.66917">
        <ele>130</ele>
        <time>2021-02-07T10:35:30Z</time>
      </trkpt>
      <trkpt lat="43.40364" lon="3.6691">
        <ele>130.1</ele>
        <time>2021-02-07T10:35:35Z</time>
      </trkpt>
      <trkpt lat="43.40364" lon="3.66902">
        <ele>130.2</ele>
        <time>2021-02-07T10:35:40Z</time>
      </trkpt>
      <trkpt lat="43.40365" lon="3.66895">
        <ele>130.1</ele>
        <time>2021-02-07T10:35:44Z</time>
      </trkpt>
      <trkpt lat="43.40365" lon="3.66889">
        <ele>130.1</ele>
        <time>2021-02-07T10:35:48Z</time>
      </trkpt>
      <trkpt lat="43.40365" lon="3.66883">
        <ele>129.9</ele>
        <time>2021-02-07T10:35:52Z</time>
      </trkpt>
      <trkpt lat="43.40365" lon="3.66876">
        <ele>129.9</ele>
        <time>2021-02-07T10:35:56Z</time>
      </trkpt>
      <trkpt lat="43.40365" lon="3.6687">
        <ele>130.1</ele>
        <time>2021-02-07T10:36:03Z</time>
      </trkpt>
      <trkpt lat="43.40366" lon="3.66863">
        <ele>130.3</ele>
        <time>2021-02-07T10:36:11Z</time>
      </trkpt>
      <trkpt lat="43.4037" lon="3.6686">
        <ele>129.4</ele>
        <time>2021-02-07T10:36:39Z</time>
      </trkpt>
      <trkpt lat="43.40367" lon="3.66864">
        <ele>128.3</ele>
        <time>2021-02-07T10:41:16Z</time>
      </trkpt>
      <trkpt lat="43.40362" lon="3.66864">
        <ele>127.8</ele>
        <time>2021-02-07T10:41:25Z</time>
      </trkpt>
      <trkpt lat="43.40358" lon="3.66861">
        <ele>127.2</ele>
        <time>2021-02-07T10:41:47Z</time>
      </trkpt>
      <trkpt lat="43.40354" lon="3.66857">
        <ele>126.9</ele>
        <time>2021-02-07T10:41:55Z</time>
      </trkpt>
      <trkpt lat="43.40351" lon="3.66853">
        <ele>126.6</ele>
        <time>2021-02-07T10:42:00Z</time>
      </trkpt>
      <trkpt lat="43.40347" lon="3.66849">
        <ele>126.4</ele>
        <time>2021-02-07T10:42:05Z</time>
      </trkpt>
      <trkpt lat="43.40343" lon="3.66846">
        <ele>126.1</ele>
        <time>2021-02-07T10:42:10Z</time>
      </trkpt>
      <trkpt lat="43.40339" lon="3.66842">
        <ele>125.8</ele>
        <time>2021-02-07T10:42:15Z</time>
      </trkpt>
      <trkpt lat="43.40335" lon="3.66837">
        <ele>125.5</ele>
        <time>2021-02-07T10:42:20Z</time>
      </trkpt>
      <trkpt lat="43.40332" lon="3.66834">
        <ele>125</ele>
        <time>2021-02-07T10:42:26Z</time>
      </trkpt>
      <trkpt lat="43.40326" lon="3.66831">
        <ele>124.7</ele>
        <time>2021-02-07T10:42:35Z</time>
      </trkpt>
      <trkpt lat="43.40322" lon="3.66831">
        <ele>124.5</ele>
        <time>2021-02-07T10:42:40Z</time>
      </trkpt>
      <trkpt lat="43.40317" lon="3.66829">
        <ele>123.9</ele>
        <time>2021-02-07T10:42:46Z</time>
      </trkpt>
      <trkpt lat="43.40312" lon="3.66827">
        <ele>123.4</ele>
        <time>2021-02-07T10:42:51Z</time>
      </trkpt>
      <trkpt lat="43.40307" lon="3.66825">
        <ele>123.2</ele>
        <time>2021-02-07T10:42:56Z</time>
      </trkpt>
      <trkpt lat="43.40303" lon="3.66822">
        <ele>122.8</ele>
        <time>2021-02-07T10:43:01Z</time>
      </trkpt>
      <trkpt lat="43.40298" lon="3.6682">
        <ele>122.4</ele>
        <time>2021-02-07T10:43:07Z</time>
      </trkpt>
      <trkpt lat="43.40293" lon="3.66816">
        <ele>121.4</ele>
        <time>2021-02-07T10:43:14Z</time>
      </trkpt>
      <trkpt lat="43.40289" lon="3.66815">
        <ele>121.6</ele>
        <time>2021-02-07T10:43:21Z</time>
      </trkpt>
      <trkpt lat="43.40283" lon="3.66815">
        <ele>121.6</ele>
        <time>2021-02-07T10:43:26Z</time>
      </trkpt>
      <trkpt lat="43.40278" lon="3.66815">
        <ele>121.2</ele>
        <time>2021-02-07T10:43:31Z</time>
      </trkpt>
      <trkpt lat="43.40273" lon="3.66816">
        <ele>120.9</ele>
        <time>2021-02-07T10:43:36Z</time>
      </trkpt>
      <trkpt lat="43.40268" lon="3.66816">
        <ele>120.3</ele>
        <time>2021-02-07T10:43:41Z</time>
      </trkpt>
      <trkpt lat="43.40264" lon="3.66819">
        <ele>119.5</ele>
        <time>2021-02-07T10:43:47Z</time>
      </trkpt>
      <trkpt lat="43.4026" lon="3.66814">
        <ele>118.5</ele>
        <time>2021-02-07T10:43:52Z</time>
      </trkpt>
      <trkpt lat="43.4026" lon="3.66808">
        <ele>117.5</ele>
        <time>2021-02-07T10:43:58Z</time>
      </trkpt>
      <trkpt lat="43.40261" lon="3.66801">
        <ele>116.6</ele>
        <time>2021-02-07T10:44:21Z</time>
      </trkpt>
      <trkpt lat="43.40258" lon="3.66795">
        <ele>115.6</ele>
        <time>2021-02-07T10:44:27Z</time>
      </trkpt>
      <trkpt lat="43.40255" lon="3.6679">
        <ele>114.9</ele>
        <time>2021-02-07T10:44:31Z</time>
      </trkpt>
      <trkpt lat="43.40252" lon="3.66784">
        <ele>114.1</ele>
        <time>2021-02-07T10:44:35Z</time>
      </trkpt>
      <trkpt lat="43.4025" lon="3.66778">
        <ele>113.5</ele>
        <time>2021-02-07T10:44:39Z</time>
      </trkpt>
      <trkpt lat="43.40248" lon="3.66772">
        <ele>113</ele>
        <time>2021-02-07T10:44:43Z</time>
      </trkpt>
      <trkpt lat="43.40246" lon="3.66765">
        <ele>112.6</ele>
        <time>2021-02-07T10:44:48Z</time>
      </trkpt>
      <trkpt lat="43.40244" lon="3.66759">
        <ele>112.2</ele>
        <time>2021-02-07T10:44:52Z</time>
      </trkpt>
      <trkpt lat="43.40244" lon="3.66753">
        <ele>111.7</ele>
        <time>2021-02-07T10:44:56Z</time>
      </trkpt>
      <trkpt lat="43.40242" lon="3.66746">
        <ele>111.5</ele>
        <time>2021-02-07T10:45:01Z</time>
      </trkpt>
      <trkpt lat="43.40241" lon="3.66739">
        <ele>111.6</ele>
        <time>2021-02-07T10:45:05Z</time>
      </trkpt>
      <trkpt lat="43.4024" lon="3.66733">
        <ele>111.7</ele>
        <time>2021-02-07T10:45:09Z</time>
      </trkpt>
      <trkpt lat="43.40239" lon="3.66726">
        <ele>111.9</ele>
        <time>2021-02-07T10:45:13Z</time>
      </trkpt>
      <trkpt lat="43.40239" lon="3.66719">
        <ele>111.9</ele>
        <time>2021-02-07T10:45:18Z</time>
      </trkpt>
      <trkpt lat="43.40239" lon="3.66712">
        <ele>111.9</ele>
        <time>2021-02-07T10:45:22Z</time>
      </trkpt>
      <trkpt lat="43.40241" lon="3.66705">
        <ele>111.8</ele>
        <time>2021-02-07T10:45:26Z</time>
      </trkpt>
      <trkpt lat="43.40242" lon="3.66699">
        <ele>112</ele>
        <time>2021-02-07T10:45:30Z</time>
      </trkpt>
      <trkpt lat="43.40243" lon="3.66693">
        <ele>112.3</ele>
        <time>2021-02-07T10:45:34Z</time>
      </trkpt>
      <trkpt lat="43.40246" lon="3.66686">
        <ele>112.6</ele>
        <time>2021-02-07T10:45:39Z</time>
      </trkpt>
      <trkpt lat="43.40249" lon="3.66681">
        <ele>112.7</ele>
        <time>2021-02-07T10:45:44Z</time>
      </trkpt>
      <trkpt lat="43.40253" lon="3.66677">
        <ele>112.6</ele>
        <time>2021-02-07T10:45:48Z</time>
      </trkpt>
      <trkpt lat="43.40255" lon="3.66671">
        <ele>112.5</ele>
        <time>2021-02-07T10:45:53Z</time>
      </trkpt>
      <trkpt lat="43.40257" lon="3.66666">
        <ele>111.9</ele>
        <time>2021-02-07T10:46:55Z</time>
      </trkpt>
      <trkpt lat="43.4026" lon="3.66659">
        <ele>111.8</ele>
        <time>2021-02-07T10:46:59Z</time>
      </trkpt>
      <trkpt lat="43.40262" lon="3.66654">
        <ele>111.7</ele>
        <time>2021-02-07T10:47:03Z</time>
      </trkpt>
      <trkpt lat="43.40265" lon="3.66647">
        <ele>111.8</ele>
        <time>2021-02-07T10:47:08Z</time>
      </trkpt>
      <trkpt lat="43.40267" lon="3.66642">
        <ele>111.9</ele>
        <time>2021-02-07T10:47:12Z</time>
      </trkpt>
      <trkpt lat="43.4027" lon="3.66636">
        <ele>111.9</ele>
        <time>2021-02-07T10:47:17Z</time>
      </trkpt>
      <trkpt lat="43.40273" lon="3.6663">
        <ele>114.4</ele>
        <time>2021-02-07T10:47:39Z</time>
      </trkpt>
      <trkpt lat="43.40274" lon="3.66624">
        <ele>113.9</ele>
        <time>2021-02-07T10:47:44Z</time>
      </trkpt>
      <trkpt lat="43.40276" lon="3.66618">
        <ele>113.1</ele>
        <time>2021-02-07T10:47:52Z</time>
      </trkpt>
      <trkpt lat="43.40279" lon="3.66613">
        <ele>111.9</ele>
        <time>2021-02-07T10:48:08Z</time>
      </trkpt>
      <trkpt lat="43.4028" lon="3.66606">
        <ele>111.4</ele>
        <time>2021-02-07T10:48:16Z</time>
      </trkpt>
      <trkpt lat="43.40283" lon="3.66601">
        <ele>111</ele>
        <time>2021-02-07T10:48:21Z</time>
      </trkpt>
      <trkpt lat="43.4028" lon="3.66596">
        <ele>109.4</ele>
        <time>2021-02-07T10:49:49Z</time>
      </trkpt>
      <trkpt lat="43.40279" lon="3.66589">
        <ele>108.6</ele>
        <time>2021-02-07T10:49:56Z</time>
      </trkpt>
      <trkpt lat="43.40279" lon="3.66583">
        <ele>106.6</ele>
        <time>2021-02-07T10:50:04Z</time>
      </trkpt>
      <trkpt lat="43.40279" lon="3.66576">
        <ele>105.3</ele>
        <time>2021-02-07T10:50:11Z</time>
      </trkpt>
      <trkpt lat="43.40281" lon="3.6657">
        <ele>104.3</ele>
        <time>2021-02-07T10:50:19Z</time>
      </trkpt>
      <trkpt lat="43.4028" lon="3.66576">
        <ele>103.9</ele>
        <time>2021-02-07T10:50:54Z</time>
      </trkpt>
      <trkpt lat="43.40282" lon="3.66583">
        <ele>105</ele>
        <time>2021-02-07T10:50:59Z</time>
      </trkpt>
      <trkpt lat="43.40285" lon="3.66588">
        <ele>105.8</ele>
        <time>2021-02-07T10:51:04Z</time>
      </trkpt>
      <trkpt lat="43.40289" lon="3.6659">
        <ele>106.5</ele>
        <time>2021-02-07T10:51:15Z</time>
      </trkpt>
      <trkpt lat="43.40294" lon="3.6659">
        <ele>107.1</ele>
        <time>2021-02-07T10:51:21Z</time>
      </trkpt>
      <trkpt lat="43.40299" lon="3.66589">
        <ele>107.1</ele>
        <time>2021-02-07T10:51:26Z</time>
      </trkpt>
      <trkpt lat="43.40303" lon="3.66587">
        <ele>106.9</ele>
        <time>2021-02-07T10:51:32Z</time>
      </trkpt>
      <trkpt lat="43.40307" lon="3.66581">
        <ele>105.8</ele>
        <time>2021-02-07T10:51:38Z</time>
      </trkpt>
      <trkpt lat="43.40311" lon="3.66577">
        <ele>104.8</ele>
        <time>2021-02-07T10:51:45Z</time>
      </trkpt>
      <trkpt lat="43.40316" lon="3.66575">
        <ele>104.6</ele>
        <time>2021-02-07T10:51:51Z</time>
      </trkpt>
      <trkpt lat="43.40321" lon="3.66575">
        <ele>104.5</ele>
        <time>2021-02-07T10:51:57Z</time>
      </trkpt>
      <trkpt lat="43.40326" lon="3.66573">
        <ele>103.2</ele>
        <time>2021-02-07T10:52:03Z</time>
      </trkpt>
      <trkpt lat="43.40331" lon="3.66574">
        <ele>102.5</ele>
        <time>2021-02-07T10:52:10Z</time>
      </trkpt>
      <trkpt lat="43.40336" lon="3.66575">
        <ele>102.2</ele>
        <time>2021-02-07T10:52:14Z</time>
      </trkpt>
      <trkpt lat="43.40341" lon="3.66576">
        <ele>101.8</ele>
        <time>2021-02-07T10:52:19Z</time>
      </trkpt>
      <trkpt lat="43.40346" lon="3.66579">
        <ele>101.3</ele>
        <time>2021-02-07T10:52:23Z</time>
      </trkpt>
      <trkpt lat="43.4035" lon="3.6658">
        <ele>100.6</ele>
        <time>2021-02-07T10:52:27Z</time>
      </trkpt>
      <trkpt lat="43.40355" lon="3.66581">
        <ele>99.9</ele>
        <time>2021-02-07T10:52:31Z</time>
      </trkpt>
      <trkpt lat="43.40359" lon="3.66583">
        <ele>99.1</ele>
        <time>2021-02-07T10:52:35Z</time>
      </trkpt>
      <trkpt lat="43.40364" lon="3.66585">
        <ele>98.3</ele>
        <time>2021-02-07T10:52:40Z</time>
      </trkpt>
      <trkpt lat="43.40369" lon="3.66588">
        <ele>97.7</ele>
        <time>2021-02-07T10:52:45Z</time>
      </trkpt>
      <trkpt lat="43.40374" lon="3.6659">
        <ele>97.3</ele>
        <time>2021-02-07T10:52:50Z</time>
      </trkpt>
      <trkpt lat="43.40378" lon="3.66593">
        <ele>96.6</ele>
        <time>2021-02-07T10:52:55Z</time>
      </trkpt>
      <trkpt lat="43.40383" lon="3.66595">
        <ele>95.9</ele>
        <time>2021-02-07T10:53:00Z</time>
      </trkpt>
      <trkpt lat="43.40387" lon="3.66598">
        <ele>94.9</ele>
        <time>2021-02-07T10:53:10Z</time>
      </trkpt>
      <trkpt lat="43.40392" lon="3.66598">
        <ele>93.1</ele>
        <time>2021-02-07T10:53:31Z</time>
      </trkpt>
      <trkpt lat="43.40395" lon="3.66604">
        <ele>92.2</ele>
        <time>2021-02-07T10:53:38Z</time>
      </trkpt>
      <trkpt lat="43.40398" lon="3.66608">
        <ele>91.5</ele>
        <time>2021-02-07T10:53:45Z</time>
      </trkpt>
      <trkpt lat="43.40403" lon="3.66607">
        <ele>90</ele>
        <time>2021-02-07T10:54:56Z</time>
      </trkpt>
      <trkpt lat="43.40407" lon="3.66608">
        <ele>88.7</ele>
        <time>2021-02-07T10:58:41Z</time>
      </trkpt>
      <trkpt lat="43.40411" lon="3.66611">
        <ele>88.1</ele>
        <time>2021-02-07T10:58:46Z</time>
      </trkpt>
      <trkpt lat="43.40415" lon="3.66615">
        <ele>88</ele>
        <time>2021-02-07T10:58:52Z</time>
      </trkpt>
      <trkpt lat="43.4042" lon="3.66618">
        <ele>87.6</ele>
        <time>2021-02-07T10:58:57Z</time>
      </trkpt>
      <trkpt lat="43.40425" lon="3.6662">
        <ele>87</ele>
        <time>2021-02-07T10:59:03Z</time>
      </trkpt>
      <trkpt lat="43.4043" lon="3.66623">
        <ele>85.9</ele>
        <time>2021-02-07T10:59:09Z</time>
      </trkpt>
      <trkpt lat="43.40435" lon="3.66625">
        <ele>84.7</ele>
        <time>2021-02-07T10:59:15Z</time>
      </trkpt>
      <trkpt lat="43.4044" lon="3.66628">
        <ele>83.7</ele>
        <time>2021-02-07T10:59:21Z</time>
      </trkpt>
      <trkpt lat="43.40444" lon="3.66631">
        <ele>82.8</ele>
        <time>2021-02-07T10:59:27Z</time>
      </trkpt>
      <trkpt lat="43.40449" lon="3.66634">
        <ele>82.1</ele>
        <time>2021-02-07T10:59:32Z</time>
      </trkpt>
      <trkpt lat="43.40454" lon="3.66638">
        <ele>81.4</ele>
        <time>2021-02-07T10:59:37Z</time>
      </trkpt>
      <trkpt lat="43.40458" lon="3.66642">
        <ele>80.7</ele>
        <time>2021-02-07T10:59:42Z</time>
      </trkpt>
      <trkpt lat="43.40463" lon="3.66645">
        <ele>79.6</ele>
        <time>2021-02-07T10:59:48Z</time>
      </trkpt>
      <trkpt lat="43.40467" lon="3.66646">
        <ele>78.4</ele>
        <time>2021-02-07T10:59:55Z</time>
      </trkpt>
      <trkpt lat="43.40471" lon="3.66649">
        <ele>77.4</ele>
        <time>2021-02-07T11:00:14Z</time>
      </trkpt>
      <trkpt lat="43.40474" lon="3.66654">
        <ele>76.7</ele>
        <time>2021-02-07T11:00:19Z</time>
      </trkpt>
      <trkpt lat="43.40479" lon="3.66658">
        <ele>75.9</ele>
        <time>2021-02-07T11:00:25Z</time>
      </trkpt>
      <trkpt lat="43.40483" lon="3.66661">
        <ele>75.2</ele>
        <time>2021-02-07T11:00:30Z</time>
      </trkpt>
      <trkpt lat="43.40487" lon="3.66664">
        <ele>74.8</ele>
        <time>2021-02-07T11:00:34Z</time>
      </trkpt>
      <trkpt lat="43.40492" lon="3.66668">
        <ele>74.2</ele>
        <time>2021-02-07T11:00:39Z</time>
      </trkpt>
      <trkpt lat="43.40496" lon="3.66672">
        <ele>72.7</ele>
        <time>2021-02-07T11:00:57Z</time>
      </trkpt>
      <trkpt lat="43.40499" lon="3.66677">
        <ele>72.3</ele>
        <time>2021-02-07T11:01:03Z</time>
      </trkpt>
      <trkpt lat="43.40503" lon="3.66682">
        <ele>71.8</ele>
        <time>2021-02-07T11:01:08Z</time>
      </trkpt>
      <trkpt lat="43.40507" lon="3.66686">
        <ele>71.4</ele>
        <time>2021-02-07T11:01:12Z</time>
      </trkpt>
      <trkpt lat="43.4051" lon="3.6669">
        <ele>71.1</ele>
        <time>2021-02-07T11:01:16Z</time>
      </trkpt>
      <trkpt lat="43.40514" lon="3.66694">
        <ele>70.8</ele>
        <time>2021-02-07T11:01:20Z</time>
      </trkpt>
      <trkpt lat="43.40517" lon="3.66698">
        <ele>70.4</ele>
        <time>2021-02-07T11:01:24Z</time>
      </trkpt>
      <trkpt lat="43.40519" lon="3.66704">
        <ele>69.8</ele>
        <time>2021-02-07T11:01:28Z</time>
      </trkpt>
      <trkpt lat="43.4052" lon="3.66711">
        <ele>69.5</ele>
        <time>2021-02-07T11:01:32Z</time>
      </trkpt>
      <trkpt lat="43.40522" lon="3.66717">
        <ele>69.4</ele>
        <time>2021-02-07T11:01:37Z</time>
      </trkpt>
      <trkpt lat="43.40525" lon="3.66723">
        <ele>69.6</ele>
        <time>2021-02-07T11:01:41Z</time>
      </trkpt>
      <trkpt lat="43.40526" lon="3.66729">
        <ele>69.8</ele>
        <time>2021-02-07T11:01:46Z</time>
      </trkpt>
      <trkpt lat="43.40528" lon="3.66737">
        <ele>70.3</ele>
        <time>2021-02-07T11:01:51Z</time>
      </trkpt>
      <trkpt lat="43.40529" lon="3.66745">
        <ele>71</ele>
        <time>2021-02-07T11:01:55Z</time>
      </trkpt>
      <trkpt lat="43.40532" lon="3.6675">
        <ele>71.3</ele>
        <time>2021-02-07T11:01:58Z</time>
      </trkpt>
      <trkpt lat="43.40534" lon="3.66757">
        <ele>71.7</ele>
        <time>2021-02-07T11:02:02Z</time>
      </trkpt>
      <trkpt lat="43.40535" lon="3.66763">
        <ele>72</ele>
        <time>2021-02-07T11:02:06Z</time>
      </trkpt>
      <trkpt lat="43.40536" lon="3.6677">
        <ele>72.2</ele>
        <time>2021-02-07T11:02:10Z</time>
      </trkpt>
      <trkpt lat="43.40536" lon="3.66777">
        <ele>72.5</ele>
        <time>2021-02-07T11:02:15Z</time>
      </trkpt>
      <trkpt lat="43.40538" lon="3.66783">
        <ele>72.4</ele>
        <time>2021-02-07T11:02:20Z</time>
      </trkpt>
      <trkpt lat="43.40539" lon="3.66789">
        <ele>72.3</ele>
        <time>2021-02-07T11:02:25Z</time>
      </trkpt>
      <trkpt lat="43.4054" lon="3.66797">
        <ele>72.5</ele>
        <time>2021-02-07T11:02:29Z</time>
      </trkpt>
      <trkpt lat="43.4054" lon="3.66804">
        <ele>72.7</ele>
        <time>2021-02-07T11:02:33Z</time>
      </trkpt>
      <trkpt lat="43.4054" lon="3.6681">
        <ele>72.9</ele>
        <time>2021-02-07T11:02:37Z</time>
      </trkpt>
      <trkpt lat="43.40541" lon="3.66818">
        <ele>73.4</ele>
        <time>2021-02-07T11:02:41Z</time>
      </trkpt>
      <trkpt lat="43.40539" lon="3.66824">
        <ele>73.6</ele>
        <time>2021-02-07T11:02:45Z</time>
      </trkpt>
      <trkpt lat="43.40538" lon="3.66832">
        <ele>74.2</ele>
        <time>2021-02-07T11:02:49Z</time>
      </trkpt>
      <trkpt lat="43.40537" lon="3.66838">
        <ele>74.7</ele>
        <time>2021-02-07T11:02:53Z</time>
      </trkpt>
      <trkpt lat="43.40537" lon="3.66845">
        <ele>75.3</ele>
        <time>2021-02-07T11:02:57Z</time>
      </trkpt>
      <trkpt lat="43.40536" lon="3.66852">
        <ele>75.9</ele>
        <time>2021-02-07T11:03:01Z</time>
      </trkpt>
      <trkpt lat="43.40534" lon="3.66859">
        <ele>78.2</ele>
        <time>2021-02-07T11:03:26Z</time>
      </trkpt>
      <trkpt lat="43.40534" lon="3.66865">
        <ele>78.6</ele>
        <time>2021-02-07T11:03:31Z</time>
      </trkpt>
      <trkpt lat="43.40533" lon="3.66873">
        <ele>79.2</ele>
        <time>2021-02-07T11:03:36Z</time>
      </trkpt>
      <trkpt lat="43.40531" lon="3.66879">
        <ele>79.7</ele>
        <time>2021-02-07T11:03:41Z</time>
      </trkpt>
      <trkpt lat="43.40531" lon="3.66885">
        <ele>80.2</ele>
        <time>2021-02-07T11:03:46Z</time>
      </trkpt>
      <trkpt lat="43.4053" lon="3.66892">
        <ele>80.6</ele>
        <time>2021-02-07T11:03:52Z</time>
      </trkpt>
      <trkpt lat="43.4053" lon="3.66899">
        <ele>80.9</ele>
        <time>2021-02-07T11:03:58Z</time>
      </trkpt>
      <trkpt lat="43.40529" lon="3.66906">
        <ele>81.3</ele>
        <time>2021-02-07T11:04:04Z</time>
      </trkpt>
      <trkpt lat="43.4053" lon="3.66913">
        <ele>81.8</ele>
        <time>2021-02-07T11:04:09Z</time>
      </trkpt>
      <trkpt lat="43.40531" lon="3.6692">
        <ele>82.2</ele>
        <time>2021-02-07T11:04:14Z</time>
      </trkpt>
      <trkpt lat="43.40534" lon="3.66926">
        <ele>82.5</ele>
        <time>2021-02-07T11:04:20Z</time>
      </trkpt>
      <trkpt lat="43.40535" lon="3.66932">
        <ele>82.6</ele>
        <time>2021-02-07T11:04:25Z</time>
      </trkpt>
      <trkpt lat="43.40537" lon="3.66939">
        <ele>82.6</ele>
        <time>2021-02-07T11:04:31Z</time>
      </trkpt>
      <trkpt lat="43.40538" lon="3.66946">
        <ele>82.4</ele>
        <time>2021-02-07T11:05:00Z</time>
      </trkpt>
      <trkpt lat="43.40539" lon="3.66939">
        <ele>82.6</ele>
        <time>2021-02-07T11:05:37Z</time>
      </trkpt>
      <trkpt lat="43.40536" lon="3.66933">
        <ele>83</ele>
        <time>2021-02-07T11:05:42Z</time>
      </trkpt>
      <trkpt lat="43.40531" lon="3.66929">
        <ele>83.4</ele>
        <time>2021-02-07T11:05:47Z</time>
      </trkpt>
      <trkpt lat="43.40529" lon="3.66923">
        <ele>83.7</ele>
        <time>2021-02-07T11:05:50Z</time>
      </trkpt>
      <trkpt lat="43.40527" lon="3.66918">
        <ele>83.9</ele>
        <time>2021-02-07T11:05:53Z</time>
      </trkpt>
      <trkpt lat="43.40526" lon="3.66924">
        <ele>83.7</ele>
        <time>2021-02-07T11:06:02Z</time>
      </trkpt>
      <trkpt lat="43.40525" lon="3.66931">
        <ele>84.2</ele>
        <time>2021-02-07T11:06:06Z</time>
      </trkpt>
      <trkpt lat="43.40522" lon="3.66936">
        <ele>84.7</ele>
        <time>2021-02-07T11:06:11Z</time>
      </trkpt>
      <trkpt lat="43.40521" lon="3.66943">
        <ele>85.4</ele>
        <time>2021-02-07T11:06:17Z</time>
      </trkpt>
      <trkpt lat="43.4052" lon="3.6695">
        <ele>86.4</ele>
        <time>2021-02-07T11:06:22Z</time>
      </trkpt>
      <trkpt lat="43.40515" lon="3.66951">
        <ele>87.7</ele>
        <time>2021-02-07T11:06:32Z</time>
      </trkpt>
      <trkpt lat="43.40513" lon="3.66945">
        <ele>87.9</ele>
        <time>2021-02-07T11:06:36Z</time>
      </trkpt>
      <trkpt lat="43.40512" lon="3.66938">
        <ele>88</ele>
        <time>2021-02-07T11:06:39Z</time>
      </trkpt>
      <trkpt lat="43.40509" lon="3.66931">
        <ele>87.8</ele>
        <time>2021-02-07T11:06:43Z</time>
      </trkpt>
      <trkpt lat="43.40507" lon="3.66925">
        <ele>88.2</ele>
        <time>2021-02-07T11:06:48Z</time>
      </trkpt>
      <trkpt lat="43.40506" lon="3.66918">
        <ele>89.6</ele>
        <time>2021-02-07T11:06:53Z</time>
      </trkpt>
      <trkpt lat="43.40505" lon="3.66911">
        <ele>90.3</ele>
        <time>2021-02-07T11:06:56Z</time>
      </trkpt>
      <trkpt lat="43.40504" lon="3.66905">
        <ele>90.9</ele>
        <time>2021-02-07T11:06:59Z</time>
      </trkpt>
      <trkpt lat="43.40503" lon="3.66898">
        <ele>91.7</ele>
        <time>2021-02-07T11:07:03Z</time>
      </trkpt>
      <trkpt lat="43.40502" lon="3.66892">
        <ele>93.4</ele>
        <time>2021-02-07T11:07:10Z</time>
      </trkpt>
      <trkpt lat="43.40501" lon="3.66885">
        <ele>95.6</ele>
        <time>2021-02-07T11:07:19Z</time>
      </trkpt>
      <trkpt lat="43.40501" lon="3.66879">
        <ele>96.7</ele>
        <time>2021-02-07T11:07:26Z</time>
      </trkpt>
      <trkpt lat="43.40502" lon="3.66872">
        <ele>97</ele>
        <time>2021-02-07T11:07:29Z</time>
      </trkpt>
      <trkpt lat="43.405" lon="3.66866">
        <ele>97.5</ele>
        <time>2021-02-07T11:07:37Z</time>
      </trkpt>
      <trkpt lat="43.40496" lon="3.66864">
        <ele>99</ele>
        <time>2021-02-07T11:07:51Z</time>
      </trkpt>
      <trkpt lat="43.40492" lon="3.66861">
        <ele>101.7</ele>
        <time>2021-02-07T11:08:09Z</time>
      </trkpt>
      <trkpt lat="43.40488" lon="3.66857">
        <ele>103.3</ele>
        <time>2021-02-07T11:08:19Z</time>
      </trkpt>
      <trkpt lat="43.40484" lon="3.66854">
        <ele>104.1</ele>
        <time>2021-02-07T11:08:24Z</time>
      </trkpt>
      <trkpt lat="43.40482" lon="3.66859">
        <ele>107.7</ele>
        <time>2021-02-07T11:08:41Z</time>
      </trkpt>
      <trkpt lat="43.40482" lon="3.66866">
        <ele>109.6</ele>
        <time>2021-02-07T11:08:46Z</time>
      </trkpt>
      <trkpt lat="43.40479" lon="3.6687">
        <ele>111.3</ele>
        <time>2021-02-07T11:08:57Z</time>
      </trkpt>
      <trkpt lat="43.40474" lon="3.66871">
        <ele>111.6</ele>
        <time>2021-02-07T11:09:07Z</time>
      </trkpt>
      <trkpt lat="43.4047" lon="3.66867">
        <ele>113</ele>
        <time>2021-02-07T11:09:23Z</time>
      </trkpt>
      <trkpt lat="43.40466" lon="3.66867">
        <ele>115.3</ele>
        <time>2021-02-07T11:09:35Z</time>
      </trkpt>
      <trkpt lat="43.40464" lon="3.66873">
        <ele>116.9</ele>
        <time>2021-02-07T11:09:48Z</time>
      </trkpt>
      <trkpt lat="43.40463" lon="3.6688">
        <ele>118</ele>
        <time>2021-02-07T11:10:00Z</time>
      </trkpt>
      <trkpt lat="43.40461" lon="3.66888">
        <ele>118.4</ele>
        <time>2021-02-07T11:10:05Z</time>
      </trkpt>
      <trkpt lat="43.40459" lon="3.66895">
        <ele>118.8</ele>
        <time>2021-02-07T11:10:11Z</time>
      </trkpt>
      <trkpt lat="43.40457" lon="3.66902">
        <ele>119</ele>
        <time>2021-02-07T11:10:14Z</time>
      </trkpt>
      <trkpt lat="43.40456" lon="3.66909">
        <ele>119.5</ele>
        <time>2021-02-07T11:10:17Z</time>
      </trkpt>
      <trkpt lat="43.40454" lon="3.66915">
        <ele>120.2</ele>
        <time>2021-02-07T11:10:21Z</time>
      </trkpt>
      <trkpt lat="43.40453" lon="3.66921">
        <ele>121.9</ele>
        <time>2021-02-07T11:10:31Z</time>
      </trkpt>
      <trkpt lat="43.40449" lon="3.66925">
        <ele>123.2</ele>
        <time>2021-02-07T11:10:43Z</time>
      </trkpt>
      <trkpt lat="43.40445" lon="3.66924">
        <ele>122.7</ele>
        <time>2021-02-07T11:10:50Z</time>
      </trkpt>
      <trkpt lat="43.4044" lon="3.66924">
        <ele>123.3</ele>
        <time>2021-02-07T11:10:53Z</time>
      </trkpt>
      <trkpt lat="43.40434" lon="3.66924">
        <ele>123.8</ele>
        <time>2021-02-07T11:10:56Z</time>
      </trkpt>
      <trkpt lat="43.4043" lon="3.66923">
        <ele>124.4</ele>
        <time>2021-02-07T11:10:59Z</time>
      </trkpt>
      <trkpt lat="43.40425" lon="3.66921">
        <ele>124.5</ele>
        <time>2021-02-07T11:11:02Z</time>
      </trkpt>
      <trkpt lat="43.4042" lon="3.66919">
        <ele>125.1</ele>
        <time>2021-02-07T11:11:06Z</time>
      </trkpt>
      <trkpt lat="43.40416" lon="3.66914">
        <ele>125.8</ele>
        <time>2021-02-07T11:11:10Z</time>
      </trkpt>
      <trkpt lat="43.40415" lon="3.66907">
        <ele>126.4</ele>
        <time>2021-02-07T11:11:15Z</time>
      </trkpt>
      <trkpt lat="43.40414" lon="3.66901">
        <ele>126.5</ele>
        <time>2021-02-07T11:11:22Z</time>
      </trkpt>
      <trkpt lat="43.40411" lon="3.66895">
        <ele>126.3</ele>
        <time>2021-02-07T11:11:29Z</time>
      </trkpt>
      <trkpt lat="43.40408" lon="3.66891">
        <ele>126.8</ele>
        <time>2021-02-07T11:11:33Z</time>
      </trkpt>
      <trkpt lat="43.40403" lon="3.66887">
        <ele>127.2</ele>
        <time>2021-02-07T11:11:37Z</time>
      </trkpt>
      <trkpt lat="43.40398" lon="3.66885">
        <ele>127.7</ele>
        <time>2021-02-07T11:11:41Z</time>
      </trkpt>
      <trkpt lat="43.40393" lon="3.66885">
        <ele>128.1</ele>
        <time>2021-02-07T11:11:45Z</time>
      </trkpt>
      <trkpt lat="43.40389" lon="3.66889">
        <ele>128.7</ele>
        <time>2021-02-07T11:11:50Z</time>
      </trkpt>
      <trkpt lat="43.40386" lon="3.66894">
        <ele>129.4</ele>
        <time>2021-02-07T11:11:55Z</time>
      </trkpt>
      <trkpt lat="43.40382" lon="3.66892">
        <ele>132.5</ele>
        <time>2021-02-07T11:12:44Z</time>
      </trkpt>
      <trkpt lat="43.40386" lon="3.66893">
        <ele>123.5</ele>
        <time>2021-02-07T11:21:28Z</time>
      </trkpt>
      <trkpt lat="43.40388" lon="3.66888">
        <ele>124.3</ele>
        <time>2021-02-07T11:52:12Z</time>
      </trkpt>
      <trkpt lat="43.40393" lon="3.66885">
        <ele>125.8</ele>
        <time>2021-02-07T11:52:16Z</time>
      </trkpt>
      <trkpt lat="43.40398" lon="3.66882">
        <ele>127</ele>
        <time>2021-02-07T11:52:20Z</time>
      </trkpt>
      <trkpt lat="43.40403" lon="3.66882">
        <ele>128</ele>
        <time>2021-02-07T11:52:24Z</time>
      </trkpt>
      <trkpt lat="43.40408" lon="3.66884">
        <ele>128.9</ele>
        <time>2021-02-07T11:52:28Z</time>
      </trkpt>
      <trkpt lat="43.40413" lon="3.66888">
        <ele>129.8</ele>
        <time>2021-02-07T11:52:32Z</time>
      </trkpt>
      <trkpt lat="43.40416" lon="3.66892">
        <ele>130.5</ele>
        <time>2021-02-07T11:52:35Z</time>
      </trkpt>
      <trkpt lat="43.4042" lon="3.66897">
        <ele>131.2</ele>
        <time>2021-02-07T11:52:39Z</time>
      </trkpt>
      <trkpt lat="43.40423" lon="3.66903">
        <ele>131.7</ele>
        <time>2021-02-07T11:52:43Z</time>
      </trkpt>
      <trkpt lat="43.40423" lon="3.6691">
        <ele>131.9</ele>
        <time>2021-02-07T11:52:47Z</time>
      </trkpt>
      <trkpt lat="43.40424" lon="3.66917">
        <ele>131.7</ele>
        <time>2021-02-07T11:52:52Z</time>
      </trkpt>
      <trkpt lat="43.40429" lon="3.66921">
        <ele>131.3</ele>
        <time>2021-02-07T11:52:58Z</time>
      </trkpt>
      <trkpt lat="43.40433" lon="3.66922">
        <ele>131.1</ele>
        <time>2021-02-07T11:53:02Z</time>
      </trkpt>
      <trkpt lat="43.40438" lon="3.66922">
        <ele>130.9</ele>
        <time>2021-02-07T11:53:07Z</time>
      </trkpt>
      <trkpt lat="43.40443" lon="3.66921">
        <ele>130.8</ele>
        <time>2021-02-07T11:53:12Z</time>
      </trkpt>
      <trkpt lat="43.40448" lon="3.66925">
        <ele>130.7</ele>
        <time>2021-02-07T11:53:18Z</time>
      </trkpt>
      <trkpt lat="43.40451" lon="3.6692">
        <ele>129.6</ele>
        <time>2021-02-07T11:53:31Z</time>
      </trkpt>
      <trkpt lat="43.4045" lon="3.66913">
        <ele>129.1</ele>
        <time>2021-02-07T11:53:36Z</time>
      </trkpt>
      <trkpt lat="43.40452" lon="3.66906">
        <ele>128</ele>
        <time>2021-02-07T11:53:42Z</time>
      </trkpt>
      <trkpt lat="43.40453" lon="3.66899">
        <ele>127.2</ele>
        <time>2021-02-07T11:53:48Z</time>
      </trkpt>
      <trkpt lat="43.40454" lon="3.66892">
        <ele>126.9</ele>
        <time>2021-02-07T11:53:53Z</time>
      </trkpt>
      <trkpt lat="43.40454" lon="3.66885">
        <ele>126.4</ele>
        <time>2021-02-07T11:53:58Z</time>
      </trkpt>
      <trkpt lat="43.40455" lon="3.66878">
        <ele>125.7</ele>
        <time>2021-02-07T11:54:03Z</time>
      </trkpt>
      <trkpt lat="43.40455" lon="3.66871">
        <ele>126</ele>
        <time>2021-02-07T11:54:06Z</time>
      </trkpt>
      <trkpt lat="43.40456" lon="3.66864">
        <ele>125.3</ele>
        <time>2021-02-07T11:54:11Z</time>
      </trkpt>
      <trkpt lat="43.40457" lon="3.66857">
        <ele>124.9</ele>
        <time>2021-02-07T11:54:16Z</time>
      </trkpt>
      <trkpt lat="43.40461" lon="3.66854">
        <ele>124.5</ele>
        <time>2021-02-07T11:54:21Z</time>
      </trkpt>
      <trkpt lat="43.40465" lon="3.66857">
        <ele>124.1</ele>
        <time>2021-02-07T11:54:26Z</time>
      </trkpt>
      <trkpt lat="43.4047" lon="3.66859">
        <ele>123</ele>
        <time>2021-02-07T11:54:34Z</time>
      </trkpt>
      <trkpt lat="43.40474" lon="3.66863">
        <ele>122.7</ele>
        <time>2021-02-07T11:54:38Z</time>
      </trkpt>
      <trkpt lat="43.40478" lon="3.66859">
        <ele>121.6</ele>
        <time>2021-02-07T11:54:46Z</time>
      </trkpt>
      <trkpt lat="43.40481" lon="3.66854">
        <ele>119.5</ele>
        <time>2021-02-07T11:54:57Z</time>
      </trkpt>
      <trkpt lat="43.40479" lon="3.66848">
        <ele>117.8</ele>
        <time>2021-02-07T11:55:04Z</time>
      </trkpt>
      <trkpt lat="43.4048" lon="3.66842">
        <ele>116.8</ele>
        <time>2021-02-07T11:55:10Z</time>
      </trkpt>
      <trkpt lat="43.40485" lon="3.66847">
        <ele>116.2</ele>
        <time>2021-02-07T11:55:15Z</time>
      </trkpt>
      <trkpt lat="43.40489" lon="3.66852">
        <ele>115.5</ele>
        <time>2021-02-07T11:55:19Z</time>
      </trkpt>
      <trkpt lat="43.40493" lon="3.66855">
        <ele>114.8</ele>
        <time>2021-02-07T11:55:24Z</time>
      </trkpt>
      <trkpt lat="43.40489" lon="3.66859">
        <ele>113.8</ele>
        <time>2021-02-07T11:55:35Z</time>
      </trkpt>
      <trkpt lat="43.40493" lon="3.66863">
        <ele>109.8</ele>
        <time>2021-02-07T11:56:50Z</time>
      </trkpt>
      <trkpt lat="43.40498" lon="3.66862">
        <ele>108.8</ele>
        <time>2021-02-07T11:56:55Z</time>
      </trkpt>
      <trkpt lat="43.40502" lon="3.66865">
        <ele>107.7</ele>
        <time>2021-02-07T11:57:01Z</time>
      </trkpt>
      <trkpt lat="43.40507" lon="3.66869">
        <ele>107</ele>
        <time>2021-02-07T11:57:06Z</time>
      </trkpt>
      <trkpt lat="43.40509" lon="3.66875">
        <ele>106.2</ele>
        <time>2021-02-07T11:57:11Z</time>
      </trkpt>
      <trkpt lat="43.40507" lon="3.66881">
        <ele>104.9</ele>
        <time>2021-02-07T11:57:15Z</time>
      </trkpt>
      <trkpt lat="43.40508" lon="3.66888">
        <ele>103.1</ele>
        <time>2021-02-07T11:57:22Z</time>
      </trkpt>
      <trkpt lat="43.4051" lon="3.66894">
        <ele>102.2</ele>
        <time>2021-02-07T11:57:29Z</time>
      </trkpt>
      <trkpt lat="43.40513" lon="3.669">
        <ele>101.4</ele>
        <time>2021-02-07T11:57:34Z</time>
      </trkpt>
      <trkpt lat="43.40515" lon="3.66907">
        <ele>101.1</ele>
        <time>2021-02-07T11:57:39Z</time>
      </trkpt>
      <trkpt lat="43.40518" lon="3.66913">
        <ele>101</ele>
        <time>2021-02-07T11:57:43Z</time>
      </trkpt>
      <trkpt lat="43.40519" lon="3.6692">
        <ele>100.6</ele>
        <time>2021-02-07T11:57:48Z</time>
      </trkpt>
      <trkpt lat="43.4052" lon="3.66927">
        <ele>99.8</ele>
        <time>2021-02-07T11:57:54Z</time>
      </trkpt>
      <trkpt lat="43.40522" lon="3.66933">
        <ele>99.7</ele>
        <time>2021-02-07T11:57:58Z</time>
      </trkpt>
      <trkpt lat="43.40522" lon="3.66939">
        <ele>99.3</ele>
        <time>2021-02-07T11:58:03Z</time>
      </trkpt>
      <trkpt lat="43.40522" lon="3.66945">
        <ele>98.4</ele>
        <time>2021-02-07T11:58:08Z</time>
      </trkpt>
      <trkpt lat="43.40523" lon="3.66938">
        <ele>96.3</ele>
        <time>2021-02-07T11:58:17Z</time>
      </trkpt>
      <trkpt lat="43.40524" lon="3.66931">
        <ele>95.4</ele>
        <time>2021-02-07T11:58:22Z</time>
      </trkpt>
      <trkpt lat="43.40524" lon="3.66924">
        <ele>94.5</ele>
        <time>2021-02-07T11:58:27Z</time>
      </trkpt>
      <trkpt lat="43.40524" lon="3.66918">
        <ele>93.6</ele>
        <time>2021-02-07T11:58:32Z</time>
      </trkpt>
      <trkpt lat="43.40524" lon="3.66911">
        <ele>92.9</ele>
        <time>2021-02-07T11:58:37Z</time>
      </trkpt>
      <trkpt lat="43.40529" lon="3.6691">
        <ele>92.1</ele>
        <time>2021-02-07T11:58:45Z</time>
      </trkpt>
      <trkpt lat="43.4053" lon="3.66917">
        <ele>91.9</ele>
        <time>2021-02-07T11:58:49Z</time>
      </trkpt>
      <trkpt lat="43.40532" lon="3.66924">
        <ele>91.7</ele>
        <time>2021-02-07T11:58:52Z</time>
      </trkpt>
      <trkpt lat="43.40533" lon="3.66931">
        <ele>91.4</ele>
        <time>2021-02-07T11:58:56Z</time>
      </trkpt>
      <trkpt lat="43.40536" lon="3.66937">
        <ele>91.2</ele>
        <time>2021-02-07T11:59:01Z</time>
      </trkpt>
      <trkpt lat="43.40539" lon="3.66943">
        <ele>90.9</ele>
        <time>2021-02-07T11:59:07Z</time>
      </trkpt>
      <trkpt lat="43.4054" lon="3.66949">
        <ele>90.3</ele>
        <time>2021-02-07T11:59:11Z</time>
      </trkpt>
      <trkpt lat="43.4054" lon="3.66956">
        <ele>89.5</ele>
        <time>2021-02-07T11:59:15Z</time>
      </trkpt>
      <trkpt lat="43.40541" lon="3.66963">
        <ele>88.4</ele>
        <time>2021-02-07T11:59:20Z</time>
      </trkpt>
      <trkpt lat="43.40539" lon="3.66969">
        <ele>87.7</ele>
        <time>2021-02-07T11:59:43Z</time>
      </trkpt>
      <trkpt lat="43.40541" lon="3.66975">
        <ele>87.3</ele>
        <time>2021-02-07T11:59:47Z</time>
      </trkpt>
      <trkpt lat="43.40543" lon="3.66981">
        <ele>87.1</ele>
        <time>2021-02-07T11:59:51Z</time>
      </trkpt>
      <trkpt lat="43.40544" lon="3.66989">
        <ele>87.5</ele>
        <time>2021-02-07T11:59:55Z</time>
      </trkpt>
      <trkpt lat="43.40544" lon="3.66996">
        <ele>87.5</ele>
        <time>2021-02-07T11:59:59Z</time>
      </trkpt>
      <trkpt lat="43.40546" lon="3.67002">
        <ele>87.2</ele>
        <time>2021-02-07T12:00:05Z</time>
      </trkpt>
      <trkpt lat="43.40548" lon="3.67009">
        <ele>86.3</ele>
        <time>2021-02-07T12:00:10Z</time>
      </trkpt>
      <trkpt lat="43.4055" lon="3.67015">
        <ele>85.6</ele>
        <time>2021-02-07T12:00:13Z</time>
      </trkpt>
      <trkpt lat="43.40551" lon="3.67022">
        <ele>85</ele>
        <time>2021-02-07T12:00:16Z</time>
      </trkpt>
      <trkpt lat="43.40553" lon="3.6703">
        <ele>84.1</ele>
        <time>2021-02-07T12:00:20Z</time>
      </trkpt>
      <trkpt lat="43.40554" lon="3.67036">
        <ele>83.8</ele>
        <time>2021-02-07T12:00:23Z</time>
      </trkpt>
      <trkpt lat="43.40556" lon="3.67042">
        <ele>83.4</ele>
        <time>2021-02-07T12:00:26Z</time>
      </trkpt>
      <trkpt lat="43.40558" lon="3.67049">
        <ele>83.2</ele>
        <time>2021-02-07T12:00:30Z</time>
      </trkpt>
      <trkpt lat="43.4056" lon="3.67055">
        <ele>83.1</ele>
        <time>2021-02-07T12:00:34Z</time>
      </trkpt>
      <trkpt lat="43.40562" lon="3.67062">
        <ele>83.3</ele>
        <time>2021-02-07T12:00:37Z</time>
      </trkpt>
      <trkpt lat="43.40564" lon="3.67068">
        <ele>83.1</ele>
        <time>2021-02-07T12:00:41Z</time>
      </trkpt>
      <trkpt lat="43.40566" lon="3.67074">
        <ele>82.9</ele>
        <time>2021-02-07T12:00:45Z</time>
      </trkpt>
      <trkpt lat="43.40567" lon="3.67082">
        <ele>82.5</ele>
        <time>2021-02-07T12:00:50Z</time>
      </trkpt>
      <trkpt lat="43.40568" lon="3.67089">
        <ele>82.2</ele>
        <time>2021-02-07T12:00:54Z</time>
      </trkpt>
      <trkpt lat="43.40569" lon="3.67096">
        <ele>81.8</ele>
        <time>2021-02-07T12:00:58Z</time>
      </trkpt>
      <trkpt lat="43.4057" lon="3.67103">
        <ele>81.4</ele>
        <time>2021-02-07T12:01:03Z</time>
      </trkpt>
      <trkpt lat="43.4057" lon="3.67109">
        <ele>80.8</ele>
        <time>2021-02-07T12:01:08Z</time>
      </trkpt>
      <trkpt lat="43.40571" lon="3.67116">
        <ele>80.6</ele>
        <time>2021-02-07T12:01:12Z</time>
      </trkpt>
      <trkpt lat="43.40571" lon="3.67122">
        <ele>80.4</ele>
        <time>2021-02-07T12:01:19Z</time>
      </trkpt>
      <trkpt lat="43.40571" lon="3.67129">
        <ele>80.2</ele>
        <time>2021-02-07T12:01:25Z</time>
      </trkpt>
      <trkpt lat="43.40572" lon="3.67136">
        <ele>80.2</ele>
        <time>2021-02-07T12:01:29Z</time>
      </trkpt>
      <trkpt lat="43.40574" lon="3.67141">
        <ele>81.8</ele>
        <time>2021-02-07T12:01:33Z</time>
      </trkpt>
      <trkpt lat="43.40576" lon="3.67148">
        <ele>82.3</ele>
        <time>2021-02-07T12:01:37Z</time>
      </trkpt>
      <trkpt lat="43.40577" lon="3.67155">
        <ele>81.6</ele>
        <time>2021-02-07T12:01:41Z</time>
      </trkpt>
      <trkpt lat="43.40578" lon="3.67162">
        <ele>81</ele>
        <time>2021-02-07T12:01:45Z</time>
      </trkpt>
      <trkpt lat="43.40579" lon="3.67169">
        <ele>80.9</ele>
        <time>2021-02-07T12:01:48Z</time>
      </trkpt>
      <trkpt lat="43.40581" lon="3.67175">
        <ele>81.6</ele>
        <time>2021-02-07T12:01:51Z</time>
      </trkpt>
      <trkpt lat="43.40582" lon="3.67182">
        <ele>81.9</ele>
        <time>2021-02-07T12:01:56Z</time>
      </trkpt>
      <trkpt lat="43.40583" lon="3.67189">
        <ele>81.4</ele>
        <time>2021-02-07T12:02:01Z</time>
      </trkpt>
      <trkpt lat="43.40583" lon="3.67195">
        <ele>81</ele>
        <time>2021-02-07T12:02:05Z</time>
      </trkpt>
      <trkpt lat="43.40582" lon="3.67202">
        <ele>80.5</ele>
        <time>2021-02-07T12:02:09Z</time>
      </trkpt>
      <trkpt lat="43.40583" lon="3.67209">
        <ele>80.1</ele>
        <time>2021-02-07T12:02:13Z</time>
      </trkpt>
      <trkpt lat="43.40585" lon="3.67217">
        <ele>80.2</ele>
        <time>2021-02-07T12:02:17Z</time>
      </trkpt>
      <trkpt lat="43.40587" lon="3.67224">
        <ele>80.1</ele>
        <time>2021-02-07T12:02:21Z</time>
      </trkpt>
      <trkpt lat="43.40588" lon="3.6723">
        <ele>79.9</ele>
        <time>2021-02-07T12:02:25Z</time>
      </trkpt>
      <trkpt lat="43.40588" lon="3.67237">
        <ele>80.4</ele>
        <time>2021-02-07T12:02:29Z</time>
      </trkpt>
      <trkpt lat="43.40588" lon="3.67245">
        <ele>80.4</ele>
        <time>2021-02-07T12:02:33Z</time>
      </trkpt>
      <trkpt lat="43.40589" lon="3.67252">
        <ele>80</ele>
        <time>2021-02-07T12:02:38Z</time>
      </trkpt>
      <trkpt lat="43.40592" lon="3.67259">
        <ele>80.2</ele>
        <time>2021-02-07T12:02:42Z</time>
      </trkpt>
      <trkpt lat="43.40593" lon="3.67267">
        <ele>80.8</ele>
        <time>2021-02-07T12:02:45Z</time>
      </trkpt>
      <trkpt lat="43.40597" lon="3.67271">
        <ele>80.2</ele>
        <time>2021-02-07T12:02:55Z</time>
      </trkpt>
      <trkpt lat="43.406" lon="3.67276">
        <ele>80.6</ele>
        <time>2021-02-07T12:03:00Z</time>
      </trkpt>
      <trkpt lat="43.40604" lon="3.67281">
        <ele>81.1</ele>
        <time>2021-02-07T12:03:05Z</time>
      </trkpt>
      <trkpt lat="43.40607" lon="3.67287">
        <ele>81</ele>
        <time>2021-02-07T12:03:10Z</time>
      </trkpt>
      <trkpt lat="43.4061" lon="3.67294">
        <ele>80.8</ele>
        <time>2021-02-07T12:03:14Z</time>
      </trkpt>
      <trkpt lat="43.40612" lon="3.673">
        <ele>81.6</ele>
        <time>2021-02-07T12:03:17Z</time>
      </trkpt>
      <trkpt lat="43.40615" lon="3.67307">
        <ele>81.7</ele>
        <time>2021-02-07T12:03:20Z</time>
      </trkpt>
      <trkpt lat="43.40617" lon="3.67314">
        <ele>81</ele>
        <time>2021-02-07T12:03:25Z</time>
      </trkpt>
      <trkpt lat="43.40619" lon="3.6732">
        <ele>81.1</ele>
        <time>2021-02-07T12:03:29Z</time>
      </trkpt>
      <trkpt lat="43.40623" lon="3.67325">
        <ele>80.9</ele>
        <time>2021-02-07T12:03:34Z</time>
      </trkpt>
      <trkpt lat="43.40625" lon="3.67331">
        <ele>80.7</ele>
        <time>2021-02-07T12:03:38Z</time>
      </trkpt>
      <trkpt lat="43.40628" lon="3.67337">
        <ele>81.1</ele>
        <time>2021-02-07T12:03:42Z</time>
      </trkpt>
      <trkpt lat="43.4063" lon="3.67344">
        <ele>81.5</ele>
        <time>2021-02-07T12:03:46Z</time>
      </trkpt>
      <trkpt lat="43.40632" lon="3.6735">
        <ele>82</ele>
        <time>2021-02-07T12:03:49Z</time>
      </trkpt>
      <trkpt lat="43.40635" lon="3.67357">
        <ele>82.3</ele>
        <time>2021-02-07T12:03:52Z</time>
      </trkpt>
      <trkpt lat="43.40637" lon="3.67363">
        <ele>82.4</ele>
        <time>2021-02-07T12:03:56Z</time>
      </trkpt>
      <trkpt lat="43.40639" lon="3.67369">
        <ele>82.6</ele>
        <time>2021-02-07T12:04:00Z</time>
      </trkpt>
      <trkpt lat="43.4064" lon="3.67375">
        <ele>82.3</ele>
        <time>2021-02-07T12:04:04Z</time>
      </trkpt>
      <trkpt lat="43.4064" lon="3.67382">
        <ele>81.3</ele>
        <time>2021-02-07T12:04:09Z</time>
      </trkpt>
      <trkpt lat="43.40641" lon="3.6739">
        <ele>80.9</ele>
        <time>2021-02-07T12:04:13Z</time>
      </trkpt>
      <trkpt lat="43.40641" lon="3.67397">
        <ele>80.7</ele>
        <time>2021-02-07T12:04:17Z</time>
      </trkpt>
      <trkpt lat="43.40642" lon="3.67404">
        <ele>80.2</ele>
        <time>2021-02-07T12:04:21Z</time>
      </trkpt>
      <trkpt lat="43.40644" lon="3.67411">
        <ele>80.2</ele>
        <time>2021-02-07T12:04:25Z</time>
      </trkpt>
      <trkpt lat="43.40646" lon="3.67418">
        <ele>80.2</ele>
        <time>2021-02-07T12:04:28Z</time>
      </trkpt>
      <trkpt lat="43.40647" lon="3.67425">
        <ele>80</ele>
        <time>2021-02-07T12:04:32Z</time>
      </trkpt>
      <trkpt lat="43.40647" lon="3.67432">
        <ele>79.7</ele>
        <time>2021-02-07T12:04:36Z</time>
      </trkpt>
      <trkpt lat="43.40649" lon="3.67438">
        <ele>79.6</ele>
        <time>2021-02-07T12:04:39Z</time>
      </trkpt>
      <trkpt lat="43.4065" lon="3.67445">
        <ele>79.4</ele>
        <time>2021-02-07T12:04:43Z</time>
      </trkpt>
      <trkpt lat="43.40651" lon="3.67452">
        <ele>79.3</ele>
        <time>2021-02-07T12:04:47Z</time>
      </trkpt>
      <trkpt lat="43.40652" lon="3.6746">
        <ele>79.4</ele>
        <time>2021-02-07T12:04:51Z</time>
      </trkpt>
      <trkpt lat="43.40653" lon="3.67468">
        <ele>79.4</ele>
        <time>2021-02-07T12:04:55Z</time>
      </trkpt>
      <trkpt lat="43.40654" lon="3.67475">
        <ele>79.3</ele>
        <time>2021-02-07T12:04:59Z</time>
      </trkpt>
      <trkpt lat="43.40655" lon="3.67482">
        <ele>79.1</ele>
        <time>2021-02-07T12:05:03Z</time>
      </trkpt>
      <trkpt lat="43.40657" lon="3.67488">
        <ele>79</ele>
        <time>2021-02-07T12:05:07Z</time>
      </trkpt>
      <trkpt lat="43.40658" lon="3.67494">
        <ele>78.9</ele>
        <time>2021-02-07T12:05:11Z</time>
      </trkpt>
      <trkpt lat="43.40659" lon="3.67502">
        <ele>78.7</ele>
        <time>2021-02-07T12:05:15Z</time>
      </trkpt>
      <trkpt lat="43.4066" lon="3.67508">
        <ele>78.6</ele>
        <time>2021-02-07T12:05:18Z</time>
      </trkpt>
      <trkpt lat="43.40661" lon="3.67516">
        <ele>78.5</ele>
        <time>2021-02-07T12:05:22Z</time>
      </trkpt>
      <trkpt lat="43.40661" lon="3.67523">
        <ele>77.9</ele>
        <time>2021-02-07T12:05:27Z</time>
      </trkpt>
      <trkpt lat="43.40662" lon="3.67531">
        <ele>78.1</ele>
        <time>2021-02-07T12:05:31Z</time>
      </trkpt>
      <trkpt lat="43.40662" lon="3.67537">
        <ele>78.1</ele>
        <time>2021-02-07T12:05:34Z</time>
      </trkpt>
      <trkpt lat="43.4066" lon="3.67543">
        <ele>78.3</ele>
        <time>2021-02-07T12:05:37Z</time>
      </trkpt>
      <trkpt lat="43.40659" lon="3.67549">
        <ele>78.6</ele>
        <time>2021-02-07T12:05:40Z</time>
      </trkpt>
      <trkpt lat="43.40656" lon="3.67555">
        <ele>79.1</ele>
        <time>2021-02-07T12:05:44Z</time>
      </trkpt>
      <trkpt lat="43.40653" lon="3.6756">
        <ele>79.2</ele>
        <time>2021-02-07T12:05:49Z</time>
      </trkpt>
      <trkpt lat="43.40651" lon="3.67566">
        <ele>79.5</ele>
        <time>2021-02-07T12:05:53Z</time>
      </trkpt>
      <trkpt lat="43.40647" lon="3.67571">
        <ele>79.2</ele>
        <time>2021-02-07T12:05:58Z</time>
      </trkpt>
      <trkpt lat="43.40644" lon="3.67578">
        <ele>79.6</ele>
        <time>2021-02-07T12:06:02Z</time>
      </trkpt>
      <trkpt lat="43.40642" lon="3.67584">
        <ele>79.9</ele>
        <time>2021-02-07T12:06:06Z</time>
      </trkpt>
      <trkpt lat="43.40639" lon="3.67591">
        <ele>79.5</ele>
        <time>2021-02-07T12:06:12Z</time>
      </trkpt>
      <trkpt lat="43.40637" lon="3.67597">
        <ele>79.2</ele>
        <time>2021-02-07T12:06:16Z</time>
      </trkpt>
      <trkpt lat="43.40635" lon="3.67604">
        <ele>78.9</ele>
        <time>2021-02-07T12:06:20Z</time>
      </trkpt>
      <trkpt lat="43.40633" lon="3.6761">
        <ele>78.8</ele>
        <time>2021-02-07T12:06:24Z</time>
      </trkpt>
      <trkpt lat="43.4063" lon="3.67616">
        <ele>78.6</ele>
        <time>2021-02-07T12:06:28Z</time>
      </trkpt>
      <trkpt lat="43.40628" lon="3.67623">
        <ele>78.2</ele>
        <time>2021-02-07T12:06:33Z</time>
      </trkpt>
      <trkpt lat="43.40626" lon="3.67629">
        <ele>77.8</ele>
        <time>2021-02-07T12:06:37Z</time>
      </trkpt>
      <trkpt lat="43.40625" lon="3.67635">
        <ele>77.5</ele>
        <time>2021-02-07T12:06:41Z</time>
      </trkpt>
      <trkpt lat="43.40624" lon="3.67642">
        <ele>77.1</ele>
        <time>2021-02-07T12:06:45Z</time>
      </trkpt>
      <trkpt lat="43.40624" lon="3.67648">
        <ele>76.7</ele>
        <time>2021-02-07T12:06:49Z</time>
      </trkpt>
      <trkpt lat="43.40625" lon="3.67654">
        <ele>76.3</ele>
        <time>2021-02-07T12:06:53Z</time>
      </trkpt>
      <trkpt lat="43.40629" lon="3.6766">
        <ele>76.4</ele>
        <time>2021-02-07T12:06:58Z</time>
      </trkpt>
      <trkpt lat="43.40632" lon="3.67666">
        <ele>76.9</ele>
        <time>2021-02-07T12:07:03Z</time>
      </trkpt>
      <trkpt lat="43.40632" lon="3.67674">
        <ele>76.9</ele>
        <time>2021-02-07T12:07:08Z</time>
      </trkpt>
      <trkpt lat="43.40634" lon="3.6768">
        <ele>77</ele>
        <time>2021-02-07T12:07:11Z</time>
      </trkpt>
      <trkpt lat="43.40636" lon="3.67686">
        <ele>77.1</ele>
        <time>2021-02-07T12:07:14Z</time>
      </trkpt>
      <trkpt lat="43.40638" lon="3.67693">
        <ele>77.1</ele>
        <time>2021-02-07T12:07:18Z</time>
      </trkpt>
      <trkpt lat="43.40641" lon="3.67698">
        <ele>77</ele>
        <time>2021-02-07T12:07:22Z</time>
      </trkpt>
      <trkpt lat="43.40642" lon="3.67705">
        <ele>76.6</ele>
        <time>2021-02-07T12:07:28Z</time>
      </trkpt>
      <trkpt lat="43.40643" lon="3.67713">
        <ele>76.4</ele>
        <time>2021-02-07T12:07:33Z</time>
      </trkpt>
      <trkpt lat="43.40645" lon="3.67719">
        <ele>76.4</ele>
        <time>2021-02-07T12:07:36Z</time>
      </trkpt>
      <trkpt lat="43.40647" lon="3.67724">
        <ele>76.1</ele>
        <time>2021-02-07T12:07:40Z</time>
      </trkpt>
      <trkpt lat="43.40649" lon="3.6773">
        <ele>75.7</ele>
        <time>2021-02-07T12:07:44Z</time>
      </trkpt>
      <trkpt lat="43.40651" lon="3.67736">
        <ele>75.5</ele>
        <time>2021-02-07T12:07:48Z</time>
      </trkpt>
      <trkpt lat="43.40654" lon="3.67743">
        <ele>74.7</ele>
        <time>2021-02-07T12:07:53Z</time>
      </trkpt>
      <trkpt lat="43.40656" lon="3.6775">
        <ele>74</ele>
        <time>2021-02-07T12:07:58Z</time>
      </trkpt>
      <trkpt lat="43.40658" lon="3.67757">
        <ele>73.6</ele>
        <time>2021-02-07T12:08:02Z</time>
      </trkpt>
      <trkpt lat="43.4066" lon="3.67763">
        <ele>73.1</ele>
        <time>2021-02-07T12:08:06Z</time>
      </trkpt>
      <trkpt lat="43.40661" lon="3.6777">
        <ele>72.8</ele>
        <time>2021-02-07T12:08:10Z</time>
      </trkpt>
      <trkpt lat="43.40661" lon="3.67778">
        <ele>72.4</ele>
        <time>2021-02-07T12:08:14Z</time>
      </trkpt>
      <trkpt lat="43.40661" lon="3.67785">
        <ele>71.9</ele>
        <time>2021-02-07T12:08:18Z</time>
      </trkpt>
      <trkpt lat="43.40659" lon="3.67792">
        <ele>71</ele>
        <time>2021-02-07T12:08:23Z</time>
      </trkpt>
      <trkpt lat="43.40659" lon="3.67799">
        <ele>71.5</ele>
        <time>2021-02-07T12:08:27Z</time>
      </trkpt>
      <trkpt lat="43.40659" lon="3.67807">
        <ele>71.7</ele>
        <time>2021-02-07T12:08:31Z</time>
      </trkpt>
      <trkpt lat="43.40659" lon="3.67815">
        <ele>72.1</ele>
        <time>2021-02-07T12:08:35Z</time>
      </trkpt>
      <trkpt lat="43.40659" lon="3.67822">
        <ele>72.4</ele>
        <time>2021-02-07T12:08:38Z</time>
      </trkpt>
      <trkpt lat="43.40661" lon="3.67828">
        <ele>72.7</ele>
        <time>2021-02-07T12:08:41Z</time>
      </trkpt>
      <trkpt lat="43.40663" lon="3.67834">
        <ele>72.8</ele>
        <time>2021-02-07T12:08:45Z</time>
      </trkpt>
      <trkpt lat="43.40665" lon="3.6784">
        <ele>72.7</ele>
        <time>2021-02-07T12:08:49Z</time>
      </trkpt>
      <trkpt lat="43.40668" lon="3.67846">
        <ele>72.6</ele>
        <time>2021-02-07T12:08:54Z</time>
      </trkpt>
      <trkpt lat="43.4067" lon="3.67852">
        <ele>72.4</ele>
        <time>2021-02-07T12:08:59Z</time>
      </trkpt>
      <trkpt lat="43.40673" lon="3.67857">
        <ele>72.3</ele>
        <time>2021-02-07T12:09:03Z</time>
      </trkpt>
      <trkpt lat="43.40675" lon="3.67864">
        <ele>72.1</ele>
        <time>2021-02-07T12:09:07Z</time>
      </trkpt>
      <trkpt lat="43.40677" lon="3.6787">
        <ele>71.7</ele>
        <time>2021-02-07T12:09:11Z</time>
      </trkpt>
      <trkpt lat="43.40677" lon="3.67877">
        <ele>71.5</ele>
        <time>2021-02-07T12:09:15Z</time>
      </trkpt>
      <trkpt lat="43.40678" lon="3.67884">
        <ele>71</ele>
        <time>2021-02-07T12:09:20Z</time>
      </trkpt>
      <trkpt lat="43.40679" lon="3.67891">
        <ele>70.7</ele>
        <time>2021-02-07T12:09:24Z</time>
      </trkpt>
      <trkpt lat="43.4068" lon="3.67898">
        <ele>71.6</ele>
        <time>2021-02-07T12:09:27Z</time>
      </trkpt>
      <trkpt lat="43.40681" lon="3.67904">
        <ele>72.1</ele>
        <time>2021-02-07T12:09:30Z</time>
      </trkpt>
      <trkpt lat="43.40683" lon="3.67912">
        <ele>72.4</ele>
        <time>2021-02-07T12:09:34Z</time>
      </trkpt>
      <trkpt lat="43.40685" lon="3.67919">
        <ele>72.4</ele>
        <time>2021-02-07T12:09:39Z</time>
      </trkpt>
      <trkpt lat="43.40687" lon="3.67924">
        <ele>71.8</ele>
        <time>2021-02-07T12:09:44Z</time>
      </trkpt>
      <trkpt lat="43.40688" lon="3.6793">
        <ele>71.3</ele>
        <time>2021-02-07T12:09:51Z</time>
      </trkpt>
      <trkpt lat="43.40691" lon="3.67935">
        <ele>70.9</ele>
        <time>2021-02-07T12:09:58Z</time>
      </trkpt>
      <trkpt lat="43.40695" lon="3.67939">
        <ele>70.6</ele>
        <time>2021-02-07T12:10:03Z</time>
      </trkpt>
      <trkpt lat="43.40698" lon="3.67945">
        <ele>69.8</ele>
        <time>2021-02-07T12:10:08Z</time>
      </trkpt>
      <trkpt lat="43.40701" lon="3.67951">
        <ele>69</ele>
        <time>2021-02-07T12:10:13Z</time>
      </trkpt>
      <trkpt lat="43.40704" lon="3.67957">
        <ele>68.1</ele>
        <time>2021-02-07T12:10:18Z</time>
      </trkpt>
      <trkpt lat="43.40708" lon="3.67962">
        <ele>67.4</ele>
        <time>2021-02-07T12:10:22Z</time>
      </trkpt>
      <trkpt lat="43.40711" lon="3.67965">
        <ele>66.3</ele>
        <time>2021-02-07T12:10:26Z</time>
      </trkpt>
      <trkpt lat="43.40714" lon="3.67971">
        <ele>65.2</ele>
        <time>2021-02-07T12:10:31Z</time>
      </trkpt>
      <trkpt lat="43.40716" lon="3.67976">
        <ele>64.5</ele>
        <time>2021-02-07T12:10:35Z</time>
      </trkpt>
      <trkpt lat="43.40717" lon="3.67983">
        <ele>63.9</ele>
        <time>2021-02-07T12:10:39Z</time>
      </trkpt>
      <trkpt lat="43.40716" lon="3.67989">
        <ele>63.5</ele>
        <time>2021-02-07T12:10:42Z</time>
      </trkpt>
      <trkpt lat="43.40715" lon="3.67997">
        <ele>62.8</ele>
        <time>2021-02-07T12:10:46Z</time>
      </trkpt>
      <trkpt lat="43.40714" lon="3.68004">
        <ele>62.2</ele>
        <time>2021-02-07T12:10:50Z</time>
      </trkpt>
      <trkpt lat="43.40714" lon="3.6801">
        <ele>61.7</ele>
        <time>2021-02-07T12:10:54Z</time>
      </trkpt>
      <trkpt lat="43.40714" lon="3.68017">
        <ele>61.2</ele>
        <time>2021-02-07T12:10:58Z</time>
      </trkpt>
      <trkpt lat="43.40713" lon="3.68023">
        <ele>60.7</ele>
        <time>2021-02-07T12:11:02Z</time>
      </trkpt>
      <trkpt lat="43.40713" lon="3.6803">
        <ele>60.4</ele>
        <time>2021-02-07T12:11:06Z</time>
      </trkpt>
      <trkpt lat="43.40714" lon="3.68037">
        <ele>60.4</ele>
        <time>2021-02-07T12:11:10Z</time>
      </trkpt>
      <trkpt lat="43.40715" lon="3.68044">
        <ele>60.2</ele>
        <time>2021-02-07T12:11:14Z</time>
      </trkpt>
      <trkpt lat="43.40714" lon="3.68052">
        <ele>60.2</ele>
        <time>2021-02-07T12:11:18Z</time>
      </trkpt>
      <trkpt lat="43.40713" lon="3.68058">
        <ele>60.1</ele>
        <time>2021-02-07T12:11:21Z</time>
      </trkpt>
      <trkpt lat="43.40711" lon="3.68064">
        <ele>60.2</ele>
        <time>2021-02-07T12:11:24Z</time>
      </trkpt>
      <trkpt lat="43.40707" lon="3.68067">
        <ele>60.2</ele>
        <time>2021-02-07T12:11:29Z</time>
      </trkpt>
      <trkpt lat="43.40702" lon="3.68065">
        <ele>58.5</ele>
        <time>2021-02-07T12:11:35Z</time>
      </trkpt>
      <trkpt lat="43.40697" lon="3.68064">
        <ele>58.4</ele>
        <time>2021-02-07T12:11:42Z</time>
      </trkpt>
      <trkpt lat="43.40692" lon="3.68064">
        <ele>58.9</ele>
        <time>2021-02-07T12:11:46Z</time>
      </trkpt>
      <trkpt lat="43.40687" lon="3.68065">
        <ele>59.5</ele>
        <time>2021-02-07T12:11:50Z</time>
      </trkpt>
      <trkpt lat="43.40682" lon="3.68065">
        <ele>59.7</ele>
        <time>2021-02-07T12:11:54Z</time>
      </trkpt>
      <trkpt lat="43.40677" lon="3.68064">
        <ele>59.4</ele>
        <time>2021-02-07T12:11:59Z</time>
      </trkpt>
      <trkpt lat="43.40672" lon="3.68064">
        <ele>57.3</ele>
        <time>2021-02-07T12:12:05Z</time>
      </trkpt>
      <trkpt lat="43.40667" lon="3.68064">
        <ele>56.8</ele>
        <time>2021-02-07T12:12:10Z</time>
      </trkpt>
      <trkpt lat="43.40662" lon="3.68064">
        <ele>56.9</ele>
        <time>2021-02-07T12:12:15Z</time>
      </trkpt>
      <trkpt lat="43.40657" lon="3.68063">
        <ele>57.8</ele>
        <time>2021-02-07T12:12:22Z</time>
      </trkpt>
      <trkpt lat="43.40652" lon="3.68063">
        <ele>59.4</ele>
        <time>2021-02-07T12:12:37Z</time>
      </trkpt>
      <trkpt lat="43.40647" lon="3.68063">
        <ele>60.6</ele>
        <time>2021-02-07T12:12:42Z</time>
      </trkpt>
      <trkpt lat="43.40643" lon="3.68062">
        <ele>62.1</ele>
        <time>2021-02-07T12:12:48Z</time>
      </trkpt>
      <trkpt lat="43.40638" lon="3.68063">
        <ele>63.9</ele>
        <time>2021-02-07T12:12:54Z</time>
      </trkpt>
      <trkpt lat="43.40634" lon="3.68063">
        <ele>66.1</ele>
        <time>2021-02-07T12:13:00Z</time>
      </trkpt>
      <trkpt lat="43.40629" lon="3.68064">
        <ele>68.3</ele>
        <time>2021-02-07T12:13:06Z</time>
      </trkpt>
      <trkpt lat="43.40624" lon="3.68064">
        <ele>70</ele>
        <time>2021-02-07T12:13:12Z</time>
      </trkpt>
      <trkpt lat="43.40621" lon="3.6806">
        <ele>74.3</ele>
        <time>2021-02-07T12:13:33Z</time>
      </trkpt>
      <trkpt lat="43.40615" lon="3.6806">
        <ele>75.4</ele>
        <time>2021-02-07T12:13:41Z</time>
      </trkpt>
      <trkpt lat="43.4061" lon="3.68062">
        <ele>76.9</ele>
        <time>2021-02-07T12:13:45Z</time>
      </trkpt>
      <trkpt lat="43.40607" lon="3.68058">
        <ele>78.1</ele>
        <time>2021-02-07T12:13:55Z</time>
      </trkpt>
      <trkpt lat="43.40602" lon="3.68059">
        <ele>81.3</ele>
        <time>2021-02-07T12:14:07Z</time>
      </trkpt>
      <trkpt lat="43.40596" lon="3.68058">
        <ele>83.2</ele>
        <time>2021-02-07T12:14:13Z</time>
      </trkpt>
      <trkpt lat="43.40594" lon="3.68052">
        <ele>85.4</ele>
        <time>2021-02-07T12:14:27Z</time>
      </trkpt>
      <trkpt lat="43.40589" lon="3.68052">
        <ele>87.2</ele>
        <time>2021-02-07T12:14:44Z</time>
      </trkpt>
      <trkpt lat="43.40584" lon="3.6805">
        <ele>89.1</ele>
        <time>2021-02-07T12:14:58Z</time>
      </trkpt>
      <trkpt lat="43.4058" lon="3.6805">
        <ele>91.3</ele>
        <time>2021-02-07T12:15:12Z</time>
      </trkpt>
      <trkpt lat="43.40574" lon="3.68051">
        <ele>93.3</ele>
        <time>2021-02-07T12:15:24Z</time>
      </trkpt>
      <trkpt lat="43.40569" lon="3.68052">
        <ele>93.6</ele>
        <time>2021-02-07T12:15:26Z</time>
      </trkpt>
      <trkpt lat="43.40565" lon="3.68052">
        <ele>94</ele>
        <time>2021-02-07T12:15:28Z</time>
      </trkpt>
      <trkpt lat="43.4056" lon="3.68052">
        <ele>94.4</ele>
        <time>2021-02-07T12:15:31Z</time>
      </trkpt>
      <trkpt lat="43.40555" lon="3.68052">
        <ele>95</ele>
        <time>2021-02-07T12:15:34Z</time>
      </trkpt>
      <trkpt lat="43.4055" lon="3.68051">
        <ele>95.9</ele>
        <time>2021-02-07T12:15:38Z</time>
      </trkpt>
      <trkpt lat="43.40545" lon="3.68051">
        <ele>97</ele>
        <time>2021-02-07T12:15:44Z</time>
      </trkpt>
      <trkpt lat="43.4054" lon="3.6805">
        <ele>98.8</ele>
        <time>2021-02-07T12:15:52Z</time>
      </trkpt>
      <trkpt lat="43.40536" lon="3.68052">
        <ele>102.9</ele>
        <time>2021-02-07T12:16:12Z</time>
      </trkpt>
      <trkpt lat="43.40531" lon="3.68052">
        <ele>103.3</ele>
        <time>2021-02-07T12:16:21Z</time>
      </trkpt>
      <trkpt lat="43.40526" lon="3.68051">
        <ele>103.4</ele>
        <time>2021-02-07T12:16:27Z</time>
      </trkpt>
      <trkpt lat="43.40522" lon="3.68053">
        <ele>104</ele>
        <time>2021-02-07T12:16:33Z</time>
      </trkpt>
      <trkpt lat="43.40518" lon="3.68057">
        <ele>105</ele>
        <time>2021-02-07T12:16:39Z</time>
      </trkpt>
      <trkpt lat="43.40515" lon="3.68061">
        <ele>110.7</ele>
        <time>2021-02-07T12:17:57Z</time>
      </trkpt>
      <trkpt lat="43.40514" lon="3.68068">
        <ele>111</ele>
        <time>2021-02-07T12:18:02Z</time>
      </trkpt>
      <trkpt lat="43.40512" lon="3.68074">
        <ele>111.2</ele>
        <time>2021-02-07T12:18:07Z</time>
      </trkpt>
      <trkpt lat="43.40511" lon="3.6808">
        <ele>111.3</ele>
        <time>2021-02-07T12:18:11Z</time>
      </trkpt>
      <trkpt lat="43.40509" lon="3.68088">
        <ele>110.8</ele>
        <time>2021-02-07T12:18:16Z</time>
      </trkpt>
      <trkpt lat="43.40508" lon="3.68094">
        <ele>110.6</ele>
        <time>2021-02-07T12:18:20Z</time>
      </trkpt>
      <trkpt lat="43.40509" lon="3.68101">
        <ele>109.6</ele>
        <time>2021-02-07T12:19:22Z</time>
      </trkpt>
      <trkpt lat="43.40507" lon="3.68108">
        <ele>109.5</ele>
        <time>2021-02-07T12:19:27Z</time>
      </trkpt>
      <trkpt lat="43.40505" lon="3.68114">
        <ele>109.5</ele>
        <time>2021-02-07T12:19:32Z</time>
      </trkpt>
      <trkpt lat="43.40503" lon="3.6812">
        <ele>109</ele>
        <time>2021-02-07T12:19:36Z</time>
      </trkpt>
      <trkpt lat="43.405" lon="3.68126">
        <ele>108.6</ele>
        <time>2021-02-07T12:19:43Z</time>
      </trkpt>
      <trkpt lat="43.40499" lon="3.68132">
        <ele>108.3</ele>
        <time>2021-02-07T12:19:48Z</time>
      </trkpt>
      <trkpt lat="43.40497" lon="3.68138">
        <ele>107.7</ele>
        <time>2021-02-07T12:19:53Z</time>
      </trkpt>
      <trkpt lat="43.40496" lon="3.68144">
        <ele>107.7</ele>
        <time>2021-02-07T12:19:58Z</time>
      </trkpt>
      <trkpt lat="43.40496" lon="3.68151">
        <ele>108</ele>
        <time>2021-02-07T12:20:03Z</time>
      </trkpt>
      <trkpt lat="43.40496" lon="3.68158">
        <ele>108.2</ele>
        <time>2021-02-07T12:20:09Z</time>
      </trkpt>
      <trkpt lat="43.40497" lon="3.68165">
        <ele>108.3</ele>
        <time>2021-02-07T12:20:14Z</time>
      </trkpt>
      <trkpt lat="43.40496" lon="3.68172">
        <ele>107.9</ele>
        <time>2021-02-07T12:20:19Z</time>
      </trkpt>
      <trkpt lat="43.40497" lon="3.68179">
        <ele>108</ele>
        <time>2021-02-07T12:20:24Z</time>
      </trkpt>
      <trkpt lat="43.40497" lon="3.68186">
        <ele>108.2</ele>
        <time>2021-02-07T12:20:29Z</time>
      </trkpt>
      <trkpt lat="43.40498" lon="3.68193">
        <ele>108.3</ele>
        <time>2021-02-07T12:20:34Z</time>
      </trkpt>
      <trkpt lat="43.40497" lon="3.68201">
        <ele>108.6</ele>
        <time>2021-02-07T12:20:39Z</time>
      </trkpt>
      <trkpt lat="43.40497" lon="3.68208">
        <ele>108.8</ele>
        <time>2021-02-07T12:20:44Z</time>
      </trkpt>
      <trkpt lat="43.40498" lon="3.68215">
        <ele>109.3</ele>
        <time>2021-02-07T12:20:49Z</time>
      </trkpt>
      <trkpt lat="43.40498" lon="3.68222">
        <ele>109.7</ele>
        <time>2021-02-07T12:20:54Z</time>
      </trkpt>
      <trkpt lat="43.40499" lon="3.68229">
        <ele>110</ele>
        <time>2021-02-07T12:20:59Z</time>
      </trkpt>
      <trkpt lat="43.40499" lon="3.68236">
        <ele>110.1</ele>
        <time>2021-02-07T12:21:04Z</time>
      </trkpt>
      <trkpt lat="43.405" lon="3.68243">
        <ele>110.3</ele>
        <time>2021-02-07T12:21:08Z</time>
      </trkpt>
      <trkpt lat="43.405" lon="3.68251">
        <ele>110.5</ele>
        <time>2021-02-07T12:21:13Z</time>
      </trkpt>
      <trkpt lat="43.40501" lon="3.68257">
        <ele>110.7</ele>
        <time>2021-02-07T12:21:17Z</time>
      </trkpt>
      <trkpt lat="43.40503" lon="3.68263">
        <ele>110.8</ele>
        <time>2021-02-07T12:21:21Z</time>
      </trkpt>
      <trkpt lat="43.40504" lon="3.68271">
        <ele>111.3</ele>
        <time>2021-02-07T12:21:25Z</time>
      </trkpt>
      <trkpt lat="43.40506" lon="3.68277">
        <ele>111.3</ele>
        <time>2021-02-07T12:21:31Z</time>
      </trkpt>
      <trkpt lat="43.40507" lon="3.68284">
        <ele>111</ele>
        <time>2021-02-07T12:21:36Z</time>
      </trkpt>
      <trkpt lat="43.40508" lon="3.6829">
        <ele>110.3</ele>
        <time>2021-02-07T12:21:41Z</time>
      </trkpt>
      <trkpt lat="43.40509" lon="3.68297">
        <ele>110</ele>
        <time>2021-02-07T12:21:45Z</time>
      </trkpt>
      <trkpt lat="43.40509" lon="3.68303">
        <ele>109.9</ele>
        <time>2021-02-07T12:21:54Z</time>
      </trkpt>
      <trkpt lat="43.40511" lon="3.6831">
        <ele>109.6</ele>
        <time>2021-02-07T12:22:02Z</time>
      </trkpt>
      <trkpt lat="43.40512" lon="3.68316">
        <ele>108.7</ele>
        <time>2021-02-07T12:22:09Z</time>
      </trkpt>
      <trkpt lat="43.40517" lon="3.68315">
        <ele>107.7</ele>
        <time>2021-02-07T12:22:18Z</time>
      </trkpt>
      <trkpt lat="43.4052" lon="3.6831">
        <ele>107.4</ele>
        <time>2021-02-07T12:22:22Z</time>
      </trkpt>
      <trkpt lat="43.40524" lon="3.68306">
        <ele>106.9</ele>
        <time>2021-02-07T12:22:28Z</time>
      </trkpt>
      <trkpt lat="43.40527" lon="3.68301">
        <ele>105.9</ele>
        <time>2021-02-07T12:22:34Z</time>
      </trkpt>
      <trkpt lat="43.40532" lon="3.68302">
        <ele>104.2</ele>
        <time>2021-02-07T12:22:44Z</time>
      </trkpt>
      <trkpt lat="43.40537" lon="3.68305">
        <ele>103</ele>
        <time>2021-02-07T12:22:51Z</time>
      </trkpt>
      <trkpt lat="43.40541" lon="3.68307">
        <ele>101.9</ele>
        <time>2021-02-07T12:22:58Z</time>
      </trkpt>
      <trkpt lat="43.40546" lon="3.68308">
        <ele>101.8</ele>
        <time>2021-02-07T12:23:04Z</time>
      </trkpt>
      <trkpt lat="43.40551" lon="3.68309">
        <ele>100.9</ele>
        <time>2021-02-07T12:23:10Z</time>
      </trkpt>
      <trkpt lat="43.40555" lon="3.68308">
        <ele>100.4</ele>
        <time>2021-02-07T12:23:16Z</time>
      </trkpt>
      <trkpt lat="43.4056" lon="3.68305">
        <ele>99.5</ele>
        <time>2021-02-07T12:23:21Z</time>
      </trkpt>
      <trkpt lat="43.40565" lon="3.68305">
        <ele>98</ele>
        <time>2021-02-07T12:23:27Z</time>
      </trkpt>
      <trkpt lat="43.40569" lon="3.68308">
        <ele>97.4</ele>
        <time>2021-02-07T12:23:31Z</time>
      </trkpt>
      <trkpt lat="43.40572" lon="3.68314">
        <ele>96.4</ele>
        <time>2021-02-07T12:23:35Z</time>
      </trkpt>
      <trkpt lat="43.40571" lon="3.68321">
        <ele>95.2</ele>
        <time>2021-02-07T12:23:39Z</time>
      </trkpt>
      <trkpt lat="43.4057" lon="3.68327">
        <ele>94.3</ele>
        <time>2021-02-07T12:23:43Z</time>
      </trkpt>
      <trkpt lat="43.40568" lon="3.68334">
        <ele>93.4</ele>
        <time>2021-02-07T12:23:47Z</time>
      </trkpt>
      <trkpt lat="43.40565" lon="3.68339">
        <ele>92.8</ele>
        <time>2021-02-07T12:23:50Z</time>
      </trkpt>
      <trkpt lat="43.40564" lon="3.68346">
        <ele>92</ele>
        <time>2021-02-07T12:23:54Z</time>
      </trkpt>
      <trkpt lat="43.40562" lon="3.68353">
        <ele>92</ele>
        <time>2021-02-07T12:23:58Z</time>
      </trkpt>
      <trkpt lat="43.40562" lon="3.6836">
        <ele>92</ele>
        <time>2021-02-07T12:24:02Z</time>
      </trkpt>
      <trkpt lat="43.40561" lon="3.68366">
        <ele>91.6</ele>
        <time>2021-02-07T12:24:06Z</time>
      </trkpt>
      <trkpt lat="43.4056" lon="3.68372">
        <ele>90.8</ele>
        <time>2021-02-07T12:24:10Z</time>
      </trkpt>
      <trkpt lat="43.4056" lon="3.68379">
        <ele>90.3</ele>
        <time>2021-02-07T12:24:14Z</time>
      </trkpt>
      <trkpt lat="43.40559" lon="3.68385">
        <ele>90</ele>
        <time>2021-02-07T12:24:18Z</time>
      </trkpt>
      <trkpt lat="43.40558" lon="3.68392">
        <ele>89.3</ele>
        <time>2021-02-07T12:24:22Z</time>
      </trkpt>
      <trkpt lat="43.40557" lon="3.68399">
        <ele>88.6</ele>
        <time>2021-02-07T12:24:26Z</time>
      </trkpt>
      <trkpt lat="43.40556" lon="3.68405">
        <ele>88.3</ele>
        <time>2021-02-07T12:24:30Z</time>
      </trkpt>
      <trkpt lat="43.40555" lon="3.68412">
        <ele>87.9</ele>
        <time>2021-02-07T12:24:34Z</time>
      </trkpt>
      <trkpt lat="43.40556" lon="3.68419">
        <ele>87.2</ele>
        <time>2021-02-07T12:24:39Z</time>
      </trkpt>
      <trkpt lat="43.40557" lon="3.68427">
        <ele>86.4</ele>
        <time>2021-02-07T12:24:44Z</time>
      </trkpt>
      <trkpt lat="43.40558" lon="3.68434">
        <ele>85.7</ele>
        <time>2021-02-07T12:24:49Z</time>
      </trkpt>
      <trkpt lat="43.40559" lon="3.68441">
        <ele>85.5</ele>
        <time>2021-02-07T12:24:53Z</time>
      </trkpt>
      <trkpt lat="43.40559" lon="3.68434">
        <ele>84.5</ele>
        <time>2021-02-07T12:25:04Z</time>
      </trkpt>
      <trkpt lat="43.4056" lon="3.68442">
        <ele>83.9</ele>
        <time>2021-02-07T12:25:14Z</time>
      </trkpt>
      <trkpt lat="43.40561" lon="3.68448">
        <ele>83.7</ele>
        <time>2021-02-07T12:25:18Z</time>
      </trkpt>
      <trkpt lat="43.40563" lon="3.68455">
        <ele>83.8</ele>
        <time>2021-02-07T12:25:22Z</time>
      </trkpt>
      <trkpt lat="43.40565" lon="3.68462">
        <ele>83.6</ele>
        <time>2021-02-07T12:25:26Z</time>
      </trkpt>
      <trkpt lat="43.40567" lon="3.68468">
        <ele>83.3</ele>
        <time>2021-02-07T12:25:30Z</time>
      </trkpt>
      <trkpt lat="43.40569" lon="3.68475">
        <ele>83.1</ele>
        <time>2021-02-07T12:25:34Z</time>
      </trkpt>
      <trkpt lat="43.4057" lon="3.68481">
        <ele>83.3</ele>
        <time>2021-02-07T12:25:38Z</time>
      </trkpt>
      <trkpt lat="43.40573" lon="3.68487">
        <ele>83.3</ele>
        <time>2021-02-07T12:25:42Z</time>
      </trkpt>
      <trkpt lat="43.40575" lon="3.68494">
        <ele>83.2</ele>
        <time>2021-02-07T12:25:46Z</time>
      </trkpt>
      <trkpt lat="43.40576" lon="3.685">
        <ele>83.3</ele>
        <time>2021-02-07T12:25:52Z</time>
      </trkpt>
      <trkpt lat="43.40576" lon="3.68507">
        <ele>83.6</ele>
        <time>2021-02-07T12:25:56Z</time>
      </trkpt>
      <trkpt lat="43.40576" lon="3.68515">
        <ele>83.9</ele>
        <time>2021-02-07T12:26:01Z</time>
      </trkpt>
      <trkpt lat="43.40572" lon="3.68521">
        <ele>84.4</ele>
        <time>2021-02-07T12:26:06Z</time>
      </trkpt>
      <trkpt lat="43.40568" lon="3.68524">
        <ele>84.6</ele>
        <time>2021-02-07T12:26:12Z</time>
      </trkpt>
      <trkpt lat="43.40563" lon="3.68525">
        <ele>85</ele>
        <time>2021-02-07T12:26:16Z</time>
      </trkpt>
      <trkpt lat="43.40558" lon="3.68526">
        <ele>86.5</ele>
        <time>2021-02-07T12:26:21Z</time>
      </trkpt>
      <trkpt lat="43.40554" lon="3.68529">
        <ele>87.7</ele>
        <time>2021-02-07T12:26:27Z</time>
      </trkpt>
      <trkpt lat="43.4055" lon="3.68533">
        <ele>89.6</ele>
        <time>2021-02-07T12:26:36Z</time>
      </trkpt>
      <trkpt lat="43.40546" lon="3.68537">
        <ele>91.3</ele>
        <time>2021-02-07T12:26:41Z</time>
      </trkpt>
      <trkpt lat="43.40541" lon="3.68537">
        <ele>93.4</ele>
        <time>2021-02-07T12:26:50Z</time>
      </trkpt>
      <trkpt lat="43.40536" lon="3.68537">
        <ele>94.9</ele>
        <time>2021-02-07T12:26:58Z</time>
      </trkpt>
      <trkpt lat="43.40531" lon="3.68538">
        <ele>95.6</ele>
        <time>2021-02-07T12:27:06Z</time>
      </trkpt>
      <trkpt lat="43.40526" lon="3.68538">
        <ele>98.2</ele>
        <time>2021-02-07T12:27:55Z</time>
      </trkpt>
      <trkpt lat="43.40521" lon="3.68537">
        <ele>100</ele>
        <time>2021-02-07T12:28:39Z</time>
      </trkpt>
      <trkpt lat="43.40516" lon="3.68534">
        <ele>101.9</ele>
        <time>2021-02-07T12:28:45Z</time>
      </trkpt>
      <trkpt lat="43.40512" lon="3.68531">
        <ele>103</ele>
        <time>2021-02-07T12:28:49Z</time>
      </trkpt>
      <trkpt lat="43.40507" lon="3.68532">
        <ele>103.8</ele>
        <time>2021-02-07T12:28:57Z</time>
      </trkpt>
      <trkpt lat="43.40503" lon="3.68532">
        <ele>105.6</ele>
        <time>2021-02-07T12:29:08Z</time>
      </trkpt>
      <trkpt lat="43.40498" lon="3.6853">
        <ele>108.3</ele>
        <time>2021-02-07T12:29:16Z</time>
      </trkpt>
      <trkpt lat="43.40493" lon="3.68529">
        <ele>109.1</ele>
        <time>2021-02-07T12:29:22Z</time>
      </trkpt>
      <trkpt lat="43.40489" lon="3.68532">
        <ele>111</ele>
        <time>2021-02-07T12:29:30Z</time>
      </trkpt>
      <trkpt lat="43.40484" lon="3.68535">
        <ele>111.7</ele>
        <time>2021-02-07T12:29:35Z</time>
      </trkpt>
      <trkpt lat="43.40481" lon="3.68541">
        <ele>114.7</ele>
        <time>2021-02-07T12:29:44Z</time>
      </trkpt>
      <trkpt lat="43.40477" lon="3.68545">
        <ele>115</ele>
        <time>2021-02-07T12:29:50Z</time>
      </trkpt>
      <trkpt lat="43.40472" lon="3.68547">
        <ele>114.9</ele>
        <time>2021-02-07T12:29:59Z</time>
      </trkpt>
      <trkpt lat="43.40474" lon="3.68541">
        <ele>115</ele>
        <time>2021-02-07T12:30:09Z</time>
      </trkpt>
      <trkpt lat="43.4048" lon="3.68542">
        <ele>115.3</ele>
        <time>2021-02-07T12:30:15Z</time>
      </trkpt>
      <trkpt lat="43.40484" lon="3.68545">
        <ele>115.2</ele>
        <time>2021-02-07T12:30:20Z</time>
      </trkpt>
      <trkpt lat="43.40487" lon="3.68551">
        <ele>115.5</ele>
        <time>2021-02-07T12:30:24Z</time>
      </trkpt>
      <trkpt lat="43.40486" lon="3.68558">
        <ele>116.5</ele>
        <time>2021-02-07T12:30:28Z</time>
      </trkpt>
      <trkpt lat="43.40482" lon="3.68562">
        <ele>117.2</ele>
        <time>2021-02-07T12:30:41Z</time>
      </trkpt>
      <trkpt lat="43.40476" lon="3.68566">
        <ele>117</ele>
        <time>2021-02-07T12:30:45Z</time>
      </trkpt>
      <trkpt lat="43.40474" lon="3.68572">
        <ele>117.1</ele>
        <time>2021-02-07T12:30:48Z</time>
      </trkpt>
      <trkpt lat="43.40471" lon="3.68577">
        <ele>117.1</ele>
        <time>2021-02-07T12:30:52Z</time>
      </trkpt>
      <trkpt lat="43.40468" lon="3.68582">
        <ele>118.4</ele>
        <time>2021-02-07T12:30:55Z</time>
      </trkpt>
      <trkpt lat="43.40464" lon="3.68587">
        <ele>119.1</ele>
        <time>2021-02-07T12:30:59Z</time>
      </trkpt>
      <trkpt lat="43.40459" lon="3.68589">
        <ele>118.8</ele>
        <time>2021-02-07T12:31:09Z</time>
      </trkpt>
      <trkpt lat="43.40454" lon="3.68587">
        <ele>118.4</ele>
        <time>2021-02-07T12:31:14Z</time>
      </trkpt>
      <trkpt lat="43.4045" lon="3.68584">
        <ele>117.4</ele>
        <time>2021-02-07T12:31:19Z</time>
      </trkpt>
      <trkpt lat="43.40445" lon="3.68582">
        <ele>116.7</ele>
        <time>2021-02-07T12:31:24Z</time>
      </trkpt>
      <trkpt lat="43.4044" lon="3.6858">
        <ele>117.5</ele>
        <time>2021-02-07T12:31:29Z</time>
      </trkpt>
      <trkpt lat="43.40434" lon="3.68581">
        <ele>118.2</ele>
        <time>2021-02-07T12:31:38Z</time>
      </trkpt>
      <trkpt lat="43.40429" lon="3.68579">
        <ele>117.8</ele>
        <time>2021-02-07T12:31:44Z</time>
      </trkpt>
      <trkpt lat="43.40424" lon="3.68576">
        <ele>118</ele>
        <time>2021-02-07T12:31:49Z</time>
      </trkpt>
      <trkpt lat="43.40421" lon="3.68581">
        <ele>119.2</ele>
        <time>2021-02-07T12:32:09Z</time>
      </trkpt>
      <trkpt lat="43.40417" lon="3.68582">
        <ele>119.8</ele>
        <time>2021-02-07T12:32:13Z</time>
      </trkpt>
      <trkpt lat="43.40412" lon="3.68584">
        <ele>120.5</ele>
        <time>2021-02-07T12:32:17Z</time>
      </trkpt>
      <trkpt lat="43.40408" lon="3.68587">
        <ele>121.1</ele>
        <time>2021-02-07T12:32:21Z</time>
      </trkpt>
      <trkpt lat="43.40403" lon="3.6859">
        <ele>121.7</ele>
        <time>2021-02-07T12:32:25Z</time>
      </trkpt>
      <trkpt lat="43.40399" lon="3.68594">
        <ele>121.9</ele>
        <time>2021-02-07T12:32:29Z</time>
      </trkpt>
      <trkpt lat="43.40394" lon="3.68598">
        <ele>122.1</ele>
        <time>2021-02-07T12:32:33Z</time>
      </trkpt>
      <trkpt lat="43.4039" lon="3.68599">
        <ele>122.2</ele>
        <time>2021-02-07T12:32:37Z</time>
      </trkpt>
      <trkpt lat="43.40385" lon="3.68603">
        <ele>122.3</ele>
        <time>2021-02-07T12:32:41Z</time>
      </trkpt>
      <trkpt lat="43.40381" lon="3.68606">
        <ele>122.5</ele>
        <time>2021-02-07T12:32:45Z</time>
      </trkpt>
      <trkpt lat="43.40376" lon="3.68609">
        <ele>122.4</ele>
        <time>2021-02-07T12:32:50Z</time>
      </trkpt>
      <trkpt lat="43.40371" lon="3.68612">
        <ele>122.2</ele>
        <time>2021-02-07T12:32:55Z</time>
      </trkpt>
      <trkpt lat="43.40367" lon="3.68615">
        <ele>122.1</ele>
        <time>2021-02-07T12:32:59Z</time>
      </trkpt>
      <trkpt lat="43.40362" lon="3.68618">
        <ele>122.4</ele>
        <time>2021-02-07T12:33:05Z</time>
      </trkpt>
      <trkpt lat="43.40358" lon="3.68623">
        <ele>122.5</ele>
        <time>2021-02-07T12:33:09Z</time>
      </trkpt>
      <trkpt lat="43.40356" lon="3.68629">
        <ele>122.3</ele>
        <time>2021-02-07T12:33:13Z</time>
      </trkpt>
      <trkpt lat="43.40354" lon="3.68636">
        <ele>123.4</ele>
        <time>2021-02-07T12:33:17Z</time>
      </trkpt>
      <trkpt lat="43.40352" lon="3.68642">
        <ele>123.7</ele>
        <time>2021-02-07T12:33:21Z</time>
      </trkpt>
      <trkpt lat="43.40349" lon="3.68647">
        <ele>123.9</ele>
        <time>2021-02-07T12:33:26Z</time>
      </trkpt>
      <trkpt lat="43.40346" lon="3.68653">
        <ele>124</ele>
        <time>2021-02-07T12:33:30Z</time>
      </trkpt>
      <trkpt lat="43.40343" lon="3.68658">
        <ele>124</ele>
        <time>2021-02-07T12:33:35Z</time>
      </trkpt>
      <trkpt lat="43.40339" lon="3.68663">
        <ele>124.5</ele>
        <time>2021-02-07T12:33:40Z</time>
      </trkpt>
      <trkpt lat="43.40337" lon="3.68669">
        <ele>124.8</ele>
        <time>2021-02-07T12:33:44Z</time>
      </trkpt>
      <trkpt lat="43.40332" lon="3.68675">
        <ele>124.9</ele>
        <time>2021-02-07T12:33:48Z</time>
      </trkpt>
      <trkpt lat="43.40329" lon="3.68681">
        <ele>124.7</ele>
        <time>2021-02-07T12:33:52Z</time>
      </trkpt>
      <trkpt lat="43.40327" lon="3.68687">
        <ele>124.8</ele>
        <time>2021-02-07T12:33:57Z</time>
      </trkpt>
      <trkpt lat="43.40325" lon="3.68693">
        <ele>125</ele>
        <time>2021-02-07T12:34:01Z</time>
      </trkpt>
      <trkpt lat="43.40323" lon="3.687">
        <ele>125.3</ele>
        <time>2021-02-07T12:34:06Z</time>
      </trkpt>
      <trkpt lat="43.40321" lon="3.68706">
        <ele>125.4</ele>
        <time>2021-02-07T12:34:24Z</time>
      </trkpt>
      <trkpt lat="43.40319" lon="3.68713">
        <ele>125.4</ele>
        <time>2021-02-07T12:34:29Z</time>
      </trkpt>
      <trkpt lat="43.40317" lon="3.6872">
        <ele>125.5</ele>
        <time>2021-02-07T12:34:33Z</time>
      </trkpt>
      <trkpt lat="43.40316" lon="3.68727">
        <ele>125.4</ele>
        <time>2021-02-07T12:34:37Z</time>
      </trkpt>
      <trkpt lat="43.40316" lon="3.68733">
        <ele>125.4</ele>
        <time>2021-02-07T12:34:41Z</time>
      </trkpt>
      <trkpt lat="43.40315" lon="3.6874">
        <ele>125.4</ele>
        <time>2021-02-07T12:34:45Z</time>
      </trkpt>
      <trkpt lat="43.40315" lon="3.68747">
        <ele>125.5</ele>
        <time>2021-02-07T12:34:49Z</time>
      </trkpt>
      <trkpt lat="43.40315" lon="3.68754">
        <ele>125.5</ele>
        <time>2021-02-07T12:34:54Z</time>
      </trkpt>
      <trkpt lat="43.40315" lon="3.68761">
        <ele>125.5</ele>
        <time>2021-02-07T12:34:59Z</time>
      </trkpt>
      <trkpt lat="43.40312" lon="3.68766">
        <ele>125.7</ele>
        <time>2021-02-07T12:35:02Z</time>
      </trkpt>
      <trkpt lat="43.4031" lon="3.68772">
        <ele>125.8</ele>
        <time>2021-02-07T12:35:05Z</time>
      </trkpt>
      <trkpt lat="43.40307" lon="3.68776">
        <ele>125.7</ele>
        <time>2021-02-07T12:35:08Z</time>
      </trkpt>
      <trkpt lat="43.40303" lon="3.6878">
        <ele>125.5</ele>
        <time>2021-02-07T12:35:12Z</time>
      </trkpt>
      <trkpt lat="43.40299" lon="3.68784">
        <ele>125.2</ele>
        <time>2021-02-07T12:35:28Z</time>
      </trkpt>
      <trkpt lat="43.40299" lon="3.68791">
        <ele>124.9</ele>
        <time>2021-02-07T12:35:37Z</time>
      </trkpt>
      <trkpt lat="43.40299" lon="3.68799">
        <ele>124.2</ele>
        <time>2021-02-07T12:35:43Z</time>
      </trkpt>
      <trkpt lat="43.40299" lon="3.68806">
        <ele>123.6</ele>
        <time>2021-02-07T12:35:49Z</time>
      </trkpt>
      <trkpt lat="43.40296" lon="3.68812">
        <ele>121.9</ele>
        <time>2021-02-07T12:35:56Z</time>
      </trkpt>
      <trkpt lat="43.40292" lon="3.68816">
        <ele>120.6</ele>
        <time>2021-02-07T12:36:02Z</time>
      </trkpt>
      <trkpt lat="43.40289" lon="3.68822">
        <ele>119.6</ele>
        <time>2021-02-07T12:36:07Z</time>
      </trkpt>
      <trkpt lat="43.40286" lon="3.68827">
        <ele>119</ele>
        <time>2021-02-07T12:36:11Z</time>
      </trkpt>
      <trkpt lat="43.40284" lon="3.68832">
        <ele>117.9</ele>
        <time>2021-02-07T12:36:18Z</time>
      </trkpt>
      <trkpt lat="43.40281" lon="3.68838">
        <ele>117.1</ele>
        <time>2021-02-07T12:36:23Z</time>
      </trkpt>
      <trkpt lat="43.40279" lon="3.68845">
        <ele>115.9</ele>
        <time>2021-02-07T12:36:29Z</time>
      </trkpt>
      <trkpt lat="43.40278" lon="3.68851">
        <ele>115.5</ele>
        <time>2021-02-07T12:36:34Z</time>
      </trkpt>
      <trkpt lat="43.40279" lon="3.68858">
        <ele>112.4</ele>
        <time>2021-02-07T12:37:29Z</time>
      </trkpt>
      <trkpt lat="43.40279" lon="3.68864">
        <ele>112.1</ele>
        <time>2021-02-07T12:37:36Z</time>
      </trkpt>
      <trkpt lat="43.40277" lon="3.68871">
        <ele>111.1</ele>
        <time>2021-02-07T12:37:45Z</time>
      </trkpt>
      <trkpt lat="43.40277" lon="3.68878">
        <ele>110.2</ele>
        <time>2021-02-07T12:37:50Z</time>
      </trkpt>
      <trkpt lat="43.40275" lon="3.68885">
        <ele>109.2</ele>
        <time>2021-02-07T12:37:55Z</time>
      </trkpt>
      <trkpt lat="43.40274" lon="3.68892">
        <ele>108.3</ele>
        <time>2021-02-07T12:38:00Z</time>
      </trkpt>
      <trkpt lat="43.40274" lon="3.68899">
        <ele>107.8</ele>
        <time>2021-02-07T12:38:05Z</time>
      </trkpt>
      <trkpt lat="43.40273" lon="3.68907">
        <ele>107.4</ele>
        <time>2021-02-07T12:38:09Z</time>
      </trkpt>
      <trkpt lat="43.40272" lon="3.68913">
        <ele>106.6</ele>
        <time>2021-02-07T12:38:14Z</time>
      </trkpt>
      <trkpt lat="43.40268" lon="3.68918">
        <ele>105.5</ele>
        <time>2021-02-07T12:38:20Z</time>
      </trkpt>
      <trkpt lat="43.40266" lon="3.68924">
        <ele>104.7</ele>
        <time>2021-02-07T12:38:24Z</time>
      </trkpt>
      <trkpt lat="43.40263" lon="3.68928">
        <ele>103.5</ele>
        <time>2021-02-07T12:38:28Z</time>
      </trkpt>
      <trkpt lat="43.40262" lon="3.68936">
        <ele>102.6</ele>
        <time>2021-02-07T12:38:33Z</time>
      </trkpt>
      <trkpt lat="43.40262" lon="3.68942">
        <ele>101.6</ele>
        <time>2021-02-07T12:38:37Z</time>
      </trkpt>
      <trkpt lat="43.40261" lon="3.68949">
        <ele>100.5</ele>
        <time>2021-02-07T12:38:41Z</time>
      </trkpt>
      <trkpt lat="43.4026" lon="3.68956">
        <ele>99.4</ele>
        <time>2021-02-07T12:38:45Z</time>
      </trkpt>
      <trkpt lat="43.4026" lon="3.68963">
        <ele>98.3</ele>
        <time>2021-02-07T12:38:50Z</time>
      </trkpt>
      <trkpt lat="43.40261" lon="3.6897">
        <ele>97</ele>
        <time>2021-02-07T12:38:57Z</time>
      </trkpt>
      <trkpt lat="43.40262" lon="3.68976">
        <ele>96.6</ele>
        <time>2021-02-07T12:39:02Z</time>
      </trkpt>
      <trkpt lat="43.40262" lon="3.68983">
        <ele>96.3</ele>
        <time>2021-02-07T12:39:06Z</time>
      </trkpt>
      <trkpt lat="43.40263" lon="3.6899">
        <ele>95</ele>
        <time>2021-02-07T12:39:13Z</time>
      </trkpt>
      <trkpt lat="43.40264" lon="3.68997">
        <ele>94.1</ele>
        <time>2021-02-07T12:39:18Z</time>
      </trkpt>
      <trkpt lat="43.40264" lon="3.69004">
        <ele>93</ele>
        <time>2021-02-07T12:39:23Z</time>
      </trkpt>
      <trkpt lat="43.40264" lon="3.69011">
        <ele>91.7</ele>
        <time>2021-02-07T12:39:28Z</time>
      </trkpt>
      <trkpt lat="43.40265" lon="3.69018">
        <ele>90.8</ele>
        <time>2021-02-07T12:39:33Z</time>
      </trkpt>
      <trkpt lat="43.40264" lon="3.69024">
        <ele>88.7</ele>
        <time>2021-02-07T12:39:45Z</time>
      </trkpt>
      <trkpt lat="43.40262" lon="3.69031">
        <ele>86.4</ele>
        <time>2021-02-07T12:40:06Z</time>
      </trkpt>
      <trkpt lat="43.40262" lon="3.69038">
        <ele>85.7</ele>
        <time>2021-02-07T12:40:12Z</time>
      </trkpt>
      <trkpt lat="43.40261" lon="3.69044">
        <ele>84.8</ele>
        <time>2021-02-07T12:40:25Z</time>
      </trkpt>
      <trkpt lat="43.40263" lon="3.6905">
        <ele>82.8</ele>
        <time>2021-02-07T12:40:53Z</time>
      </trkpt>
      <trkpt lat="43.40258" lon="3.69051">
        <ele>80.6</ele>
        <time>2021-02-07T12:41:50Z</time>
      </trkpt>
      <trkpt lat="43.40256" lon="3.69057">
        <ele>80.6</ele>
        <time>2021-02-07T12:41:54Z</time>
      </trkpt>
      <trkpt lat="43.40252" lon="3.69063">
        <ele>80.2</ele>
        <time>2021-02-07T12:41:59Z</time>
      </trkpt>
      <trkpt lat="43.4025" lon="3.69068">
        <ele>79.8</ele>
        <time>2021-02-07T12:42:03Z</time>
      </trkpt>
      <trkpt lat="43.40248" lon="3.69075">
        <ele>79.1</ele>
        <time>2021-02-07T12:42:07Z</time>
      </trkpt>
      <trkpt lat="43.40245" lon="3.69081">
        <ele>78.4</ele>
        <time>2021-02-07T12:42:11Z</time>
      </trkpt>
      <trkpt lat="43.40241" lon="3.69086">
        <ele>77.4</ele>
        <time>2021-02-07T12:42:17Z</time>
      </trkpt>
      <trkpt lat="43.40237" lon="3.69091">
        <ele>77.4</ele>
        <time>2021-02-07T12:42:23Z</time>
      </trkpt>
      <trkpt lat="43.40235" lon="3.69096">
        <ele>77.1</ele>
        <time>2021-02-07T12:42:27Z</time>
      </trkpt>
      <trkpt lat="43.40233" lon="3.69103">
        <ele>76.3</ele>
        <time>2021-02-07T12:42:31Z</time>
      </trkpt>
      <trkpt lat="43.40231" lon="3.6911">
        <ele>75.1</ele>
        <time>2021-02-07T12:42:36Z</time>
      </trkpt>
      <trkpt lat="43.40229" lon="3.69115">
        <ele>74</ele>
        <time>2021-02-07T12:42:40Z</time>
      </trkpt>
      <trkpt lat="43.40226" lon="3.69121">
        <ele>70.1</ele>
        <time>2021-02-07T12:43:13Z</time>
      </trkpt>
      <trkpt lat="43.40223" lon="3.69126">
        <ele>69.3</ele>
        <time>2021-02-07T12:43:21Z</time>
      </trkpt>
      <trkpt lat="43.40219" lon="3.6913">
        <ele>68.9</ele>
        <time>2021-02-07T12:43:27Z</time>
      </trkpt>
      <trkpt lat="43.40214" lon="3.69131">
        <ele>68.4</ele>
        <time>2021-02-07T12:43:31Z</time>
      </trkpt>
      <trkpt lat="43.40209" lon="3.69131">
        <ele>67.9</ele>
        <time>2021-02-07T12:43:36Z</time>
      </trkpt>
      <trkpt lat="43.40205" lon="3.6913">
        <ele>66.7</ele>
        <time>2021-02-07T12:44:04Z</time>
      </trkpt>
      <trkpt lat="43.402" lon="3.69128">
        <ele>66.2</ele>
        <time>2021-02-07T12:44:11Z</time>
      </trkpt>
      <trkpt lat="43.40195" lon="3.69128">
        <ele>66.2</ele>
        <time>2021-02-07T12:44:22Z</time>
      </trkpt>
      <trkpt lat="43.40194" lon="3.69136">
        <ele>64</ele>
        <time>2021-02-07T12:44:47Z</time>
      </trkpt>
      <trkpt lat="43.40194" lon="3.69142">
        <ele>63.1</ele>
        <time>2021-02-07T12:44:53Z</time>
      </trkpt>
      <trkpt lat="43.40194" lon="3.69149">
        <ele>62.2</ele>
        <time>2021-02-07T12:45:05Z</time>
      </trkpt>
      <trkpt lat="43.40192" lon="3.69155">
        <ele>60.8</ele>
        <time>2021-02-07T12:45:17Z</time>
      </trkpt>
      <trkpt lat="43.40188" lon="3.69161">
        <ele>60.2</ele>
        <time>2021-02-07T12:45:22Z</time>
      </trkpt>
      <trkpt lat="43.40187" lon="3.69168">
        <ele>59.5</ele>
        <time>2021-02-07T12:45:26Z</time>
      </trkpt>
      <trkpt lat="43.40187" lon="3.69174">
        <ele>58.8</ele>
        <time>2021-02-07T12:45:30Z</time>
      </trkpt>
      <trkpt lat="43.40185" lon="3.6918">
        <ele>57.8</ele>
        <time>2021-02-07T12:45:36Z</time>
      </trkpt>
      <trkpt lat="43.40183" lon="3.69186">
        <ele>57.5</ele>
        <time>2021-02-07T12:45:40Z</time>
      </trkpt>
      <trkpt lat="43.40179" lon="3.69189">
        <ele>57</ele>
        <time>2021-02-07T12:45:46Z</time>
      </trkpt>
      <trkpt lat="43.40175" lon="3.69193">
        <ele>55.8</ele>
        <time>2021-02-07T12:45:58Z</time>
      </trkpt>
      <trkpt lat="43.40171" lon="3.69199">
        <ele>55.3</ele>
        <time>2021-02-07T12:46:03Z</time>
      </trkpt>
      <trkpt lat="43.40169" lon="3.69205">
        <ele>54.4</ele>
        <time>2021-02-07T12:46:08Z</time>
      </trkpt>
      <trkpt lat="43.40168" lon="3.69212">
        <ele>53.3</ele>
        <time>2021-02-07T12:46:13Z</time>
      </trkpt>
      <trkpt lat="43.40166" lon="3.69218">
        <ele>52.5</ele>
        <time>2021-02-07T12:46:17Z</time>
      </trkpt>
      <trkpt lat="43.40162" lon="3.69224">
        <ele>51.6</ele>
        <time>2021-02-07T12:46:22Z</time>
      </trkpt>
      <trkpt lat="43.40161" lon="3.69231">
        <ele>51</ele>
        <time>2021-02-07T12:46:27Z</time>
      </trkpt>
      <trkpt lat="43.40161" lon="3.69239">
        <ele>50.3</ele>
        <time>2021-02-07T12:46:30Z</time>
      </trkpt>
      <trkpt lat="43.40162" lon="3.69247">
        <ele>49.8</ele>
        <time>2021-02-07T12:46:33Z</time>
      </trkpt>
      <trkpt lat="43.40161" lon="3.69255">
        <ele>49.1</ele>
        <time>2021-02-07T12:46:39Z</time>
      </trkpt>
      <trkpt lat="43.40158" lon="3.6926">
        <ele>48.6</ele>
        <time>2021-02-07T12:46:42Z</time>
      </trkpt>
      <trkpt lat="43.40155" lon="3.69266">
        <ele>46.7</ele>
        <time>2021-02-07T12:46:47Z</time>
      </trkpt>
      <trkpt lat="43.40153" lon="3.69272">
        <ele>45.3</ele>
        <time>2021-02-07T12:46:51Z</time>
      </trkpt>
      <trkpt lat="43.40151" lon="3.69278">
        <ele>44.3</ele>
        <time>2021-02-07T12:46:55Z</time>
      </trkpt>
      <trkpt lat="43.40149" lon="3.69284">
        <ele>43.3</ele>
        <time>2021-02-07T12:47:00Z</time>
      </trkpt>
      <trkpt lat="43.40145" lon="3.6929">
        <ele>42.5</ele>
        <time>2021-02-07T12:47:06Z</time>
      </trkpt>
      <trkpt lat="43.40144" lon="3.69296">
        <ele>42.5</ele>
        <time>2021-02-07T12:47:10Z</time>
      </trkpt>
      <trkpt lat="43.40145" lon="3.69302">
        <ele>41.9</ele>
        <time>2021-02-07T12:47:19Z</time>
      </trkpt>
      <trkpt lat="43.40148" lon="3.69308">
        <ele>41.4</ele>
        <time>2021-02-07T12:47:24Z</time>
      </trkpt>
      <trkpt lat="43.4015" lon="3.69314">
        <ele>40.9</ele>
        <time>2021-02-07T12:47:28Z</time>
      </trkpt>
      <trkpt lat="43.40151" lon="3.69321">
        <ele>40</ele>
        <time>2021-02-07T12:47:33Z</time>
      </trkpt>
      <trkpt lat="43.40151" lon="3.69328">
        <ele>39.6</ele>
        <time>2021-02-07T12:47:37Z</time>
      </trkpt>
      <trkpt lat="43.40149" lon="3.69335">
        <ele>39.3</ele>
        <time>2021-02-07T12:47:44Z</time>
      </trkpt>
      <trkpt lat="43.4015" lon="3.69341">
        <ele>38.9</ele>
        <time>2021-02-07T12:47:51Z</time>
      </trkpt>
      <trkpt lat="43.40151" lon="3.69347">
        <ele>37.9</ele>
        <time>2021-02-07T12:47:57Z</time>
      </trkpt>
      <trkpt lat="43.40153" lon="3.69353">
        <ele>37.1</ele>
        <time>2021-02-07T12:48:01Z</time>
      </trkpt>
      <trkpt lat="43.40154" lon="3.69361">
        <ele>36.7</ele>
        <time>2021-02-07T12:48:05Z</time>
      </trkpt>
      <trkpt lat="43.40154" lon="3.69368">
        <ele>36</ele>
        <time>2021-02-07T12:48:10Z</time>
      </trkpt>
      <trkpt lat="43.40154" lon="3.69374">
        <ele>35</ele>
        <time>2021-02-07T12:48:14Z</time>
      </trkpt>
      <trkpt lat="43.40153" lon="3.69382">
        <ele>34.3</ele>
        <time>2021-02-07T12:48:18Z</time>
      </trkpt>
      <trkpt lat="43.40153" lon="3.69389">
        <ele>33.9</ele>
        <time>2021-02-07T12:48:22Z</time>
      </trkpt>
      <trkpt lat="43.40154" lon="3.69396">
        <ele>33</ele>
        <time>2021-02-07T12:48:27Z</time>
      </trkpt>
      <trkpt lat="43.40155" lon="3.69402">
        <ele>32.4</ele>
        <time>2021-02-07T12:48:32Z</time>
      </trkpt>
      <trkpt lat="43.40156" lon="3.6941">
        <ele>31.6</ele>
        <time>2021-02-07T12:48:36Z</time>
      </trkpt>
      <trkpt lat="43.40157" lon="3.69417">
        <ele>31.1</ele>
        <time>2021-02-07T12:48:40Z</time>
      </trkpt>
      <trkpt lat="43.40157" lon="3.69425">
        <ele>30.6</ele>
        <time>2021-02-07T12:48:45Z</time>
      </trkpt>
      <trkpt lat="43.40157" lon="3.69431">
        <ele>30.1</ele>
        <time>2021-02-07T12:48:49Z</time>
      </trkpt>
      <trkpt lat="43.40157" lon="3.69439">
        <ele>29.4</ele>
        <time>2021-02-07T12:48:53Z</time>
      </trkpt>
      <trkpt lat="43.40156" lon="3.69447">
        <ele>28.9</ele>
        <time>2021-02-07T12:48:57Z</time>
      </trkpt>
      <trkpt lat="43.40157" lon="3.69454">
        <ele>29</ele>
        <time>2021-02-07T12:49:01Z</time>
      </trkpt>
      <trkpt lat="43.40158" lon="3.69461">
        <ele>29.1</ele>
        <time>2021-02-07T12:49:06Z</time>
      </trkpt>
      <trkpt lat="43.40158" lon="3.69468">
        <ele>28.8</ele>
        <time>2021-02-07T12:49:10Z</time>
      </trkpt>
      <trkpt lat="43.40159" lon="3.69475">
        <ele>27.6</ele>
        <time>2021-02-07T12:49:14Z</time>
      </trkpt>
      <trkpt lat="43.4016" lon="3.69482">
        <ele>26.9</ele>
        <time>2021-02-07T12:49:18Z</time>
      </trkpt>
      <trkpt lat="43.40162" lon="3.69489">
        <ele>26.6</ele>
        <time>2021-02-07T12:49:22Z</time>
      </trkpt>
      <trkpt lat="43.40163" lon="3.69496">
        <ele>26.4</ele>
        <time>2021-02-07T12:49:27Z</time>
      </trkpt>
      <trkpt lat="43.40163" lon="3.69503">
        <ele>26.2</ele>
        <time>2021-02-07T12:49:31Z</time>
      </trkpt>
      <trkpt lat="43.40163" lon="3.6951">
        <ele>25.9</ele>
        <time>2021-02-07T12:49:35Z</time>
      </trkpt>
      <trkpt lat="43.40163" lon="3.69518">
        <ele>25.6</ele>
        <time>2021-02-07T12:49:39Z</time>
      </trkpt>
      <trkpt lat="43.40164" lon="3.69526">
        <ele>25.2</ele>
        <time>2021-02-07T12:49:43Z</time>
      </trkpt>
      <trkpt lat="43.40164" lon="3.69532">
        <ele>24.7</ele>
        <time>2021-02-07T12:49:47Z</time>
      </trkpt>
      <trkpt lat="43.40165" lon="3.69539">
        <ele>24.1</ele>
        <time>2021-02-07T12:49:52Z</time>
      </trkpt>
      <trkpt lat="43.40166" lon="3.69546">
        <ele>23.9</ele>
        <time>2021-02-07T12:49:56Z</time>
      </trkpt>
      <trkpt lat="43.40166" lon="3.69553">
        <ele>23.7</ele>
        <time>2021-02-07T12:50:00Z</time>
      </trkpt>
      <trkpt lat="43.40167" lon="3.69561">
        <ele>23.3</ele>
        <time>2021-02-07T12:50:05Z</time>
      </trkpt>
      <trkpt lat="43.40164" lon="3.69567">
        <ele>23.2</ele>
        <time>2021-02-07T12:50:09Z</time>
      </trkpt>
      <trkpt lat="43.40163" lon="3.69573">
        <ele>23.1</ele>
        <time>2021-02-07T12:50:13Z</time>
      </trkpt>
      <trkpt lat="43.40161" lon="3.69579">
        <ele>22.8</ele>
        <time>2021-02-07T12:50:17Z</time>
      </trkpt>
      <trkpt lat="43.40161" lon="3.69585">
        <ele>22.4</ele>
        <time>2021-02-07T12:50:21Z</time>
      </trkpt>
      <trkpt lat="43.40162" lon="3.69592">
        <ele>22.2</ele>
        <time>2021-02-07T12:50:25Z</time>
      </trkpt>
      <trkpt lat="43.40163" lon="3.69598">
        <ele>21.6</ele>
        <time>2021-02-07T12:50:29Z</time>
      </trkpt>
      <trkpt lat="43.40165" lon="3.69605">
        <ele>21.4</ele>
        <time>2021-02-07T12:50:34Z</time>
      </trkpt>
      <trkpt lat="43.40165" lon="3.69612">
        <ele>21.1</ele>
        <time>2021-02-07T12:50:38Z</time>
      </trkpt>
      <trkpt lat="43.40166" lon="3.69619">
        <ele>21.1</ele>
        <time>2021-02-07T12:50:43Z</time>
      </trkpt>
      <trkpt lat="43.40166" lon="3.69626">
        <ele>20.6</ele>
        <time>2021-02-07T12:50:48Z</time>
      </trkpt>
      <trkpt lat="43.40167" lon="3.69633">
        <ele>20.4</ele>
        <time>2021-02-07T12:50:52Z</time>
      </trkpt>
      <trkpt lat="43.40169" lon="3.69638">
        <ele>20</ele>
        <time>2021-02-07T12:50:55Z</time>
      </trkpt>
      <trkpt lat="43.40171" lon="3.69644">
        <ele>19.9</ele>
        <time>2021-02-07T12:50:58Z</time>
      </trkpt>
      <trkpt lat="43.40173" lon="3.69651">
        <ele>19.4</ele>
        <time>2021-02-07T12:51:03Z</time>
      </trkpt>
      <trkpt lat="43.40175" lon="3.69657">
        <ele>19.2</ele>
        <time>2021-02-07T12:51:08Z</time>
      </trkpt>
      <trkpt lat="43.40173" lon="3.69664">
        <ele>19.3</ele>
        <time>2021-02-07T12:51:13Z</time>
      </trkpt>
      <trkpt lat="43.40169" lon="3.69668">
        <ele>19.7</ele>
        <time>2021-02-07T12:51:19Z</time>
      </trkpt>
      <trkpt lat="43.40171" lon="3.69675">
        <ele>19.9</ele>
        <time>2021-02-07T12:51:24Z</time>
      </trkpt>
      <trkpt lat="43.40171" lon="3.69683">
        <ele>19.8</ele>
        <time>2021-02-07T12:51:28Z</time>
      </trkpt>
      <trkpt lat="43.40173" lon="3.6969">
        <ele>19.5</ele>
        <time>2021-02-07T12:51:32Z</time>
      </trkpt>
      <trkpt lat="43.40174" lon="3.69696">
        <ele>19.1</ele>
        <time>2021-02-07T12:51:35Z</time>
      </trkpt>
      <trkpt lat="43.40172" lon="3.69702">
        <ele>18.5</ele>
        <time>2021-02-07T12:51:39Z</time>
      </trkpt>
      <trkpt lat="43.40168" lon="3.69707">
        <ele>18</ele>
        <time>2021-02-07T12:51:44Z</time>
      </trkpt>
      <trkpt lat="43.40166" lon="3.69713">
        <ele>16.8</ele>
        <time>2021-02-07T12:51:52Z</time>
      </trkpt>
      <trkpt lat="43.40162" lon="3.69718">
        <ele>16.6</ele>
        <time>2021-02-07T12:51:56Z</time>
      </trkpt>
      <trkpt lat="43.40157" lon="3.69719">
        <ele>16.4</ele>
        <time>2021-02-07T12:52:00Z</time>
      </trkpt>
      <trkpt lat="43.40151" lon="3.69718">
        <ele>16.2</ele>
        <time>2021-02-07T12:52:04Z</time>
      </trkpt>
      <trkpt lat="43.40146" lon="3.69717">
        <ele>16</ele>
        <time>2021-02-07T12:52:08Z</time>
      </trkpt>
      <trkpt lat="43.40141" lon="3.69715">
        <ele>15.9</ele>
        <time>2021-02-07T12:52:15Z</time>
      </trkpt>
      <trkpt lat="43.40136" lon="3.69714">
        <ele>15.8</ele>
        <time>2021-02-07T12:52:19Z</time>
      </trkpt>
      <trkpt lat="43.40131" lon="3.69712">
        <ele>15.5</ele>
        <time>2021-02-07T12:52:24Z</time>
      </trkpt>
      <trkpt lat="43.40125" lon="3.69711">
        <ele>15.6</ele>
        <time>2021-02-07T12:52:29Z</time>
      </trkpt>
      <trkpt lat="43.40121" lon="3.69715">
        <ele>15.6</ele>
        <time>2021-02-07T12:52:35Z</time>
      </trkpt>
      <trkpt lat="43.40116" lon="3.69714">
        <ele>14.5</ele>
        <time>2021-02-07T12:52:41Z</time>
      </trkpt>
      <trkpt lat="43.40112" lon="3.6971">
        <ele>14</ele>
        <time>2021-02-07T12:52:46Z</time>
      </trkpt>
      <trkpt lat="43.40107" lon="3.69706">
        <ele>14</ele>
        <time>2021-02-07T12:52:50Z</time>
      </trkpt>
      <trkpt lat="43.40102" lon="3.69705">
        <ele>14.2</ele>
        <time>2021-02-07T12:52:54Z</time>
      </trkpt>
      <trkpt lat="43.40097" lon="3.69704">
        <ele>14.5</ele>
        <time>2021-02-07T12:52:58Z</time>
      </trkpt>
      <trkpt lat="43.40092" lon="3.69704">
        <ele>14.9</ele>
        <time>2021-02-07T12:53:04Z</time>
      </trkpt>
      <trkpt lat="43.40087" lon="3.69702">
        <ele>15</ele>
        <time>2021-02-07T12:53:13Z</time>
      </trkpt>
      <trkpt lat="43.40083" lon="3.69699">
        <ele>15</ele>
        <time>2021-02-07T12:53:16Z</time>
      </trkpt>
      <trkpt lat="43.40078" lon="3.69697">
        <ele>15.8</ele>
        <time>2021-02-07T12:53:19Z</time>
      </trkpt>
      <trkpt lat="43.40073" lon="3.69695">
        <ele>16.1</ele>
        <time>2021-02-07T12:53:22Z</time>
      </trkpt>
      <trkpt lat="43.40067" lon="3.69694">
        <ele>16.4</ele>
        <time>2021-02-07T12:53:26Z</time>
      </trkpt>
      <trkpt lat="43.40063" lon="3.69694">
        <ele>16.6</ele>
        <time>2021-02-07T12:53:30Z</time>
      </trkpt>
      <trkpt lat="43.40058" lon="3.69694">
        <ele>16.8</ele>
        <time>2021-02-07T12:53:34Z</time>
      </trkpt>
      <trkpt lat="43.40056" lon="3.69688">
        <ele>16.6</ele>
        <time>2021-02-07T12:53:57Z</time>
      </trkpt>
      <trkpt lat="43.40051" lon="3.69688">
        <ele>16.2</ele>
        <time>2021-02-07T12:54:03Z</time>
      </trkpt>
      <trkpt lat="43.40047" lon="3.69687">
        <ele>15.9</ele>
        <time>2021-02-07T12:54:07Z</time>
      </trkpt>
      <trkpt lat="43.40041" lon="3.69687">
        <ele>16</ele>
        <time>2021-02-07T12:54:11Z</time>
      </trkpt>
      <trkpt lat="43.40036" lon="3.69688">
        <ele>16.1</ele>
        <time>2021-02-07T12:54:16Z</time>
      </trkpt>
      <trkpt lat="43.40031" lon="3.69688">
        <ele>16.1</ele>
        <time>2021-02-07T12:54:22Z</time>
      </trkpt>
      <trkpt lat="43.40025" lon="3.69687">
        <ele>16.1</ele>
        <time>2021-02-07T12:54:27Z</time>
      </trkpt>
      <trkpt lat="43.4002" lon="3.69686">
        <ele>16.1</ele>
        <time>2021-02-07T12:54:32Z</time>
      </trkpt>
      <trkpt lat="43.40015" lon="3.69686">
        <ele>16.3</ele>
        <time>2021-02-07T12:54:35Z</time>
      </trkpt>
      <trkpt lat="43.4001" lon="3.69686">
        <ele>16.3</ele>
        <time>2021-02-07T12:54:39Z</time>
      </trkpt>
      <trkpt lat="43.40004" lon="3.69687">
        <ele>16.1</ele>
        <time>2021-02-07T12:54:44Z</time>
      </trkpt>
      <trkpt lat="43.39999" lon="3.69689">
        <ele>15.9</ele>
        <time>2021-02-07T12:54:48Z</time>
      </trkpt>
      <trkpt lat="43.39994" lon="3.69688">
        <ele>15.8</ele>
        <time>2021-02-07T12:54:52Z</time>
      </trkpt>
      <trkpt lat="43.39989" lon="3.69686">
        <ele>15.5</ele>
        <time>2021-02-07T12:54:57Z</time>
      </trkpt>
      <trkpt lat="43.39983" lon="3.69686">
        <ele>15.2</ele>
        <time>2021-02-07T12:55:02Z</time>
      </trkpt>
      <trkpt lat="43.39978" lon="3.69685">
        <ele>15</ele>
        <time>2021-02-07T12:55:06Z</time>
      </trkpt>
      <trkpt lat="43.39974" lon="3.69685">
        <ele>14.9</ele>
        <time>2021-02-07T12:55:10Z</time>
      </trkpt>
      <trkpt lat="43.39969" lon="3.69683">
        <ele>14.8</ele>
        <time>2021-02-07T12:55:14Z</time>
      </trkpt>
      <trkpt lat="43.39964" lon="3.69682">
        <ele>14.6</ele>
        <time>2021-02-07T12:55:19Z</time>
      </trkpt>
      <trkpt lat="43.39958" lon="3.69683">
        <ele>14.4</ele>
        <time>2021-02-07T12:55:24Z</time>
      </trkpt>
      <trkpt lat="43.39953" lon="3.69685">
        <ele>14.4</ele>
        <time>2021-02-07T12:55:29Z</time>
      </trkpt>
      <trkpt lat="43.39948" lon="3.69688">
        <ele>14.2</ele>
        <time>2021-02-07T12:55:34Z</time>
      </trkpt>
      <trkpt lat="43.39943" lon="3.69688">
        <ele>14.1</ele>
        <time>2021-02-07T12:55:38Z</time>
      </trkpt>
      <trkpt lat="43.39938" lon="3.69689">
        <ele>14.2</ele>
        <time>2021-02-07T12:55:42Z</time>
      </trkpt>
      <trkpt lat="43.39933" lon="3.6969">
        <ele>14.3</ele>
        <time>2021-02-07T12:55:46Z</time>
      </trkpt>
      <trkpt lat="43.39928" lon="3.6969">
        <ele>14.4</ele>
        <time>2021-02-07T12:55:50Z</time>
      </trkpt>
      <trkpt lat="43.39923" lon="3.69692">
        <ele>14.4</ele>
        <time>2021-02-07T12:55:54Z</time>
      </trkpt>
      <trkpt lat="43.39918" lon="3.69694">
        <ele>14.6</ele>
        <time>2021-02-07T12:55:58Z</time>
      </trkpt>
      <trkpt lat="43.39913" lon="3.69696">
        <ele>14.8</ele>
        <time>2021-02-07T12:56:02Z</time>
      </trkpt>
      <trkpt lat="43.39908" lon="3.69697">
        <ele>15.1</ele>
        <time>2021-02-07T12:56:06Z</time>
      </trkpt>
      <trkpt lat="43.39904" lon="3.69698">
        <ele>15.1</ele>
        <time>2021-02-07T12:56:10Z</time>
      </trkpt>
      <trkpt lat="43.39899" lon="3.69698">
        <ele>15.3</ele>
        <time>2021-02-07T12:56:14Z</time>
      </trkpt>
      <trkpt lat="43.39894" lon="3.69698">
        <ele>15.3</ele>
        <time>2021-02-07T12:56:18Z</time>
      </trkpt>
      <trkpt lat="43.39889" lon="3.697">
        <ele>15.7</ele>
        <time>2021-02-07T12:56:22Z</time>
      </trkpt>
      <trkpt lat="43.39884" lon="3.697">
        <ele>16</ele>
        <time>2021-02-07T12:56:26Z</time>
      </trkpt>
      <trkpt lat="43.39879" lon="3.69701">
        <ele>16.1</ele>
        <time>2021-02-07T12:56:30Z</time>
      </trkpt>
      <trkpt lat="43.39874" lon="3.69702">
        <ele>16.2</ele>
        <time>2021-02-07T12:56:34Z</time>
      </trkpt>
      <trkpt lat="43.3987" lon="3.69704">
        <ele>16.3</ele>
        <time>2021-02-07T12:56:38Z</time>
      </trkpt>
      <trkpt lat="43.39865" lon="3.69705">
        <ele>16.4</ele>
        <time>2021-02-07T12:56:42Z</time>
      </trkpt>
      <trkpt lat="43.3986" lon="3.69705">
        <ele>16.9</ele>
        <time>2021-02-07T12:56:46Z</time>
      </trkpt>
      <trkpt lat="43.39855" lon="3.69705">
        <ele>17.3</ele>
        <time>2021-02-07T12:56:56Z</time>
      </trkpt>
      <trkpt lat="43.3985" lon="3.69704">
        <ele>17</ele>
        <time>2021-02-07T12:57:09Z</time>
      </trkpt>
      <trkpt lat="43.39845" lon="3.69706">
        <ele>16.7</ele>
        <time>2021-02-07T12:57:14Z</time>
      </trkpt>
      <trkpt lat="43.39842" lon="3.69701">
        <ele>16.2</ele>
        <time>2021-02-07T12:57:19Z</time>
      </trkpt>
      <trkpt lat="43.39836" lon="3.69699">
        <ele>15.6</ele>
        <time>2021-02-07T12:57:25Z</time>
      </trkpt>
      <trkpt lat="43.39831" lon="3.69699">
        <ele>15.4</ele>
        <time>2021-02-07T12:57:30Z</time>
      </trkpt>
      <trkpt lat="43.39826" lon="3.69699">
        <ele>14.9</ele>
        <time>2021-02-07T12:57:35Z</time>
      </trkpt>
      <trkpt lat="43.39821" lon="3.69699">
        <ele>14.7</ele>
        <time>2021-02-07T12:57:40Z</time>
      </trkpt>
      <trkpt lat="43.39817" lon="3.69697">
        <ele>14.4</ele>
        <time>2021-02-07T12:57:44Z</time>
      </trkpt>
      <trkpt lat="43.39812" lon="3.69694">
        <ele>14.1</ele>
        <time>2021-02-07T12:57:48Z</time>
      </trkpt>
      <trkpt lat="43.39808" lon="3.6969">
        <ele>13.6</ele>
        <time>2021-02-07T12:57:52Z</time>
      </trkpt>
      <trkpt lat="43.39803" lon="3.6969">
        <ele>13.3</ele>
        <time>2021-02-07T12:57:58Z</time>
      </trkpt>
      <trkpt lat="43.39798" lon="3.6969">
        <ele>13.3</ele>
        <time>2021-02-07T12:58:03Z</time>
      </trkpt>
      <trkpt lat="43.39793" lon="3.69689">
        <ele>13.7</ele>
        <time>2021-02-07T12:58:07Z</time>
      </trkpt>
      <trkpt lat="43.39789" lon="3.69686">
        <ele>14</ele>
        <time>2021-02-07T12:58:12Z</time>
      </trkpt>
      <trkpt lat="43.39785" lon="3.69681">
        <ele>14.2</ele>
        <time>2021-02-07T12:58:16Z</time>
      </trkpt>
      <trkpt lat="43.39781" lon="3.69678">
        <ele>14</ele>
        <time>2021-02-07T12:58:20Z</time>
      </trkpt>
      <trkpt lat="43.39776" lon="3.69672">
        <ele>13.8</ele>
        <time>2021-02-07T12:58:24Z</time>
      </trkpt>
      <trkpt lat="43.39773" lon="3.69668">
        <ele>13.8</ele>
        <time>2021-02-07T12:58:27Z</time>
      </trkpt>
      <trkpt lat="43.39771" lon="3.69661">
        <ele>13.7</ele>
        <time>2021-02-07T12:58:31Z</time>
      </trkpt>
      <trkpt lat="43.39769" lon="3.69654">
        <ele>13.4</ele>
        <time>2021-02-07T12:58:35Z</time>
      </trkpt>
      <trkpt lat="43.39767" lon="3.69648">
        <ele>13.4</ele>
        <time>2021-02-07T12:58:39Z</time>
      </trkpt>
      <trkpt lat="43.39764" lon="3.69642">
        <ele>13.5</ele>
        <time>2021-02-07T12:58:43Z</time>
      </trkpt>
      <trkpt lat="43.39761" lon="3.69637">
        <ele>13.3</ele>
        <time>2021-02-07T12:58:48Z</time>
      </trkpt>
      <trkpt lat="43.39756" lon="3.69633">
        <ele>12.1</ele>
        <time>2021-02-07T12:58:55Z</time>
      </trkpt>
      <trkpt lat="43.39751" lon="3.6963">
        <ele>11.9</ele>
        <time>2021-02-07T12:59:00Z</time>
      </trkpt>
      <trkpt lat="43.39747" lon="3.69627">
        <ele>11.8</ele>
        <time>2021-02-07T12:59:04Z</time>
      </trkpt>
      <trkpt lat="43.39743" lon="3.69625">
        <ele>11.9</ele>
        <time>2021-02-07T12:59:08Z</time>
      </trkpt>
      <trkpt lat="43.39738" lon="3.69623">
        <ele>11.9</ele>
        <time>2021-02-07T12:59:12Z</time>
      </trkpt>
      <trkpt lat="43.39733" lon="3.69622">
        <ele>12.1</ele>
        <time>2021-02-07T12:59:17Z</time>
      </trkpt>
      <trkpt lat="43.39728" lon="3.69619">
        <ele>11.7</ele>
        <time>2021-02-07T12:59:22Z</time>
      </trkpt>
      <trkpt lat="43.39724" lon="3.69617">
        <ele>11.4</ele>
        <time>2021-02-07T12:59:26Z</time>
      </trkpt>
      <trkpt lat="43.39719" lon="3.69615">
        <ele>11.3</ele>
        <time>2021-02-07T12:59:30Z</time>
      </trkpt>
      <trkpt lat="43.39714" lon="3.69613">
        <ele>11.2</ele>
        <time>2021-02-07T12:59:34Z</time>
      </trkpt>
      <trkpt lat="43.39709" lon="3.69611">
        <ele>11.3</ele>
        <time>2021-02-07T12:59:38Z</time>
      </trkpt>
      <trkpt lat="43.39705" lon="3.69609">
        <ele>11.3</ele>
        <time>2021-02-07T12:59:42Z</time>
      </trkpt>
      <trkpt lat="43.39699" lon="3.69607">
        <ele>11.4</ele>
        <time>2021-02-07T12:59:47Z</time>
      </trkpt>
      <trkpt lat="43.39695" lon="3.69606">
        <ele>12</ele>
        <time>2021-02-07T12:59:51Z</time>
      </trkpt>
      <trkpt lat="43.3969" lon="3.69604">
        <ele>12.2</ele>
        <time>2021-02-07T12:59:55Z</time>
      </trkpt>
      <trkpt lat="43.39685" lon="3.69603">
        <ele>12.3</ele>
        <time>2021-02-07T12:59:59Z</time>
      </trkpt>
      <trkpt lat="43.3968" lon="3.696">
        <ele>12.4</ele>
        <time>2021-02-07T13:00:04Z</time>
      </trkpt>
      <trkpt lat="43.39676" lon="3.69598">
        <ele>12.8</ele>
        <time>2021-02-07T13:00:08Z</time>
      </trkpt>
      <trkpt lat="43.39671" lon="3.69597">
        <ele>13.3</ele>
        <time>2021-02-07T13:00:13Z</time>
      </trkpt>
      <trkpt lat="43.39666" lon="3.69593">
        <ele>13.5</ele>
        <time>2021-02-07T13:00:18Z</time>
      </trkpt>
      <trkpt lat="43.39661" lon="3.69591">
        <ele>13.9</ele>
        <time>2021-02-07T13:00:23Z</time>
      </trkpt>
      <trkpt lat="43.39656" lon="3.69589">
        <ele>13.9</ele>
        <time>2021-02-07T13:00:27Z</time>
      </trkpt>
      <trkpt lat="43.39651" lon="3.69587">
        <ele>13.4</ele>
        <time>2021-02-07T13:00:32Z</time>
      </trkpt>
      <trkpt lat="43.39646" lon="3.69586">
        <ele>13.9</ele>
        <time>2021-02-07T13:00:51Z</time>
      </trkpt>
      <trkpt lat="43.39641" lon="3.69588">
        <ele>14.3</ele>
        <time>2021-02-07T13:00:57Z</time>
      </trkpt>
      <trkpt lat="43.39636" lon="3.69587">
        <ele>14.4</ele>
        <time>2021-02-07T13:01:01Z</time>
      </trkpt>
      <trkpt lat="43.39631" lon="3.69585">
        <ele>14.4</ele>
        <time>2021-02-07T13:01:05Z</time>
      </trkpt>
      <trkpt lat="43.39627" lon="3.69583">
        <ele>14</ele>
        <time>2021-02-07T13:01:11Z</time>
      </trkpt>
      <trkpt lat="43.39622" lon="3.69581">
        <ele>13.9</ele>
        <time>2021-02-07T13:01:15Z</time>
      </trkpt>
      <trkpt lat="43.39618" lon="3.69579">
        <ele>13.8</ele>
        <time>2021-02-07T13:01:19Z</time>
      </trkpt>
      <trkpt lat="43.39613" lon="3.69577">
        <ele>13.5</ele>
        <time>2021-02-07T13:01:23Z</time>
      </trkpt>
      <trkpt lat="43.39609" lon="3.69574">
        <ele>13.4</ele>
        <time>2021-02-07T13:01:27Z</time>
      </trkpt>
      <trkpt lat="43.39604" lon="3.69571">
        <ele>13.4</ele>
        <time>2021-02-07T13:01:31Z</time>
      </trkpt>
      <trkpt lat="43.396" lon="3.69568">
        <ele>13.5</ele>
        <time>2021-02-07T13:01:35Z</time>
      </trkpt>
      <trkpt lat="43.39595" lon="3.69565">
        <ele>13.6</ele>
        <time>2021-02-07T13:01:39Z</time>
      </trkpt>
      <trkpt lat="43.39591" lon="3.69563">
        <ele>14</ele>
        <time>2021-02-07T13:01:43Z</time>
      </trkpt>
      <trkpt lat="43.39587" lon="3.6956">
        <ele>14.3</ele>
        <time>2021-02-07T13:01:47Z</time>
      </trkpt>
      <trkpt lat="43.39583" lon="3.69556">
        <ele>14.4</ele>
        <time>2021-02-07T13:01:51Z</time>
      </trkpt>
      <trkpt lat="43.39579" lon="3.69554">
        <ele>14.5</ele>
        <time>2021-02-07T13:01:55Z</time>
      </trkpt>
      <trkpt lat="43.39574" lon="3.6955">
        <ele>14.6</ele>
        <time>2021-02-07T13:01:59Z</time>
      </trkpt>
      <trkpt lat="43.3957" lon="3.69547">
        <ele>14.6</ele>
        <time>2021-02-07T13:02:03Z</time>
      </trkpt>
      <trkpt lat="43.39566" lon="3.69543">
        <ele>14.6</ele>
        <time>2021-02-07T13:02:07Z</time>
      </trkpt>
      <trkpt lat="43.39563" lon="3.69539">
        <ele>14.7</ele>
        <time>2021-02-07T13:02:11Z</time>
      </trkpt>
      <trkpt lat="43.39559" lon="3.69534">
        <ele>14.7</ele>
        <time>2021-02-07T13:02:15Z</time>
      </trkpt>
      <trkpt lat="43.39556" lon="3.6953">
        <ele>14.8</ele>
        <time>2021-02-07T13:02:19Z</time>
      </trkpt>
      <trkpt lat="43.39551" lon="3.69529">
        <ele>15.4</ele>
        <time>2021-02-07T13:02:23Z</time>
      </trkpt>
      <trkpt lat="43.39546" lon="3.69527">
        <ele>15.8</ele>
        <time>2021-02-07T13:02:28Z</time>
      </trkpt>
      <trkpt lat="43.3954" lon="3.69526">
        <ele>16.5</ele>
        <time>2021-02-07T13:02:33Z</time>
      </trkpt>
      <trkpt lat="43.39535" lon="3.69526">
        <ele>16.9</ele>
        <time>2021-02-07T13:02:38Z</time>
      </trkpt>
      <trkpt lat="43.3953" lon="3.69525">
        <ele>17.4</ele>
        <time>2021-02-07T13:02:43Z</time>
      </trkpt>
      <trkpt lat="43.39525" lon="3.69526">
        <ele>17.6</ele>
        <time>2021-02-07T13:02:48Z</time>
      </trkpt>
      <trkpt lat="43.3952" lon="3.69523">
        <ele>18.2</ele>
        <time>2021-02-07T13:03:02Z</time>
      </trkpt>
      <trkpt lat="43.39515" lon="3.69522">
        <ele>18.4</ele>
        <time>2021-02-07T13:03:07Z</time>
      </trkpt>
      <trkpt lat="43.39511" lon="3.6952">
        <ele>18.7</ele>
        <time>2021-02-07T13:03:11Z</time>
      </trkpt>
      <trkpt lat="43.39507" lon="3.69518">
        <ele>18.9</ele>
        <time>2021-02-07T13:03:15Z</time>
      </trkpt>
      <trkpt lat="43.39503" lon="3.69516">
        <ele>18.8</ele>
        <time>2021-02-07T13:03:19Z</time>
      </trkpt>
      <trkpt lat="43.395" lon="3.69511">
        <ele>18.8</ele>
        <time>2021-02-07T13:03:23Z</time>
      </trkpt>
      <trkpt lat="43.39498" lon="3.69504">
        <ele>18.9</ele>
        <time>2021-02-07T13:03:27Z</time>
      </trkpt>
      <trkpt lat="43.39497" lon="3.69497">
        <ele>19</ele>
        <time>2021-02-07T13:03:31Z</time>
      </trkpt>
      <trkpt lat="43.39496" lon="3.6949">
        <ele>19.1</ele>
        <time>2021-02-07T13:03:35Z</time>
      </trkpt>
      <trkpt lat="43.39495" lon="3.69483">
        <ele>19.2</ele>
        <time>2021-02-07T13:03:39Z</time>
      </trkpt>
      <trkpt lat="43.39494" lon="3.69477">
        <ele>19.2</ele>
        <time>2021-02-07T13:03:43Z</time>
      </trkpt>
      <trkpt lat="43.39491" lon="3.69472">
        <ele>19.2</ele>
        <time>2021-02-07T13:03:47Z</time>
      </trkpt>
      <trkpt lat="43.39489" lon="3.69466">
        <ele>19.1</ele>
        <time>2021-02-07T13:03:51Z</time>
      </trkpt>
      <trkpt lat="43.39486" lon="3.69461">
        <ele>19</ele>
        <time>2021-02-07T13:03:55Z</time>
      </trkpt>
      <trkpt lat="43.39484" lon="3.69455">
        <ele>19</ele>
        <time>2021-02-07T13:04:00Z</time>
      </trkpt>
      <trkpt lat="43.39482" lon="3.69448">
        <ele>18.9</ele>
        <time>2021-02-07T13:04:07Z</time>
      </trkpt>
      <trkpt lat="43.3948" lon="3.69443">
        <ele>18.9</ele>
        <time>2021-02-07T13:04:11Z</time>
      </trkpt>
      <trkpt lat="43.39478" lon="3.69436">
        <ele>18.9</ele>
        <time>2021-02-07T13:04:15Z</time>
      </trkpt>
      <trkpt lat="43.39476" lon="3.6943">
        <ele>18.8</ele>
        <time>2021-02-07T13:04:19Z</time>
      </trkpt>
      <trkpt lat="43.39474" lon="3.69424">
        <ele>18.9</ele>
        <time>2021-02-07T13:04:23Z</time>
      </trkpt>
      <trkpt lat="43.39471" lon="3.69417">
        <ele>18.9</ele>
        <time>2021-02-07T13:04:27Z</time>
      </trkpt>
      <trkpt lat="43.39469" lon="3.69411">
        <ele>19.1</ele>
        <time>2021-02-07T13:04:31Z</time>
      </trkpt>
      <trkpt lat="43.39468" lon="3.69404">
        <ele>19.2</ele>
        <time>2021-02-07T13:04:35Z</time>
      </trkpt>
      <trkpt lat="43.39467" lon="3.69396">
        <ele>19.4</ele>
        <time>2021-02-07T13:04:39Z</time>
      </trkpt>
      <trkpt lat="43.39465" lon="3.6939">
        <ele>19.5</ele>
        <time>2021-02-07T13:04:43Z</time>
      </trkpt>
      <trkpt lat="43.39463" lon="3.69384">
        <ele>19.4</ele>
        <time>2021-02-07T13:04:48Z</time>
      </trkpt>
      <trkpt lat="43.39461" lon="3.69378">
        <ele>19.3</ele>
        <time>2021-02-07T13:04:52Z</time>
      </trkpt>
      <trkpt lat="43.39459" lon="3.69371">
        <ele>19.3</ele>
        <time>2021-02-07T13:04:56Z</time>
      </trkpt>
      <trkpt lat="43.39457" lon="3.69365">
        <ele>19.4</ele>
        <time>2021-02-07T13:05:00Z</time>
      </trkpt>
      <trkpt lat="43.39455" lon="3.69358">
        <ele>18.9</ele>
        <time>2021-02-07T13:05:04Z</time>
      </trkpt>
      <trkpt lat="43.39453" lon="3.69352">
        <ele>17.9</ele>
        <time>2021-02-07T13:05:09Z</time>
      </trkpt>
      <trkpt lat="43.39451" lon="3.69346">
        <ele>18.3</ele>
        <time>2021-02-07T13:05:12Z</time>
      </trkpt>
      <trkpt lat="43.39448" lon="3.69339">
        <ele>18.4</ele>
        <time>2021-02-07T13:05:16Z</time>
      </trkpt>
      <trkpt lat="43.39445" lon="3.69335">
        <ele>17.7</ele>
        <time>2021-02-07T13:05:20Z</time>
      </trkpt>
      <trkpt lat="43.39441" lon="3.6933">
        <ele>16.8</ele>
        <time>2021-02-07T13:05:25Z</time>
      </trkpt>
      <trkpt lat="43.39438" lon="3.69325">
        <ele>16.1</ele>
        <time>2021-02-07T13:05:29Z</time>
      </trkpt>
      <trkpt lat="43.39435" lon="3.69319">
        <ele>15.7</ele>
        <time>2021-02-07T13:05:33Z</time>
      </trkpt>
      <trkpt lat="43.39433" lon="3.69312">
        <ele>16</ele>
        <time>2021-02-07T13:05:37Z</time>
      </trkpt>
      <trkpt lat="43.39432" lon="3.69306">
        <ele>15.8</ele>
        <time>2021-02-07T13:05:41Z</time>
      </trkpt>
      <trkpt lat="43.3943" lon="3.69299">
        <ele>15.9</ele>
        <time>2021-02-07T13:05:44Z</time>
      </trkpt>
      <trkpt lat="43.39429" lon="3.69292">
        <ele>15.5</ele>
        <time>2021-02-07T13:05:48Z</time>
      </trkpt>
      <trkpt lat="43.39426" lon="3.69285">
        <ele>16.1</ele>
        <time>2021-02-07T13:05:52Z</time>
      </trkpt>
      <trkpt lat="43.39423" lon="3.69278">
        <ele>17</ele>
        <time>2021-02-07T13:05:56Z</time>
      </trkpt>
      <trkpt lat="43.39421" lon="3.69272">
        <ele>18.2</ele>
        <time>2021-02-07T13:06:00Z</time>
      </trkpt>
      <trkpt lat="43.39419" lon="3.69266">
        <ele>19.6</ele>
        <time>2021-02-07T13:06:05Z</time>
      </trkpt>
      <trkpt lat="43.39416" lon="3.69259">
        <ele>20.2</ele>
        <time>2021-02-07T13:06:09Z</time>
      </trkpt>
      <trkpt lat="43.39413" lon="3.69254">
        <ele>20.8</ele>
        <time>2021-02-07T13:06:13Z</time>
      </trkpt>
      <trkpt lat="43.39409" lon="3.69249">
        <ele>21.1</ele>
        <time>2021-02-07T13:06:17Z</time>
      </trkpt>
      <trkpt lat="43.39406" lon="3.69243">
        <ele>21.6</ele>
        <time>2021-02-07T13:06:21Z</time>
      </trkpt>
      <trkpt lat="43.39401" lon="3.6924">
        <ele>22</ele>
        <time>2021-02-07T13:06:25Z</time>
      </trkpt>
      <trkpt lat="43.39395" lon="3.69237">
        <ele>22.5</ele>
        <time>2021-02-07T13:06:29Z</time>
      </trkpt>
      <trkpt lat="43.39391" lon="3.69233">
        <ele>22.5</ele>
        <time>2021-02-07T13:06:32Z</time>
      </trkpt>
      <trkpt lat="43.39387" lon="3.6923">
        <ele>22.4</ele>
        <time>2021-02-07T13:06:35Z</time>
      </trkpt>
      <trkpt lat="43.39382" lon="3.69227">
        <ele>22.3</ele>
        <time>2021-02-07T13:06:39Z</time>
      </trkpt>
      <trkpt lat="43.39377" lon="3.69224">
        <ele>22.4</ele>
        <time>2021-02-07T13:06:43Z</time>
      </trkpt>
      <trkpt lat="43.39372" lon="3.69223">
        <ele>22.8</ele>
        <time>2021-02-07T13:06:46Z</time>
      </trkpt>
      <trkpt lat="43.39367" lon="3.6922">
        <ele>22.9</ele>
        <time>2021-02-07T13:06:50Z</time>
      </trkpt>
      <trkpt lat="43.39363" lon="3.69218">
        <ele>23.4</ele>
        <time>2021-02-07T13:06:53Z</time>
      </trkpt>
      <trkpt lat="43.39359" lon="3.69216">
        <ele>23.5</ele>
        <time>2021-02-07T13:06:56Z</time>
      </trkpt>
      <trkpt lat="43.39353" lon="3.69213">
        <ele>25</ele>
        <time>2021-02-07T13:06:59Z</time>
      </trkpt>
      <trkpt lat="43.39348" lon="3.69209">
        <ele>25.6</ele>
        <time>2021-02-07T13:07:02Z</time>
      </trkpt>
      <trkpt lat="43.39343" lon="3.69205">
        <ele>26.2</ele>
        <time>2021-02-07T13:07:05Z</time>
      </trkpt>
      <trkpt lat="43.39338" lon="3.69203">
        <ele>26.3</ele>
        <time>2021-02-07T13:07:09Z</time>
      </trkpt>
      <trkpt lat="43.39333" lon="3.69199">
        <ele>25.9</ele>
        <time>2021-02-07T13:07:14Z</time>
      </trkpt>
      <trkpt lat="43.39328" lon="3.69196">
        <ele>25.6</ele>
        <time>2021-02-07T13:07:18Z</time>
      </trkpt>
      <trkpt lat="43.39323" lon="3.69193">
        <ele>24.9</ele>
        <time>2021-02-07T13:07:23Z</time>
      </trkpt>
      <trkpt lat="43.39318" lon="3.69191">
        <ele>24.3</ele>
        <time>2021-02-07T13:07:29Z</time>
      </trkpt>
      <trkpt lat="43.39313" lon="3.69188">
        <ele>24.1</ele>
        <time>2021-02-07T13:07:33Z</time>
      </trkpt>
      <trkpt lat="43.39309" lon="3.69185">
        <ele>23.7</ele>
        <time>2021-02-07T13:07:40Z</time>
      </trkpt>
      <trkpt lat="43.39305" lon="3.69182">
        <ele>23.6</ele>
        <time>2021-02-07T13:07:45Z</time>
      </trkpt>
      <trkpt lat="43.39301" lon="3.69178">
        <ele>22.7</ele>
        <time>2021-02-07T13:07:49Z</time>
      </trkpt>
      <trkpt lat="43.39297" lon="3.69173">
        <ele>22.2</ele>
        <time>2021-02-07T13:07:53Z</time>
      </trkpt>
      <trkpt lat="43.39293" lon="3.69167">
        <ele>21.9</ele>
        <time>2021-02-07T13:07:57Z</time>
      </trkpt>
      <trkpt lat="43.39289" lon="3.69162">
        <ele>21.8</ele>
        <time>2021-02-07T13:08:01Z</time>
      </trkpt>
      <trkpt lat="43.39285" lon="3.69157">
        <ele>21.9</ele>
        <time>2021-02-07T13:08:11Z</time>
      </trkpt>
      <trkpt lat="43.39282" lon="3.69151">
        <ele>22</ele>
        <time>2021-02-07T13:08:15Z</time>
      </trkpt>
      <trkpt lat="43.39279" lon="3.69145">
        <ele>21.9</ele>
        <time>2021-02-07T13:08:19Z</time>
      </trkpt>
      <trkpt lat="43.39275" lon="3.69141">
        <ele>22.1</ele>
        <time>2021-02-07T13:08:23Z</time>
      </trkpt>
      <trkpt lat="43.39271" lon="3.69134">
        <ele>22.2</ele>
        <time>2021-02-07T13:08:27Z</time>
      </trkpt>
      <trkpt lat="43.39269" lon="3.69129">
        <ele>22.2</ele>
        <time>2021-02-07T13:08:31Z</time>
      </trkpt>
      <trkpt lat="43.39266" lon="3.69123">
        <ele>21.9</ele>
        <time>2021-02-07T13:08:35Z</time>
      </trkpt>
      <trkpt lat="43.39264" lon="3.69117">
        <ele>21.2</ele>
        <time>2021-02-07T13:08:39Z</time>
      </trkpt>
      <trkpt lat="43.39261" lon="3.69111">
        <ele>20.6</ele>
        <time>2021-02-07T13:08:43Z</time>
      </trkpt>
      <trkpt lat="43.39258" lon="3.69105">
        <ele>20.4</ele>
        <time>2021-02-07T13:08:47Z</time>
      </trkpt>
      <trkpt lat="43.39256" lon="3.69098">
        <ele>20.4</ele>
        <time>2021-02-07T13:08:51Z</time>
      </trkpt>
      <trkpt lat="43.39254" lon="3.69092">
        <ele>20.4</ele>
        <time>2021-02-07T13:08:55Z</time>
      </trkpt>
      <trkpt lat="43.39251" lon="3.69086">
        <ele>20.5</ele>
        <time>2021-02-07T13:08:59Z</time>
      </trkpt>
      <trkpt lat="43.3925" lon="3.69079">
        <ele>20.7</ele>
        <time>2021-02-07T13:09:03Z</time>
      </trkpt>
      <trkpt lat="43.39248" lon="3.69072">
        <ele>20.9</ele>
        <time>2021-02-07T13:09:07Z</time>
      </trkpt>
      <trkpt lat="43.39245" lon="3.69066">
        <ele>21.1</ele>
        <time>2021-02-07T13:09:11Z</time>
      </trkpt>
      <trkpt lat="43.39244" lon="3.6906">
        <ele>21.3</ele>
        <time>2021-02-07T13:09:15Z</time>
      </trkpt>
      <trkpt lat="43.39241" lon="3.69055">
        <ele>21.6</ele>
        <time>2021-02-07T13:09:54Z</time>
      </trkpt>
      <trkpt lat="43.3924" lon="3.69048">
        <ele>21.4</ele>
        <time>2021-02-07T13:09:59Z</time>
      </trkpt>
      <trkpt lat="43.39239" lon="3.69041">
        <ele>21.3</ele>
        <time>2021-02-07T13:10:03Z</time>
      </trkpt>
      <trkpt lat="43.39238" lon="3.69034">
        <ele>21.3</ele>
        <time>2021-02-07T13:10:07Z</time>
      </trkpt>
      <trkpt lat="43.39236" lon="3.69027">
        <ele>21.4</ele>
        <time>2021-02-07T13:10:11Z</time>
      </trkpt>
      <trkpt lat="43.39235" lon="3.6902">
        <ele>21.5</ele>
        <time>2021-02-07T13:10:15Z</time>
      </trkpt>
      <trkpt lat="43.39233" lon="3.69015">
        <ele>23.2</ele>
        <time>2021-02-07T13:11:19Z</time>
      </trkpt>
      <trkpt lat="43.39235" lon="3.69009">
        <ele>23.5</ele>
        <time>2021-02-07T13:12:04Z</time>
      </trkpt>
      <trkpt lat="43.39236" lon="3.69002">
        <ele>23.5</ele>
        <time>2021-02-07T13:12:08Z</time>
      </trkpt>
      <trkpt lat="43.39236" lon="3.68995">
        <ele>23.6</ele>
        <time>2021-02-07T13:12:12Z</time>
      </trkpt>
      <trkpt lat="43.39237" lon="3.68987">
        <ele>23.5</ele>
        <time>2021-02-07T13:12:16Z</time>
      </trkpt>
      <trkpt lat="43.39238" lon="3.6898">
        <ele>23.6</ele>
        <time>2021-02-07T13:12:20Z</time>
      </trkpt>
      <trkpt lat="43.39238" lon="3.68972">
        <ele>23.7</ele>
        <time>2021-02-07T13:12:24Z</time>
      </trkpt>
      <trkpt lat="43.39239" lon="3.68965">
        <ele>23.6</ele>
        <time>2021-02-07T13:12:28Z</time>
      </trkpt>
      <trkpt lat="43.3924" lon="3.68958">
        <ele>23.5</ele>
        <time>2021-02-07T13:12:32Z</time>
      </trkpt>
      <trkpt lat="43.3924" lon="3.6895">
        <ele>23.5</ele>
        <time>2021-02-07T13:12:36Z</time>
      </trkpt>
      <trkpt lat="43.39241" lon="3.68943">
        <ele>23.5</ele>
        <time>2021-02-07T13:12:40Z</time>
      </trkpt>
      <trkpt lat="43.39241" lon="3.68935">
        <ele>23.4</ele>
        <time>2021-02-07T13:12:44Z</time>
      </trkpt>
      <trkpt lat="43.39241" lon="3.68928">
        <ele>23.4</ele>
        <time>2021-02-07T13:12:48Z</time>
      </trkpt>
      <trkpt lat="43.39241" lon="3.68921">
        <ele>23.5</ele>
        <time>2021-02-07T13:12:52Z</time>
      </trkpt>
      <trkpt lat="43.39242" lon="3.68913">
        <ele>23.6</ele>
        <time>2021-02-07T13:12:56Z</time>
      </trkpt>
      <trkpt lat="43.39242" lon="3.68906">
        <ele>23.7</ele>
        <time>2021-02-07T13:13:00Z</time>
      </trkpt>
      <trkpt lat="43.39243" lon="3.68899">
        <ele>23.7</ele>
        <time>2021-02-07T13:13:04Z</time>
      </trkpt>
      <trkpt lat="43.39243" lon="3.68892">
        <ele>23.9</ele>
        <time>2021-02-07T13:13:08Z</time>
      </trkpt>
      <trkpt lat="43.39244" lon="3.68884">
        <ele>23.9</ele>
        <time>2021-02-07T13:13:12Z</time>
      </trkpt>
      <trkpt lat="43.39244" lon="3.68877">
        <ele>23.9</ele>
        <time>2021-02-07T13:13:16Z</time>
      </trkpt>
      <trkpt lat="43.39245" lon="3.6887">
        <ele>23.9</ele>
        <time>2021-02-07T13:13:20Z</time>
      </trkpt>
      <trkpt lat="43.39246" lon="3.68864">
        <ele>24</ele>
        <time>2021-02-07T13:13:24Z</time>
      </trkpt>
      <trkpt lat="43.39246" lon="3.68858">
        <ele>23.9</ele>
        <time>2021-02-07T13:13:28Z</time>
      </trkpt>
      <trkpt lat="43.39247" lon="3.6885">
        <ele>23.8</ele>
        <time>2021-02-07T13:13:32Z</time>
      </trkpt>
      <trkpt lat="43.39247" lon="3.68842">
        <ele>23.9</ele>
        <time>2021-02-07T13:13:36Z</time>
      </trkpt>
      <trkpt lat="43.39248" lon="3.68835">
        <ele>23.8</ele>
        <time>2021-02-07T13:13:40Z</time>
      </trkpt>
      <trkpt lat="43.39249" lon="3.68827">
        <ele>23.7</ele>
        <time>2021-02-07T13:13:44Z</time>
      </trkpt>
      <trkpt lat="43.39249" lon="3.6882">
        <ele>23.8</ele>
        <time>2021-02-07T13:13:48Z</time>
      </trkpt>
      <trkpt lat="43.39249" lon="3.68814">
        <ele>23.8</ele>
        <time>2021-02-07T13:13:52Z</time>
      </trkpt>
      <trkpt lat="43.3925" lon="3.68807">
        <ele>23.7</ele>
        <time>2021-02-07T13:13:56Z</time>
      </trkpt>
      <trkpt lat="43.39251" lon="3.68799">
        <ele>23.9</ele>
        <time>2021-02-07T13:14:00Z</time>
      </trkpt>
      <trkpt lat="43.39252" lon="3.68792">
        <ele>23.9</ele>
        <time>2021-02-07T13:14:04Z</time>
      </trkpt>
      <trkpt lat="43.39252" lon="3.68785">
        <ele>24.1</ele>
        <time>2021-02-07T13:14:08Z</time>
      </trkpt>
      <trkpt lat="43.39252" lon="3.68777">
        <ele>24.2</ele>
        <time>2021-02-07T13:14:12Z</time>
      </trkpt>
      <trkpt lat="43.39253" lon="3.6877">
        <ele>24.2</ele>
        <time>2021-02-07T13:14:16Z</time>
      </trkpt>
      <trkpt lat="43.39253" lon="3.68763">
        <ele>24.2</ele>
        <time>2021-02-07T13:14:20Z</time>
      </trkpt>
      <trkpt lat="43.39254" lon="3.68755">
        <ele>24.2</ele>
        <time>2021-02-07T13:14:24Z</time>
      </trkpt>
      <trkpt lat="43.39254" lon="3.68748">
        <ele>24.3</ele>
        <time>2021-02-07T13:14:28Z</time>
      </trkpt>
      <trkpt lat="43.39255" lon="3.68741">
        <ele>24.3</ele>
        <time>2021-02-07T13:14:32Z</time>
      </trkpt>
      <trkpt lat="43.39255" lon="3.68734">
        <ele>24.3</ele>
        <time>2021-02-07T13:14:36Z</time>
      </trkpt>
      <trkpt lat="43.39256" lon="3.68726">
        <ele>24.2</ele>
        <time>2021-02-07T13:14:40Z</time>
      </trkpt>
      <trkpt lat="43.39256" lon="3.68719">
        <ele>24.1</ele>
        <time>2021-02-07T13:14:44Z</time>
      </trkpt>
      <trkpt lat="43.39256" lon="3.68711">
        <ele>23.9</ele>
        <time>2021-02-07T13:14:48Z</time>
      </trkpt>
      <trkpt lat="43.39257" lon="3.68704">
        <ele>24.1</ele>
        <time>2021-02-07T13:14:52Z</time>
      </trkpt>
      <trkpt lat="43.39258" lon="3.68696">
        <ele>24.1</ele>
        <time>2021-02-07T13:14:56Z</time>
      </trkpt>
      <trkpt lat="43.39258" lon="3.68688">
        <ele>24.4</ele>
        <time>2021-02-07T13:15:00Z</time>
      </trkpt>
      <trkpt lat="43.39257" lon="3.68681">
        <ele>24.5</ele>
        <time>2021-02-07T13:15:04Z</time>
      </trkpt>
      <trkpt lat="43.39257" lon="3.68673">
        <ele>24.7</ele>
        <time>2021-02-07T13:15:08Z</time>
      </trkpt>
      <trkpt lat="43.39257" lon="3.68666">
        <ele>24.8</ele>
        <time>2021-02-07T13:15:12Z</time>
      </trkpt>
      <trkpt lat="43.39258" lon="3.68658">
        <ele>25.2</ele>
        <time>2021-02-07T13:15:16Z</time>
      </trkpt>
      <trkpt lat="43.39258" lon="3.68651">
        <ele>25.3</ele>
        <time>2021-02-07T13:15:20Z</time>
      </trkpt>
      <trkpt lat="43.39257" lon="3.68643">
        <ele>25.5</ele>
        <time>2021-02-07T13:15:24Z</time>
      </trkpt>
      <trkpt lat="43.39257" lon="3.68637">
        <ele>25.6</ele>
        <time>2021-02-07T13:15:28Z</time>
      </trkpt>
      <trkpt lat="43.39257" lon="3.68631">
        <ele>25.7</ele>
        <time>2021-02-07T13:15:34Z</time>
      </trkpt>
      <trkpt lat="43.39258" lon="3.68624">
        <ele>25.8</ele>
        <time>2021-02-07T13:15:38Z</time>
      </trkpt>
      <trkpt lat="43.39258" lon="3.68617">
        <ele>25.8</ele>
        <time>2021-02-07T13:15:42Z</time>
      </trkpt>
      <trkpt lat="43.39259" lon="3.6861">
        <ele>25.9</ele>
        <time>2021-02-07T13:15:46Z</time>
      </trkpt>
      <trkpt lat="43.39261" lon="3.68602">
        <ele>25.9</ele>
        <time>2021-02-07T13:15:50Z</time>
      </trkpt>
      <trkpt lat="43.39262" lon="3.68595">
        <ele>25.9</ele>
        <time>2021-02-07T13:15:54Z</time>
      </trkpt>
      <trkpt lat="43.39265" lon="3.68588">
        <ele>25.7</ele>
        <time>2021-02-07T13:15:58Z</time>
      </trkpt>
      <trkpt lat="43.39266" lon="3.68582">
        <ele>25.6</ele>
        <time>2021-02-07T13:16:02Z</time>
      </trkpt>
      <trkpt lat="43.39269" lon="3.68575">
        <ele>25.6</ele>
        <time>2021-02-07T13:16:06Z</time>
      </trkpt>
      <trkpt lat="43.39271" lon="3.68569">
        <ele>25.7</ele>
        <time>2021-02-07T13:16:10Z</time>
      </trkpt>
      <trkpt lat="43.39271" lon="3.68576">
        <ele>25.8</ele>
        <time>2021-02-07T13:16:20Z</time>
      </trkpt>
      <trkpt lat="43.39272" lon="3.68569">
        <ele>25.7</ele>
        <time>2021-02-07T13:16:44Z</time>
      </trkpt>
      <trkpt lat="43.39274" lon="3.68563">
        <ele>25.5</ele>
        <time>2021-02-07T13:16:48Z</time>
      </trkpt>
      <trkpt lat="43.39276" lon="3.68557">
        <ele>25.3</ele>
        <time>2021-02-07T13:16:52Z</time>
      </trkpt>
      <trkpt lat="43.39279" lon="3.6855">
        <ele>25.5</ele>
        <time>2021-02-07T13:16:57Z</time>
      </trkpt>
      <trkpt lat="43.39281" lon="3.68544">
        <ele>25.7</ele>
        <time>2021-02-07T13:17:02Z</time>
      </trkpt>
      <trkpt lat="43.39282" lon="3.68538">
        <ele>25.6</ele>
        <time>2021-02-07T13:17:06Z</time>
      </trkpt>
      <trkpt lat="43.39284" lon="3.68532">
        <ele>25.6</ele>
        <time>2021-02-07T13:17:10Z</time>
      </trkpt>
      <trkpt lat="43.39285" lon="3.68526">
        <ele>25.7</ele>
        <time>2021-02-07T13:17:14Z</time>
      </trkpt>
      <trkpt lat="43.39287" lon="3.6852">
        <ele>25.9</ele>
        <time>2021-02-07T13:17:18Z</time>
      </trkpt>
      <trkpt lat="43.39289" lon="3.68514">
        <ele>26.1</ele>
        <time>2021-02-07T13:17:23Z</time>
      </trkpt>
      <trkpt lat="43.39291" lon="3.68508">
        <ele>26.3</ele>
        <time>2021-02-07T13:17:28Z</time>
      </trkpt>
      <trkpt lat="43.39293" lon="3.68502">
        <ele>26.3</ele>
        <time>2021-02-07T13:17:32Z</time>
      </trkpt>
      <trkpt lat="43.39294" lon="3.68495">
        <ele>26.3</ele>
        <time>2021-02-07T13:17:36Z</time>
      </trkpt>
      <trkpt lat="43.39296" lon="3.68488">
        <ele>26.4</ele>
        <time>2021-02-07T13:17:40Z</time>
      </trkpt>
      <trkpt lat="43.39299" lon="3.68481">
        <ele>26.4</ele>
        <time>2021-02-07T13:17:44Z</time>
      </trkpt>
      <trkpt lat="43.39301" lon="3.68475">
        <ele>26.5</ele>
        <time>2021-02-07T13:17:48Z</time>
      </trkpt>
      <trkpt lat="43.39304" lon="3.68467">
        <ele>26.6</ele>
        <time>2021-02-07T13:17:52Z</time>
      </trkpt>
      <trkpt lat="43.39306" lon="3.6846">
        <ele>26.9</ele>
        <time>2021-02-07T13:17:56Z</time>
      </trkpt>
      <trkpt lat="43.39308" lon="3.68453">
        <ele>27</ele>
        <time>2021-02-07T13:18:00Z</time>
      </trkpt>
      <trkpt lat="43.3931" lon="3.68446">
        <ele>27.1</ele>
        <time>2021-02-07T13:18:04Z</time>
      </trkpt>
      <trkpt lat="43.39313" lon="3.68439">
        <ele>27.3</ele>
        <time>2021-02-07T13:18:08Z</time>
      </trkpt>
      <trkpt lat="43.39315" lon="3.68432">
        <ele>27.4</ele>
        <time>2021-02-07T13:18:12Z</time>
      </trkpt>
      <trkpt lat="43.39318" lon="3.68426">
        <ele>27.5</ele>
        <time>2021-02-07T13:18:16Z</time>
      </trkpt>
      <trkpt lat="43.39321" lon="3.6842">
        <ele>27.7</ele>
        <time>2021-02-07T13:18:20Z</time>
      </trkpt>
      <trkpt lat="43.39324" lon="3.68414">
        <ele>27.8</ele>
        <time>2021-02-07T13:18:24Z</time>
      </trkpt>
      <trkpt lat="43.39327" lon="3.68407">
        <ele>28</ele>
        <time>2021-02-07T13:18:28Z</time>
      </trkpt>
      <trkpt lat="43.3933" lon="3.68401">
        <ele>28.1</ele>
        <time>2021-02-07T13:18:32Z</time>
      </trkpt>
      <trkpt lat="43.39333" lon="3.68395">
        <ele>28.2</ele>
        <time>2021-02-07T13:18:36Z</time>
      </trkpt>
      <trkpt lat="43.39336" lon="3.68389">
        <ele>28.1</ele>
        <time>2021-02-07T13:18:40Z</time>
      </trkpt>
      <trkpt lat="43.39339" lon="3.68383">
        <ele>28.1</ele>
        <time>2021-02-07T13:18:44Z</time>
      </trkpt>
      <trkpt lat="43.39342" lon="3.68376">
        <ele>28</ele>
        <time>2021-02-07T13:18:48Z</time>
      </trkpt>
      <trkpt lat="43.39344" lon="3.6837">
        <ele>28.1</ele>
        <time>2021-02-07T13:18:52Z</time>
      </trkpt>
      <trkpt lat="43.39347" lon="3.68364">
        <ele>28.2</ele>
        <time>2021-02-07T13:18:56Z</time>
      </trkpt>
      <trkpt lat="43.3935" lon="3.68358">
        <ele>28.5</ele>
        <time>2021-02-07T13:19:00Z</time>
      </trkpt>
      <trkpt lat="43.39353" lon="3.68352">
        <ele>28.6</ele>
        <time>2021-02-07T13:19:04Z</time>
      </trkpt>
      <trkpt lat="43.39356" lon="3.68345">
        <ele>28.8</ele>
        <time>2021-02-07T13:19:08Z</time>
      </trkpt>
      <trkpt lat="43.39358" lon="3.68339">
        <ele>28.9</ele>
        <time>2021-02-07T13:19:12Z</time>
      </trkpt>
      <trkpt lat="43.39361" lon="3.68332">
        <ele>29</ele>
        <time>2021-02-07T13:19:16Z</time>
      </trkpt>
      <trkpt lat="43.39365" lon="3.68327">
        <ele>29</ele>
        <time>2021-02-07T13:19:20Z</time>
      </trkpt>
      <trkpt lat="43.39367" lon="3.68321">
        <ele>29.1</ele>
        <time>2021-02-07T13:19:24Z</time>
      </trkpt>
      <trkpt lat="43.3937" lon="3.68315">
        <ele>29.2</ele>
        <time>2021-02-07T13:19:28Z</time>
      </trkpt>
      <trkpt lat="43.39372" lon="3.68308">
        <ele>29.2</ele>
        <time>2021-02-07T13:19:32Z</time>
      </trkpt>
      <trkpt lat="43.39374" lon="3.68301">
        <ele>29.1</ele>
        <time>2021-02-07T13:19:36Z</time>
      </trkpt>
      <trkpt lat="43.39376" lon="3.68294">
        <ele>29</ele>
        <time>2021-02-07T13:19:40Z</time>
      </trkpt>
      <trkpt lat="43.39378" lon="3.68286">
        <ele>29.1</ele>
        <time>2021-02-07T13:19:44Z</time>
      </trkpt>
      <trkpt lat="43.39379" lon="3.68279">
        <ele>29.3</ele>
        <time>2021-02-07T13:19:48Z</time>
      </trkpt>
      <trkpt lat="43.3938" lon="3.68272">
        <ele>29.4</ele>
        <time>2021-02-07T13:19:52Z</time>
      </trkpt>
      <trkpt lat="43.39381" lon="3.68265">
        <ele>29.5</ele>
        <time>2021-02-07T13:19:56Z</time>
      </trkpt>
      <trkpt lat="43.39381" lon="3.68258">
        <ele>29.5</ele>
        <time>2021-02-07T13:20:00Z</time>
      </trkpt>
      <trkpt lat="43.39381" lon="3.6825">
        <ele>29.6</ele>
        <time>2021-02-07T13:20:04Z</time>
      </trkpt>
      <trkpt lat="43.39381" lon="3.68244">
        <ele>29.5</ele>
        <time>2021-02-07T13:20:08Z</time>
      </trkpt>
      <trkpt lat="43.39381" lon="3.68237">
        <ele>29.5</ele>
        <time>2021-02-07T13:20:12Z</time>
      </trkpt>
      <trkpt lat="43.3938" lon="3.68229">
        <ele>29.4</ele>
        <time>2021-02-07T13:20:16Z</time>
      </trkpt>
      <trkpt lat="43.3938" lon="3.68222">
        <ele>29.4</ele>
        <time>2021-02-07T13:20:20Z</time>
      </trkpt>
      <trkpt lat="43.39379" lon="3.68214">
        <ele>29.4</ele>
        <time>2021-02-07T13:20:24Z</time>
      </trkpt>
      <trkpt lat="43.39379" lon="3.68207">
        <ele>29.4</ele>
        <time>2021-02-07T13:20:28Z</time>
      </trkpt>
      <trkpt lat="43.39379" lon="3.68199">
        <ele>29.5</ele>
        <time>2021-02-07T13:20:32Z</time>
      </trkpt>
      <trkpt lat="43.39378" lon="3.68192">
        <ele>29.6</ele>
        <time>2021-02-07T13:20:36Z</time>
      </trkpt>
      <trkpt lat="43.39377" lon="3.68184">
        <ele>29.7</ele>
        <time>2021-02-07T13:20:40Z</time>
      </trkpt>
      <trkpt lat="43.39376" lon="3.68176">
        <ele>29.7</ele>
        <time>2021-02-07T13:20:44Z</time>
      </trkpt>
      <trkpt lat="43.39376" lon="3.68169">
        <ele>29.7</ele>
        <time>2021-02-07T13:20:48Z</time>
      </trkpt>
      <trkpt lat="43.39376" lon="3.68161">
        <ele>29.6</ele>
        <time>2021-02-07T13:20:52Z</time>
      </trkpt>
      <trkpt lat="43.39375" lon="3.68154">
        <ele>29.6</ele>
        <time>2021-02-07T13:20:56Z</time>
      </trkpt>
      <trkpt lat="43.39375" lon="3.68146">
        <ele>29.5</ele>
        <time>2021-02-07T13:21:00Z</time>
      </trkpt>
      <trkpt lat="43.39375" lon="3.68138">
        <ele>29.6</ele>
        <time>2021-02-07T13:21:04Z</time>
      </trkpt>
      <trkpt lat="43.39375" lon="3.68131">
        <ele>29.6</ele>
        <time>2021-02-07T13:21:08Z</time>
      </trkpt>
      <trkpt lat="43.39375" lon="3.68124">
        <ele>29.5</ele>
        <time>2021-02-07T13:21:12Z</time>
      </trkpt>
      <trkpt lat="43.39375" lon="3.68116">
        <ele>29.5</ele>
        <time>2021-02-07T13:21:16Z</time>
      </trkpt>
      <trkpt lat="43.39376" lon="3.68108">
        <ele>29.6</ele>
        <time>2021-02-07T13:21:20Z</time>
      </trkpt>
      <trkpt lat="43.39376" lon="3.681">
        <ele>29.7</ele>
        <time>2021-02-07T13:21:24Z</time>
      </trkpt>
      <trkpt lat="43.39375" lon="3.68092">
        <ele>29.8</ele>
        <time>2021-02-07T13:21:28Z</time>
      </trkpt>
      <trkpt lat="43.39374" lon="3.68084">
        <ele>29.9</ele>
        <time>2021-02-07T13:21:32Z</time>
      </trkpt>
      <trkpt lat="43.39373" lon="3.68076">
        <ele>29.9</ele>
        <time>2021-02-07T13:21:36Z</time>
      </trkpt>
      <trkpt lat="43.39373" lon="3.68069">
        <ele>29.9</ele>
        <time>2021-02-07T13:21:40Z</time>
      </trkpt>
      <trkpt lat="43.39372" lon="3.68061">
        <ele>29.9</ele>
        <time>2021-02-07T13:21:44Z</time>
      </trkpt>
      <trkpt lat="43.39371" lon="3.68053">
        <ele>29.9</ele>
        <time>2021-02-07T13:21:48Z</time>
      </trkpt>
      <trkpt lat="43.39371" lon="3.68045">
        <ele>29.8</ele>
        <time>2021-02-07T13:21:52Z</time>
      </trkpt>
      <trkpt lat="43.39371" lon="3.68037">
        <ele>29.8</ele>
        <time>2021-02-07T13:21:56Z</time>
      </trkpt>
      <trkpt lat="43.39371" lon="3.68029">
        <ele>29.9</ele>
        <time>2021-02-07T13:22:00Z</time>
      </trkpt>
      <trkpt lat="43.39371" lon="3.68021">
        <ele>30</ele>
        <time>2021-02-07T13:22:04Z</time>
      </trkpt>
      <trkpt lat="43.39372" lon="3.68014">
        <ele>30.2</ele>
        <time>2021-02-07T13:22:08Z</time>
      </trkpt>
      <trkpt lat="43.39374" lon="3.68007">
        <ele>30.5</ele>
        <time>2021-02-07T13:22:12Z</time>
      </trkpt>
      <trkpt lat="43.39378" lon="3.68002">
        <ele>30.6</ele>
        <time>2021-02-07T13:22:16Z</time>
      </trkpt>
      <trkpt lat="43.39383" lon="3.68">
        <ele>30.3</ele>
        <time>2021-02-07T13:22:20Z</time>
      </trkpt>
      <trkpt lat="43.39387" lon="3.67995">
        <ele>30.3</ele>
        <time>2021-02-07T13:22:24Z</time>
      </trkpt>
      <trkpt lat="43.39391" lon="3.67991">
        <ele>30.3</ele>
        <time>2021-02-07T13:22:28Z</time>
      </trkpt>
      <trkpt lat="43.39392" lon="3.67983">
        <ele>30.4</ele>
        <time>2021-02-07T13:22:33Z</time>
      </trkpt>
      <trkpt lat="43.39391" lon="3.67975">
        <ele>30.4</ele>
        <time>2021-02-07T13:22:37Z</time>
      </trkpt>
      <trkpt lat="43.3939" lon="3.67967">
        <ele>30.5</ele>
        <time>2021-02-07T13:22:41Z</time>
      </trkpt>
      <trkpt lat="43.3939" lon="3.6796">
        <ele>30.6</ele>
        <time>2021-02-07T13:22:45Z</time>
      </trkpt>
      <trkpt lat="43.3939" lon="3.67952">
        <ele>30.7</ele>
        <time>2021-02-07T13:22:49Z</time>
      </trkpt>
      <trkpt lat="43.3939" lon="3.67945">
        <ele>31.1</ele>
        <time>2021-02-07T13:22:52Z</time>
      </trkpt>
      <trkpt lat="43.39393" lon="3.67939">
        <ele>31.4</ele>
        <time>2021-02-07T13:22:56Z</time>
      </trkpt>
      <trkpt lat="43.39395" lon="3.67932">
        <ele>31.7</ele>
        <time>2021-02-07T13:23:00Z</time>
      </trkpt>
      <trkpt lat="43.39398" lon="3.67926">
        <ele>31.7</ele>
        <time>2021-02-07T13:23:04Z</time>
      </trkpt>
      <trkpt lat="43.39399" lon="3.67919">
        <ele>31.9</ele>
        <time>2021-02-07T13:23:08Z</time>
      </trkpt>
      <trkpt lat="43.394" lon="3.67911">
        <ele>32</ele>
        <time>2021-02-07T13:23:12Z</time>
      </trkpt>
      <trkpt lat="43.39401" lon="3.67904">
        <ele>32</ele>
        <time>2021-02-07T13:23:16Z</time>
      </trkpt>
      <trkpt lat="43.39404" lon="3.67898">
        <ele>32.1</ele>
        <time>2021-02-07T13:23:20Z</time>
      </trkpt>
      <trkpt lat="43.39406" lon="3.67891">
        <ele>32.1</ele>
        <time>2021-02-07T13:23:24Z</time>
      </trkpt>
      <trkpt lat="43.39409" lon="3.67885">
        <ele>32.5</ele>
        <time>2021-02-07T13:23:28Z</time>
      </trkpt>
      <trkpt lat="43.39411" lon="3.67878">
        <ele>32.7</ele>
        <time>2021-02-07T13:23:32Z</time>
      </trkpt>
      <trkpt lat="43.39413" lon="3.67871">
        <ele>33.1</ele>
        <time>2021-02-07T13:23:36Z</time>
      </trkpt>
      <trkpt lat="43.39416" lon="3.67864">
        <ele>33.5</ele>
        <time>2021-02-07T13:23:40Z</time>
      </trkpt>
      <trkpt lat="43.39418" lon="3.67857">
        <ele>33.6</ele>
        <time>2021-02-07T13:23:44Z</time>
      </trkpt>
      <trkpt lat="43.39417" lon="3.6785">
        <ele>34</ele>
        <time>2021-02-07T13:23:48Z</time>
      </trkpt>
      <trkpt lat="43.39417" lon="3.67843">
        <ele>34.3</ele>
        <time>2021-02-07T13:23:52Z</time>
      </trkpt>
      <trkpt lat="43.39418" lon="3.67835">
        <ele>34.6</ele>
        <time>2021-02-07T13:23:56Z</time>
      </trkpt>
      <trkpt lat="43.39418" lon="3.67829">
        <ele>34.7</ele>
        <time>2021-02-07T13:24:00Z</time>
      </trkpt>
      <trkpt lat="43.39421" lon="3.67823">
        <ele>34.8</ele>
        <time>2021-02-07T13:24:04Z</time>
      </trkpt>
      <trkpt lat="43.39423" lon="3.67816">
        <ele>34.9</ele>
        <time>2021-02-07T13:24:08Z</time>
      </trkpt>
      <trkpt lat="43.39425" lon="3.6781">
        <ele>35.1</ele>
        <time>2021-02-07T13:24:12Z</time>
      </trkpt>
      <trkpt lat="43.39428" lon="3.67804">
        <ele>35.2</ele>
        <time>2021-02-07T13:24:16Z</time>
      </trkpt>
      <trkpt lat="43.39431" lon="3.678">
        <ele>35.3</ele>
        <time>2021-02-07T13:24:20Z</time>
      </trkpt>
      <trkpt lat="43.39436" lon="3.67797">
        <ele>35.4</ele>
        <time>2021-02-07T13:24:24Z</time>
      </trkpt>
      <trkpt lat="43.39441" lon="3.67795">
        <ele>35.3</ele>
        <time>2021-02-07T13:24:28Z</time>
      </trkpt>
      <trkpt lat="43.39446" lon="3.67792">
        <ele>35.3</ele>
        <time>2021-02-07T13:24:33Z</time>
      </trkpt>
      <trkpt lat="43.39446" lon="3.67785">
        <ele>35.4</ele>
        <time>2021-02-07T13:24:38Z</time>
      </trkpt>
      <trkpt lat="43.39447" lon="3.67777">
        <ele>35.5</ele>
        <time>2021-02-07T13:24:43Z</time>
      </trkpt>
      <trkpt lat="43.39448" lon="3.67771">
        <ele>35.7</ele>
        <time>2021-02-07T13:24:48Z</time>
      </trkpt>
      <trkpt lat="43.39449" lon="3.67764">
        <ele>35.6</ele>
        <time>2021-02-07T13:24:52Z</time>
      </trkpt>
      <trkpt lat="43.39449" lon="3.67757">
        <ele>35.5</ele>
        <time>2021-02-07T13:24:56Z</time>
      </trkpt>
      <trkpt lat="43.39451" lon="3.6775">
        <ele>35.6</ele>
        <time>2021-02-07T13:25:00Z</time>
      </trkpt>
      <trkpt lat="43.39453" lon="3.67742">
        <ele>35.7</ele>
        <time>2021-02-07T13:25:04Z</time>
      </trkpt>
      <trkpt lat="43.39455" lon="3.67736">
        <ele>35.7</ele>
        <time>2021-02-07T13:25:08Z</time>
      </trkpt>
      <trkpt lat="43.39457" lon="3.67729">
        <ele>35.8</ele>
        <time>2021-02-07T13:25:12Z</time>
      </trkpt>
      <trkpt lat="43.39459" lon="3.67722">
        <ele>36.1</ele>
        <time>2021-02-07T13:25:16Z</time>
      </trkpt>
      <trkpt lat="43.39461" lon="3.67716">
        <ele>36</ele>
        <time>2021-02-07T13:25:20Z</time>
      </trkpt>
      <trkpt lat="43.39462" lon="3.67708">
        <ele>36</ele>
        <time>2021-02-07T13:25:24Z</time>
      </trkpt>
      <trkpt lat="43.39463" lon="3.67701">
        <ele>36.4</ele>
        <time>2021-02-07T13:25:28Z</time>
      </trkpt>
      <trkpt lat="43.39465" lon="3.67694">
        <ele>36.8</ele>
        <time>2021-02-07T13:25:32Z</time>
      </trkpt>
      <trkpt lat="43.39465" lon="3.67687">
        <ele>37.1</ele>
        <time>2021-02-07T13:25:37Z</time>
      </trkpt>
      <trkpt lat="43.39469" lon="3.67682">
        <ele>37</ele>
        <time>2021-02-07T13:25:42Z</time>
      </trkpt>
      <trkpt lat="43.39473" lon="3.67676">
        <ele>36.9</ele>
        <time>2021-02-07T13:25:46Z</time>
      </trkpt>
      <trkpt lat="43.39476" lon="3.6767">
        <ele>36.9</ele>
        <time>2021-02-07T13:25:50Z</time>
      </trkpt>
      <trkpt lat="43.39477" lon="3.67664">
        <ele>36.8</ele>
        <time>2021-02-07T13:25:54Z</time>
      </trkpt>
      <trkpt lat="43.39479" lon="3.67658">
        <ele>36.9</ele>
        <time>2021-02-07T13:25:58Z</time>
      </trkpt>
      <trkpt lat="43.39482" lon="3.67653">
        <ele>37</ele>
        <time>2021-02-07T13:26:02Z</time>
      </trkpt>
      <trkpt lat="43.39485" lon="3.67647">
        <ele>37</ele>
        <time>2021-02-07T13:26:06Z</time>
      </trkpt>
      <trkpt lat="43.39487" lon="3.6764">
        <ele>37.3</ele>
        <time>2021-02-07T13:26:10Z</time>
      </trkpt>
      <trkpt lat="43.3949" lon="3.67634">
        <ele>37.3</ele>
        <time>2021-02-07T13:26:14Z</time>
      </trkpt>
      <trkpt lat="43.39492" lon="3.67628">
        <ele>37.2</ele>
        <time>2021-02-07T13:26:18Z</time>
      </trkpt>
      <trkpt lat="43.39495" lon="3.67621">
        <ele>37.1</ele>
        <time>2021-02-07T13:26:22Z</time>
      </trkpt>
      <trkpt lat="43.39497" lon="3.67615">
        <ele>37</ele>
        <time>2021-02-07T13:26:26Z</time>
      </trkpt>
      <trkpt lat="43.39502" lon="3.67614">
        <ele>36.7</ele>
        <time>2021-02-07T13:26:40Z</time>
      </trkpt>
      <trkpt lat="43.39505" lon="3.67608">
        <ele>36.5</ele>
        <time>2021-02-07T13:26:47Z</time>
      </trkpt>
      <trkpt lat="43.39507" lon="3.67602">
        <ele>36.4</ele>
        <time>2021-02-07T13:26:52Z</time>
      </trkpt>
      <trkpt lat="43.39508" lon="3.67595">
        <ele>36.3</ele>
        <time>2021-02-07T13:26:56Z</time>
      </trkpt>
      <trkpt lat="43.3951" lon="3.67589">
        <ele>36.2</ele>
        <time>2021-02-07T13:27:00Z</time>
      </trkpt>
      <trkpt lat="43.39512" lon="3.67582">
        <ele>36.3</ele>
        <time>2021-02-07T13:27:04Z</time>
      </trkpt>
      <trkpt lat="43.39514" lon="3.67576">
        <ele>36.2</ele>
        <time>2021-02-07T13:27:08Z</time>
      </trkpt>
      <trkpt lat="43.39516" lon="3.67569">
        <ele>36</ele>
        <time>2021-02-07T13:27:12Z</time>
      </trkpt>
      <trkpt lat="43.39518" lon="3.67563">
        <ele>35.9</ele>
        <time>2021-02-07T13:27:16Z</time>
      </trkpt>
      <trkpt lat="43.39521" lon="3.67556">
        <ele>35.5</ele>
        <time>2021-02-07T13:27:20Z</time>
      </trkpt>
      <trkpt lat="43.39523" lon="3.6755">
        <ele>35.2</ele>
        <time>2021-02-07T13:27:24Z</time>
      </trkpt>
      <trkpt lat="43.39524" lon="3.67544">
        <ele>34.4</ele>
        <time>2021-02-07T13:27:31Z</time>
      </trkpt>
      <trkpt lat="43.39522" lon="3.67538">
        <ele>34.2</ele>
        <time>2021-02-07T13:27:35Z</time>
      </trkpt>
      <trkpt lat="43.39521" lon="3.67532">
        <ele>34.2</ele>
        <time>2021-02-07T13:27:39Z</time>
      </trkpt>
    </trkseg>
  </trk>
</gpx>